[[{"header":{"parameterUnit":"m.s-1","parameterCategory":1,"la1":30.6,"la2":28.766,"lo1":-90.7593,"lo2":-88.6598,"dy":0.0162,"dx":0.0183,"nx":116,"ny":114,"refTime":"2023-08-06T06:00:00:Z","depth":0,"parameterNumber":2,"parameterNumberName":"U-component_of_WINDS"},"data":[0.0,0.0,0.0,0.0,0.0,0.0,0.0,0.0,0.0,0.0,0.0,0.0,0.0,0.0,0.0,0.0,0.0,0.0,0.0,0.0,0.0,0.0,0.0,0.0,0.0,0.0,0.0,0.0,0.0,0.0,0.0,0.0,0.0,0.0,0.0,0.0,0.0,0.0,0.0,0.0,0.0,0.0,0.0,0.0,0.0,0.0,0.0,0.0,0.0,0.0,0.0,0.0,0.0,0.0,0.0,0.0,0.0,0.0,0.0,0.0,0.0,0.0,0.0,0.0,0.0,0.0,0.0,0.0,0.0,0.0,0.0,0.0,0.0,0.0,0.0,0.0,0.0,0.0,0.0,0.0,0.0,0.0,0.0,0.0,0.0,0.0,0.0,0.0,0.0,0.0,0.0,0.0,0.0,0.0,0.0,0.0,0.0,0.0,0.0,0.0,0.0,0.0,0.0,0.0,0.0,0.0,0.0,0.0,0.0,0.0,0.0,0.0,0.0,0.0,0.0,0.0,0.0,0.0,0.0,0.0,0.0,0.0,0.0,0.0,0.0,0.0,0.0,0.0,0.0,0.0,0.0,0.0,0.0,0.0,0.0,0.0,0.0,0.0,0.0,0.0,0.0,0.0,0.0,0.0,0.0,0.0,0.0,0.0,0.0,0.0,0.0,0.0,0.0,0.0,0.0,0.0,0.0,0.0,0.0,0.0,0.0,0.0,0.0,0.0,0.0,0.0,0.0,0.0,0.0,0.0,0.0,0.0,0.0,0.0,0.0,0.0,0.0,0.0,0.0,0.0,0.0,0.0,0.0,0.0,0.0,0.0,0.0,0.0,0.0,0.0,0.0,0.0,0.0,0.0,0.0,0.0,0.0,0.0,0.0,0.0,0.0,0.0,0.0,0.0,0.0,0.0,0.0,0.0,0.0,0.0,0.0,0.0,0.0,0.0,0.0,0.0,0.0,0.0,0.0,0.0,0.0,0.0,0.0,0.0,0.0,0.0,0.0,0.0,0.0,0.0,0.0,0.0,0.0,0.0,0.0,0.0,0.0,0.0,0.0,0.0,0.0,0.0,0.0,0.0,0.0,0.0,0.0,0.0,0.0,0.0,0.0,0.0,0.0,0.0,0.0,0.0,0.0,0.0,0.0,0.0,0.0,0.0,0.0,0.0,0.0,0.0,0.0,0.0,0.0,0.0,0.0,0.0,0.0,0.0,0.0,0.0,0.0,0.0,0.0,0.0,0.0,0.0,0.0,0.0,0.0,0.0,0.0,0.0,0.0,0.0,0.0,0.0,0.0,0.0,0.0,0.0,0.0,0.0,0.0,0.0,0.0,0.0,0.0,0.0,0.0,0.0,0.0,0.0,0.0,0.0,0.0,0.0,0.0,0.0,0.0,0.0,0.0,0.0,0.0,0.0,0.0,0.0,0.0,0.0,0.0,0.0,0.0,0.0,0.0,0.0,0.0,0.0,0.0,0.0,0.0,0.0,0.0,0.0,0.0,0.0,0.0,0.0,0.0,0.0,0.0,0.0,0.0,0.0,0.0,0.0,0.0,0.0,0.0,0.0,0.0,0.0,0.0,0.0,0.0,0.0,0.0,0.0,0.0,0.0,0.0,0.0,0.0,0.0,0.0,0.0,0.0,0.0,0.0,0.0,0.0,0.0,0.0,0.0,0.0,0.0,0.0,0.0,0.0,0.0,0.0,0.0,0.0,0.0,0.0,0.0,0.0,0.0,0.0,0.0,0.0,0.0,0.0,0.0,0.0,0.0,0.0,0.0,0.0,0.0,0.0,0.0,0.0,0.0,0.0,0.0,0.0,0.0,0.0,0.0,0.0,0.0,0.0,0.0,0.0,0.0,0.0,0.0,0.0,0.0,0.0,0.0,0.0,0.0,0.0,0.0,0.0,0.0,0.0,0.0,0.0,0.0,0.0,0.0,0.0,0.0,0.0,0.0,0.0,0.0,0.0,0.0,0.0,0.0,0.0,0.0,0.0,0.0,0.0,0.0,0.0,0.0,0.0,0.0,0.0,0.0,0.0,0.0,0.0,0.0,0.0,0.0,0.0,0.0,0.0,0.0,0.0,0.0,0.0,0.0,0.0,0.0,0.0,0.0,0.0,0.0,0.0,0.0,0.0,0.0,0.0,0.0,0.0,0.0,0.0,0.0,0.0,0.0,0.0,0.0,0.0,0.0,0.0,0.0,0.0,0.0,0.0,0.0,0.0,0.0,0.0,0.0,0.0,0.0,0.0,0.0,0.0,0.0,0.0,0.0,0.0,0.0,0.0,0.0,0.0,0.0,0.0,0.0,0.0,0.0,0.0,0.0,0.0,0.0,0.0,0.0,0.0,0.0,0.0,0.0,0.0,0.0,0.0,0.0,0.0,0.0,0.0,0.0,0.0,0.0,0.0,0.0,0.0,0.0,0.0,0.0,0.0,0.0,0.0,0.0,0.0,0.0,0.0,0.0,0.0,0.0,0.0,0.0,0.0,0.0,0.0,0.0,0.0,0.0,0.0,0.0,0.0,0.0,0.0,0.0,0.0,0.0,0.0,0.0,0.0,0.0,0.0,0.0,0.0,0.0,0.0,0.0,0.0,0.0,0.0,0.0,0.0,0.0,0.0,0.0,0.0,0.0,0.0,0.0,0.0,0.0,0.0,0.0,0.0,0.0,0.0,0.0,0.0,0.0,0.0,0.0,0.0,0.0,0.0,0.0,0.0,0.0,0.0,0.0,0.0,0.0,0.0,0.0,0.0,0.0,0.0,0.0,0.0,0.0,0.0,0.0,0.0,0.0,0.0,0.0,0.0,0.0,0.0,0.0,0.0,0.0,0.0,0.0,0.0,0.0,0.0,0.0,0.0,0.0,0.0,0.0,0.0,0.0,0.0,0.0,0.0,0.0,0.0,0.0,0.0,0.0,0.0,0.0,0.0,0.0,0.0,0.0,0.0,0.0,0.0,0.0,0.0,0.0,0.0,0.0,0.0,0.0,0.0,0.0,0.0,0.0,0.0,0.0,0.0,0.0,0.0,0.0,0.0,0.0,0.0,0.0,0.0,0.0,0.0,0.0,0.0,0.0,0.0,0.0,0.0,0.0,0.0,0.0,0.0,0.0,0.0,0.0,0.0,0.0,0.0,0.0,0.0,0.0,0.0,0.0,0.0,0.0,0.0,0.0,0.0,0.0,0.0,0.0,0.0,0.0,0.0,0.0,0.0,0.0,0.0,0.0,0.0,0.0,0.0,0.0,0.0,0.0,0.0,0.0,0.0,0.0,0.0,0.0,0.0,0.0,0.0,0.0,0.0,0.0,0.0,0.0,0.0,0.0,0.0,0.0,0.0,0.0,0.0,0.0,0.0,0.0,0.0,0.0,0.0,0.0,0.0,0.0,0.0,0.0,0.0,0.0,0.0,0.0,0.0,0.0,0.0,0.0,0.0,0.0,0.0,0.0,0.0,0.0,0.0,0.0,0.0,0.0,0.0,0.0,0.0,0.0,0.0,0.0,0.0,0.0,0.0,0.0,0.0,0.0,0.0,0.0,0.0,0.0,0.0,0.0,0.0,0.0,0.0,0.0,0.0,0.0,0.0,0.0,0.0,0.0,0.0,0.0,0.0,0.0,0.0,0.0,0.0,0.0,0.0,0.0,0.0,0.0,0.0,0.0,0.0,0.0,0.0,0.0,0.0,0.0,0.0,0.0,0.0,0.0,0.0,0.0,0.0,0.0,0.0,0.0,0.0,0.0,0.0,0.0,0.0,0.0,0.0,0.0,0.0,0.0,0.0,0.0,0.0,0.0,0.0,0.0,0.0,0.0,0.0,0.0,0.0,0.0,0.0,0.0,0.0,0.0,0.0,0.0,0.0,0.0,0.0,0.0,0.0,0.0,0.0,0.0,0.0,0.0,0.0,0.0,0.0,0.0,0.0,0.0,0.0,0.0,0.0,0.0,0.0,0.0,0.0,0.0,0.0,0.0,0.0,0.0,0.0,0.0,0.0,0.0,0.0,0.0,0.0,0.0,0.0,0.0,0.0,0.0,0.0,0.0,0.0,0.0,0.0,0.0,0.0,0.0,0.0,0.0,0.0,0.0,0.0,0.0,0.0,0.0,0.0,0.0,0.0,0.0,0.0,0.0,0.0,0.0,0.0,0.0,0.0,0.0,0.0,0.0,0.0,0.0,0.0,0.0,0.0,0.0,0.0,0.0,0.0,0.0,0.0,0.0,0.0,0.0,0.0,0.0,0.0,0.0,0.0,0.0,0.0,0.0,0.0,0.0,0.0,0.0,0.0,0.0,0.0,0.0,0.0,0.0,0.0,0.0,0.0,0.0,0.0,0.0,0.0,0.0,0.0,0.0,0.0,0.0,0.0,0.0,0.0,0.0,0.0,0.0,0.0,0.0,0.0,0.0,0.0,0.0,0.0,0.0,0.0,0.0,0.0,0.0,0.0,0.0,0.0,0.0,0.0,0.0,0.0,0.0,0.0,0.0,0.0,0.0,0.0,0.0,0.0,0.0,0.0,0.0,0.0,0.0,0.0,0.0,0.0,0.0,0.0,0.0,0.0,0.0,0.0,0.0,0.0,0.0,0.0,0.0,0.0,0.0,0.0,0.0,0.0,0.0,0.0,0.0,0.0,0.0,0.0,0.0,0.0,0.0,0.0,0.0,0.0,0.0,0.0,0.0,0.0,0.0,0.0,0.0,0.0,0.0,0.0,0.0,0.0,0.0,0.0,0.0,0.0,0.0,0.0,0.0,0.0,0.0,0.0,0.0,0.0,0.0,0.0,0.0,0.0,0.0,0.0,0.0,0.0,0.0,0.0,0.0,0.0,0.0,0.0,0.0,0.0,0.0,0.0,0.0,0.0,0.0,0.0,0.0,0.0,0.0,0.0,0.0,0.0,0.0,0.0,0.0,0.0,0.0,0.0,0.0,0.0,0.0,0.0,0.0,0.0,0.0,0.0,0.0,0.0,0.0,0.0,0.0,0.0,0.0,0.0,0.0,0.0,0.0,0.0,0.0,0.0,0.0,0.0,0.0,0.0,0.0,0.0,0.0,0.0,0.0,0.0,0.0,0.0,0.0,0.0,0.0,0.0,0.0,0.0,0.0,0.0,0.0,0.0,0.0,0.0,0.0,0.0,0.0,0.0,0.0,0.0,0.0,0.0,0.0,0.0,0.0,0.0,0.0,0.0,0.0,0.0,0.0,0.0,0.0,0.0,0.0,0.0,0.0,0.0,0.0,0.0,0.0,0.0,0.0,0.0,0.0,0.0,0.0,0.0,0.0,0.0,0.0,0.0,0.0,0.0,0.0,0.0,0.0,0.0,0.0,0.0,0.0,0.0,0.0,0.0,0.0,0.0,0.0,0.0,0.0,0.0,0.0,0.0,0.0,0.0,0.0,0.0,0.0,0.0,0.0,0.0,0.0,0.0,0.0,0.0,0.0,0.0,0.0,0.0,0.0,0.0,0.0,0.0,0.0,0.0,0.0,0.0,0.0,0.0,0.0,0.0,0.0,0.0,0.0,0.0,0.0,0.0,0.0,0.0,0.0,0.0,0.0,0.0,0.0,0.0,0.0,0.0,0.0,0.0,0.0,0.0,0.0,0.0,0.0,0.0,0.0,0.0,0.0,0.0,0.0,0.0,0.0,0.0,0.0,0.0,0.0,0.0,0.0,0.0,0.0,0.0,0.0,0.0,0.0,0.0,0.0,0.0,0.0,0.0,0.0,0.0,0.0,0.0,0.0,0.0,0.0,0.0,0.0,0.0,0.0,0.0,0.0,0.0,0.0,0.0,0.0,0.0,0.0,0.0,0.0,0.0,0.0,0.0,0.0,0.0,0.0,0.0,0.0,0.0,0.0,0.0,0.0,0.0,0.0,0.0,0.0,0.0,0.0,0.0,0.0,0.0,0.0,0.0,0.0,0.0,0.0,0.0,0.0,0.0,0.0,0.0,0.0,0.0,0.0,0.0,0.0,0.0,0.0,0.0,0.0,0.0,0.0,0.0,0.0,0.0,0.0,0.0,0.0,0.0,0.0,0.0,0.0,0.0,0.0,0.0,0.0,0.0,0.0,0.0,0.0,0.0,0.0,0.0,0.0,0.0,0.0,-1.5383,-1.4955,0.0,0.0,0.0,0.0,0.0,0.0,0.0,0.0,0.0,0.0,0.0,0.0,0.0,0.0,0.0,0.0,0.0,0.0,0.0,0.0,0.0,0.0,0.0,0.0,0.0,0.0,0.0,0.0,0.0,0.0,0.0,0.0,0.0,0.0,0.0,0.0,0.0,0.0,0.0,0.0,0.0,0.0,0.0,0.0,0.0,0.0,0.0,0.0,0.0,0.0,0.0,0.0,0.0,0.0,0.0,0.0,0.0,0.0,0.0,0.0,0.0,0.0,0.0,0.0,0.0,0.0,0.0,0.0,0.0,0.0,0.0,0.0,0.0,0.0,0.0,0.0,0.0,0.0,0.0,0.0,0.0,0.0,0.0,0.0,0.0,0.0,0.0,0.0,0.0,0.0,0.0,0.0,0.0,0.0,0.0,0.0,0.0,0.0,0.0,0.0,0.0,0.0,0.0,0.0,0.0,0.0,0.0,0.0,0.0,0.0,0.0,0.0,0.0,0.0,-1.7032,-1.6268,0.0,0.0,0.0,0.0,0.0,0.0,0.0,0.0,0.0,0.0,0.0,0.0,0.0,0.0,0.0,0.0,0.0,0.0,0.0,0.0,0.0,0.0,0.0,0.0,0.0,0.0,0.0,0.0,0.0,0.0,0.0,0.0,0.0,0.0,0.0,0.0,0.0,0.0,0.0,0.0,0.0,0.0,0.0,0.0,0.0,0.0,0.0,0.0,0.0,0.0,0.0,0.0,0.0,0.0,0.0,0.0,0.0,0.0,0.0,0.0,0.0,0.0,0.0,0.0,0.0,0.0,0.0,0.0,0.0,0.0,0.0,0.0,0.0,0.0,0.0,0.0,0.0,0.0,0.0,0.0,0.0,0.0,0.0,0.0,0.0,0.0,0.0,0.0,0.0,0.0,0.0,0.0,0.0,0.0,0.0,0.0,0.0,0.0,0.0,0.0,0.0,0.0,0.0,0.0,0.0,0.0,0.0,0.0,-1.9813,-2.0281,-2.0695,-2.0802,-2.1015,-2.1189,-1.9479,-1.845,-1.7943,-1.7594,0.0,0.0,0.0,0.0,0.0,0.0,0.0,0.0,0.0,0.0,0.0,0.0,0.0,0.0,0.0,0.0,0.0,0.0,0.0,0.0,0.0,0.0,0.0,0.0,0.0,0.0,0.0,0.0,0.0,0.0,0.0,0.0,0.0,0.0,0.0,0.0,0.0,0.0,0.0,0.0,0.0,0.0,0.0,0.0,0.0,0.0,0.0,0.0,0.0,0.0,0.0,0.0,0.0,0.0,0.0,0.0,0.0,0.0,0.0,0.0,0.0,0.0,0.0,0.0,0.0,0.0,0.0,0.0,0.0,0.0,0.0,0.0,0.0,0.0,0.0,0.0,0.0,0.0,0.0,0.0,0.0,0.0,0.0,0.0,0.0,0.0,-1.5204,-1.5035,0.0,0.0,0.0,0.0,0.0,0.0,0.0,0.0,0.0,0.0,0.0,0.0,0.0,-1.8718,-1.9011,-2.0422,-2.0962,-2.0842,-2.2164,-2.2699,-2.2539,-2.306,-2.346,-2.3728,-2.3447,0.0,-1.9452,-1.8651,0.0,0.0,0.0,0.0,0.0,0.0,0.0,0.0,0.0,0.0,0.0,0.0,0.0,0.0,0.0,0.0,0.0,0.0,0.0,0.0,0.0,0.0,0.0,0.0,0.0,0.0,0.0,0.0,0.0,0.0,0.0,0.0,0.0,0.0,0.0,0.0,0.0,0.0,0.0,0.0,0.0,0.0,0.0,0.0,0.0,0.0,0.0,0.0,0.0,0.0,0.0,0.0,0.0,0.0,0.0,0.0,0.0,0.0,0.0,0.0,0.0,0.0,0.0,0.0,0.0,0.0,0.0,0.0,0.0,0.0,0.0,0.0,0.0,0.0,0.0,0.0,0.0,0.0,0.0,0.0,0.0,0.0,0.0,0.0,0.0,-1.5057,-1.5404,-1.5444,-1.5818,-1.5912,0.0,0.0,0.0,0.0,0.0,0.0,0.0,0.0,0.0,-1.8865,-1.9867,-2.0615,-2.1082,-2.2218,-2.2979,-2.3354,-2.4168,-2.4663,-2.485,-2.5117,-2.5398,-2.5678,-2.5678,-2.4756,-2.3113,-2.1229,-2.0,-1.9212,0.0,0.0,0.0,0.0,-1.8424,-1.9105,0.0,0.0,0.0,0.0,0.0,0.0,0.0,0.0,0.0,0.0,0.0,0.0,0.0,0.0,0.0,0.0,0.0,0.0,0.0,0.0,0.0,0.0,0.0,0.0,0.0,0.0,0.0,0.0,0.0,0.0,0.0,0.0,0.0,0.0,0.0,0.0,0.0,0.0,0.0,0.0,0.0,0.0,0.0,0.0,0.0,0.0,0.0,0.0,0.0,0.0,0.0,0.0,0.0,0.0,0.0,0.0,0.0,0.0,0.0,0.0,0.0,0.0,0.0,0.0,0.0,0.0,0.0,0.0,0.0,0.0,0.0,0.0,0.0,0.0,0.0,0.0,0.0,-1.5517,-1.5845,-1.5784,-1.6433,-1.6633,0.0,0.0,0.0,0.0,0.0,0.0,-1.8758,-1.9452,-2.0187,-2.1002,-2.1951,-2.2699,-2.3207,-2.4102,-2.4917,-2.5638,-2.5932,-2.6346,-2.6841,-2.6841,-2.6947,-2.7161,-2.7161,-2.6867,-2.6213,-2.3701,-2.2191,-2.1363,-2.0254,-1.9947,-2.0134,-1.9987,-2.0401,-2.1082,0.0,0.0,0.0,0.0,0.0,0.0,0.0,0.0,0.0,0.0,0.0,0.0,0.0,0.0,0.0,0.0,0.0,0.0,0.0,0.0,0.0,0.0,0.0,0.0,0.0,0.0,0.0,0.0,0.0,0.0,0.0,0.0,0.0,0.0,0.0,0.0,0.0,0.0,0.0,0.0,0.0,0.0,0.0,0.0,0.0,0.0,0.0,0.0,0.0,0.0,0.0,0.0,0.0,0.0,0.0,0.0,0.0,0.0,0.0,0.0,0.0,0.0,0.0,0.0,0.0,0.0,0.0,0.0,0.0,0.0,0.0,0.0,0.0,0.0,0.0,0.0,0.0,0.0,0.0,-1.5878,-1.7341,0.0,0.0,0.0,0.0,-1.8744,-1.9319,-2.0027,-2.0909,-2.1777,-2.2525,-2.3153,-2.4302,-2.505,-2.5358,-2.6226,-2.6827,-2.7161,-2.7455,-2.7749,-2.814,-2.814,-2.814,-2.8167,-2.8167,-2.7896,-2.7455,-2.5358,-2.4155,-2.3527,-2.2605,-2.2245,-2.2298,-2.2565,-2.2886,-2.318,0.0,0.0,0.0,0.0,0.0,0.0,0.0,0.0,0.0,0.0,0.0,0.0,0.0,0.0,0.0,0.0,0.0,0.0,0.0,0.0,0.0,0.0,0.0,0.0,0.0,0.0,0.0,0.0,0.0,0.0,0.0,0.0,0.0,0.0,0.0,0.0,0.0,0.0,0.0,0.0,0.0,0.0,0.0,0.0,0.0,0.0,0.0,0.0,0.0,0.0,0.0,0.0,0.0,0.0,0.0,0.0,0.0,0.0,0.0,0.0,0.0,0.0,0.0,0.0,0.0,0.0,0.0,0.0,0.0,0.0,0.0,0.0,0.0,0.0,0.0,0.0,0.0,0.0,0.0,-1.8116,-1.9506,0.0,-1.9345,-1.9546,-1.9987,-2.0575,-2.1149,-2.1951,-2.3046,-2.3754,-2.4489,-2.5277,-2.6066,-2.6627,-2.6921,-2.7415,-2.7722,-2.7913,-2.802,-2.815,-2.843,-2.8315,-2.8257,-2.843,-2.823,-2.8203,-2.8217,-2.7281,-2.6319,-2.5371,-2.4476,-2.4249,-2.4396,-2.4315,-2.4716,-2.5304,0.0,0.0,0.0,0.0,0.0,0.0,0.0,0.0,0.0,0.0,0.0,0.0,0.0,0.0,0.0,0.0,0.0,0.0,0.0,0.0,0.0,0.0,0.0,0.0,0.0,0.0,0.0,0.0,0.0,0.0,0.0,0.0,0.0,0.0,0.0,0.0,0.0,0.0,0.0,0.0,0.0,0.0,-2.0277,0.0,0.0,0.0,0.0,0.0,0.0,0.0,0.0,0.0,0.0,0.0,0.0,0.0,0.0,0.0,0.0,0.0,0.0,0.0,0.0,0.0,0.0,0.0,0.0,0.0,0.0,0.0,0.0,0.0,0.0,0.0,0.0,0.0,0.0,0.0,-1.9733,-1.9933,-2.1413,-2.2137,-2.147,-2.1683,-2.2111,-2.2767,-2.3287,-2.4088,-2.5184,-2.5692,-2.6319,-2.7108,-2.7415,-2.7709,-2.8003,-2.8096,-2.8221,-2.8221,-2.8221,-2.8243,-2.8444,-2.835,-2.8417,-2.8604,-2.8497,-2.8511,-2.8591,-2.839,-2.7776,-2.6921,-2.6346,-2.6172,-2.6239,-2.6146,-2.6413,-2.6827,0.0,0.0,0.0,0.0,0.0,0.0,0.0,0.0,0.0,0.0,0.0,0.0,0.0,0.0,0.0,0.0,0.0,0.0,0.0,0.0,0.0,0.0,0.0,0.0,0.0,0.0,0.0,0.0,0.0,0.0,0.0,0.0,0.0,0.0,0.0,0.0,0.0,0.0,0.0,0.0,0.0,0.0,-2.3353,0.0,0.0,0.0,0.0,0.0,0.0,0.0,0.0,0.0,0.0,0.0,0.0,0.0,0.0,0.0,0.0,0.0,0.0,0.0,0.0,0.0,0.0,0.0,0.0,0.0,0.0,0.0,0.0,0.0,0.0,0.0,0.0,0.0,-1.7742,-1.972,-2.1216,-2.1243,-2.2792,-2.3634,-2.3115,-2.3768,-2.4529,-2.5104,-2.5692,-2.6479,-2.7268,-2.7589,-2.8016,-2.8604,-2.8323,-2.831,-2.8617,-2.8323,-2.8261,-2.8261,-2.8248,-2.8248,-2.8274,-2.8484,-2.8604,-2.8631,-2.8911,-2.8871,-2.8604,-2.8591,-2.8417,-2.8248,-2.8234,-2.7963,-2.7749,-2.8114,-2.7963,-2.7709,0.0,0.0,0.0,0.0,0.0,0.0,0.0,0.0,0.0,0.0,0.0,0.0,0.0,0.0,0.0,0.0,0.0,0.0,0.0,0.0,0.0,0.0,0.0,0.0,0.0,0.0,0.0,0.0,0.0,0.0,0.0,0.0,0.0,0.0,0.0,0.0,0.0,0.0,0.0,0.0,0.0,0.0,-2.4059,0.0,0.0,0.0,0.0,0.0,0.0,0.0,0.0,0.0,0.0,0.0,0.0,0.0,0.0,0.0,0.0,0.0,0.0,0.0,0.0,0.0,0.0,0.0,0.0,0.0,0.0,0.0,0.0,0.0,0.0,0.0,0.0,-2.0481,-2.0187,-2.1991,-2.3594,-2.4222,-2.5304,-2.5919,-2.5745,-2.5959,-2.6253,-2.664,-2.7296,-2.7749,-2.8217,-2.8511,-2.8751,-2.8911,-2.8845,-2.8831,-2.8925,-2.8831,-2.8791,-2.8791,-2.8577,-2.8698,-2.9098,-2.8764,-2.8724,-2.8911,-2.8778,-2.8684,-2.8591,-2.8364,-2.835,-2.8457,-2.8315,-2.8181,-2.803,-2.8194,-2.8181,-2.7989,0.0,0.0,0.0,0.0,0.0,0.0,0.0,0.0,0.0,0.0,0.0,0.0,0.0,0.0,0.0,0.0,0.0,0.0,0.0,0.0,0.0,0.0,0.0,0.0,0.0,0.0,0.0,0.0,0.0,0.0,0.0,0.0,0.0,0.0,0.0,0.0,0.0,0.0,0.0,0.0,0.0,0.0,-2.7044,-2.4365,-2.2479,-2.1017,-1.9413,-1.8694,-1.8316,-1.7365,0.0,0.0,0.0,0.0,0.0,0.0,0.0,0.0,0.0,0.0,0.0,0.0,0.0,0.0,0.0,0.0,0.0,0.0,0.0,0.0,0.0,0.0,0.0,0.0,-2.1283,-2.2819,-2.326,-2.4262,-2.5264,-2.6146,-2.68,-2.7295,-2.7549,-2.7562,-2.7696,-2.7989,-2.8323,-2.8604,-2.8778,-2.8951,-2.9098,-2.9219,-2.9219,-2.9219,-2.9219,-2.9219,-2.9098,-2.8858,-2.8818,-2.8898,-2.9112,-2.8885,-2.8885,-2.9032,-2.8858,-2.8724,-2.8591,-2.8417,-2.8364,-2.839,0.0,0.0,0.0,0.0,-2.8221,-2.8207,0.0,0.0,0.0,0.0,0.0,0.0,0.0,0.0,0.0,0.0,0.0,0.0,0.0,0.0,0.0,0.0,0.0,0.0,0.0,0.0,0.0,0.0,0.0,0.0,0.0,0.0,0.0,0.0,0.0,0.0,0.0,0.0,0.0,0.0,0.0,0.0,0.0,0.0,0.0,0.0,0.0,0.0,-3.1186,-2.5999,-2.4113,-2.3994,-2.143,-1.9624,-1.8441,-1.8836,0.0,0.0,0.0,0.0,0.0,0.0,0.0,0.0,0.0,0.0,0.0,0.0,0.0,0.0,0.0,0.0,0.0,0.0,0.0,0.0,0.0,0.0,0.0,0.0,-2.334,-2.4957,-2.6426,-2.6386,-2.6573,-2.7268,-2.7589,-2.7976,-2.8551,-2.8604,-2.8724,-2.9018,-2.9072,-2.9085,-2.9085,0.0,0.0,0.0,0.0,-2.9539,-2.9539,-2.9539,-2.9272,-2.8751,-2.8978,-2.8951,-2.8711,-2.8938,-2.9018,-2.8991,-2.8991,-2.8818,-2.8551,-2.8551,-2.839,-2.8221,-2.8221,-2.8221,-2.8221,-2.8221,-2.8221,-2.8221,0.0,0.0,0.0,0.0,0.0,0.0,0.0,0.0,0.0,0.0,0.0,0.0,0.0,0.0,0.0,0.0,0.0,0.0,0.0,0.0,0.0,0.0,0.0,0.0,0.0,0.0,0.0,0.0,0.0,0.0,0.0,0.0,0.0,0.0,0.0,0.0,0.0,0.0,0.0,0.0,0.0,0.0,-3.3762,-3.0765,-2.8226,-2.5977,-2.3947,-2.2051,-2.0428,-2.0064,-1.9735,-1.9319,-1.8504,0.0,0.0,0.0,0.0,0.0,0.0,0.0,0.0,0.0,0.0,0.0,0.0,0.0,0.0,0.0,0.0,0.0,0.0,0.0,0.0,-2.3701,-2.513,-2.648,-2.7976,-2.7909,-2.7859,-2.8033,-2.81,-2.8203,-2.8577,-2.8604,-2.8724,-2.9018,-2.9259,-2.9392,-2.9392,-2.9619,-2.978,-2.9833,-2.9833,-2.9833,-2.9833,-2.9833,-2.978,-2.9659,-2.9486,0.0,-2.9312,-2.9125,-2.8911,-2.8684,-2.8684,-2.8511,-2.8315,-2.8315,-2.8274,-2.8221,-2.8221,-2.8221,-2.8221,-2.8221,-2.8221,-2.8221,0.0,0.0,0.0,0.0,0.0,0.0,0.0,0.0,0.0,0.0,0.0,0.0,0.0,0.0,0.0,0.0,0.0,0.0,0.0,0.0,0.0,0.0,0.0,0.0,0.0,0.0,0.0,0.0,0.0,0.0,0.0,0.0,0.0,0.0,0.0,0.0,0.0,0.0,0.0,0.0,0.0,0.0,-3.5986,-3.3322,-3.1228,-2.934,-2.6192,-2.4148,-2.2659,-2.1344,-2.0695,-2.0347,-1.976,-1.8865,-1.7889,0.0,0.0,0.0,0.0,0.0,0.0,0.0,0.0,0.0,0.0,0.0,0.0,0.0,0.0,-1.972,0.0,0.0,-2.3848,-2.5464,-2.672,-2.7816,-2.8698,-2.8684,-2.8537,-2.839,-2.8377,-2.8551,-2.9005,-2.9045,-2.9232,-2.9673,-2.97,-2.97,-2.97,-2.9833,-2.9913,-2.9913,-3.006,-3.0074,-2.9913,-3.006,-2.9993,-2.97,-2.9553,-2.9406,-2.9245,-2.8965,-2.8751,-2.8604,-2.8444,-2.8283,-2.8221,-2.8221,-2.8221,-2.8221,-2.8221,-2.8221,-2.8221,-2.8221,-2.8221,-2.8221,0.0,0.0,0.0,0.0,0.0,0.0,0.0,0.0,0.0,0.0,0.0,0.0,0.0,0.0,0.0,0.0,0.0,0.0,0.0,0.0,0.0,0.0,0.0,0.0,0.0,0.0,0.0,0.0,0.0,0.0,0.0,0.0,0.0,0.0,0.0,0.0,0.0,0.0,0.0,0.0,0.0,0.0,-3.7533,-3.4976,-3.3473,-3.2194,-2.8209,-2.5713,-2.4055,-2.2291,-2.1203,-2.0668,-2.0601,-2.0013,-1.9158,-1.821,-1.7769,0.0,0.0,0.0,0.0,0.0,0.0,0.0,0.0,0.0,-1.8704,-2.002,-2.0828,-2.179,-2.3276,-2.4529,-2.5798,-2.6974,-2.803,-2.8778,-2.9005,-2.8991,-2.8871,-2.8631,-2.8657,-2.8898,-2.9432,-2.9486,-2.97,-3.0234,-3.0047,-2.9913,-2.9913,-2.986,-2.986,-2.9913,-3.01,-3.01,-2.9913,-3.0154,-3.0034,-2.9566,-2.9513,-2.9325,-2.9032,-2.8738,-2.8577,-2.8497,-2.8243,-2.8221,-2.8221,-2.8221,-2.8221,-2.8221,-2.8221,-2.8221,-2.8221,-2.8221,-2.8221,-2.8221,0.0,0.0,0.0,0.0,0.0,0.0,0.0,0.0,0.0,0.0,0.0,0.0,0.0,0.0,0.0,0.0,0.0,0.0,0.0,0.0,0.0,0.0,0.0,0.0,0.0,0.0,0.0,0.0,0.0,0.0,0.0,0.0,0.0,0.0,0.0,0.0,0.0,0.0,0.0,0.0,0.0,0.0,-3.7305,-3.6569,-3.4803,-3.233,-2.9632,-2.6423,-2.3303,-2.2318,-2.1376,-2.0802,-2.155,-2.1363,-2.0641,-1.9506,0.0,-1.7435,-1.674,-1.6233,-1.5979,-1.6406,-1.6807,-1.7836,0.0,0.0,-2.1588,-2.2979,-2.3567,-2.4182,-2.546,-2.6172,-2.7014,-2.8217,-2.8738,-2.9005,-2.9032,-2.8818,-2.8644,-2.8604,-2.8831,-2.9125,-2.9446,-2.9486,-2.9619,-2.994,-2.994,-2.9913,-2.9913,-2.9673,-2.9646,-2.9913,-2.97,-2.9686,-2.9913,-2.9953,-2.9927,-2.986,-2.9606,-2.9325,-2.9032,-2.8738,-2.8457,-2.8274,-2.8248,-2.8221,-2.8221,-2.8221,-2.8221,-2.8221,-2.8221,-2.8221,-2.8221,-2.8221,-2.8221,-2.8221,0.0,0.0,0.0,0.0,0.0,0.0,0.0,0.0,0.0,0.0,0.0,0.0,0.0,0.0,0.0,0.0,0.0,0.0,0.0,0.0,0.0,0.0,0.0,0.0,0.0,0.0,0.0,0.0,0.0,0.0,0.0,0.0,0.0,0.0,0.0,0.0,0.0,0.0,0.0,0.0,0.0,0.0,-3.7207,-3.6269,-3.4175,-3.1393,-2.9055,-2.6496,0.0,0.0,-2.0334,-2.0254,-2.0802,-2.0681,-2.0147,-1.9145,-1.8504,0.0,-1.7382,-1.7301,-1.7435,0.0,-1.8731,-2.0181,-2.1697,-2.2458,-2.322,-2.4516,-2.5291,-2.5985,-2.6814,-2.7455,-2.803,0.0,-2.8858,-2.9045,-2.9045,-2.8938,-2.8724,-2.8377,-2.8604,-2.8898,-2.9192,-2.9379,-2.9539,-2.9659,-2.9659,-2.9593,-2.9419,-2.9459,-2.9459,-2.9406,-2.9619,-2.9713,-2.9659,-2.9833,-2.9833,-2.9659,-2.9366,-2.9072,-2.8778,-2.847,-2.8355,-2.8221,-2.8221,-2.8221,-2.8221,-2.8221,-2.8221,-2.8221,-2.8221,-2.8221,-2.8221,-2.8221,-2.8114,-2.7883,0.0,0.0,0.0,0.0,0.0,0.0,0.0,0.0,0.0,0.0,0.0,0.0,0.0,0.0,0.0,0.0,0.0,0.0,0.0,0.0,0.0,0.0,0.0,0.0,0.0,0.0,0.0,0.0,0.0,0.0,0.0,0.0,0.0,0.0,0.0,0.0,0.0,0.0,0.0,0.0,0.0,0.0,-3.6094,-3.4941,-3.2568,-2.9623,-2.7687,-2.5453,0.0,0.0,-1.8718,-1.8905,-1.9359,-1.9466,-1.9292,-1.8584,-1.8196,-1.7903,-1.7462,0.0,0.0,-1.8998,-2.0588,-2.2285,-2.3193,-2.4022,-2.4917,-2.6012,-2.6747,-2.7321,-2.7749,-2.8257,-2.8577,-2.8497,-2.8791,-2.8978,-2.8818,-2.8724,-2.8444,-2.7843,-2.7829,-2.7989,-2.8283,-2.8871,-2.9272,-2.9352,-2.9366,-2.9272,-2.9045,-2.9165,-2.9179,-2.9045,-2.9446,-2.9606,-2.9486,-2.9686,-2.9686,-2.9486,-2.9098,-2.8804,-2.8591,-2.8283,-2.8221,-2.8221,-2.8221,-2.8221,-2.8221,-2.814,-2.8154,-2.8221,-2.814,-2.8154,-2.8221,-2.8221,-2.7949,-2.7682,0.0,0.0,0.0,0.0,0.0,0.0,0.0,0.0,0.0,0.0,0.0,0.0,0.0,0.0,0.0,0.0,0.0,0.0,0.0,0.0,0.0,0.0,0.0,0.0,0.0,0.0,0.0,0.0,0.0,0.0,0.0,0.0,0.0,0.0,0.0,0.0,0.0,0.0,0.0,0.0,0.0,0.0,-3.3437,-3.2598,-3.0122,-2.6865,-2.5635,0.0,0.0,0.0,-1.6607,-1.6576,-1.7395,-1.8063,0.0,-1.8102,-1.7448,0.0,0.0,0.0,-1.8838,-2.0254,-2.1951,-2.3728,-2.5451,-2.6306,-2.6987,-2.7883,-2.8167,-2.8194,-2.8207,-2.839,-2.8511,-2.8288,-2.8657,-2.8831,-2.8341,-2.7923,-2.7522,-2.6934,-2.6373,-2.6146,0.0,-2.7776,-2.8751,-2.9032,-2.9058,-2.9045,-2.9045,-2.8778,-2.8764,-2.9032,-2.9058,-2.9205,-2.9486,-2.9486,-2.9486,-2.9472,-2.8898,-2.8617,-2.8591,-2.8283,-2.8221,-2.8221,-2.8221,-2.8221,-2.8207,-2.7829,-2.7883,-2.8194,-2.7829,-2.7883,-2.8221,-2.8221,-2.7949,-2.7655,0.0,0.0,0.0,0.0,0.0,0.0,0.0,0.0,0.0,0.0,0.0,0.0,0.0,0.0,0.0,0.0,0.0,0.0,0.0,0.0,0.0,0.0,0.0,0.0,0.0,0.0,0.0,0.0,0.0,0.0,0.0,0.0,0.0,0.0,0.0,0.0,0.0,0.0,0.0,0.0,0.0,0.0,-3.2402,-3.0664,-2.7905,-2.4587,0.0,0.0,0.0,0.0,0.0,0.0,-1.5799,0.0,0.0,-1.6313,-1.6486,-1.6914,0.0,0.0,-2.0922,-2.2605,-2.4195,-2.5665,-2.6841,-2.7415,-2.7722,-2.7829,-2.7228,-2.6653,-2.6186,-2.6039,-2.5999,-2.6092,-2.6934,-2.7562,-2.7562,-2.7802,-2.7482,-2.6119,-2.6293,0.0,0.0,0.0,0.0,-2.811,-2.8337,-2.8444,-2.8444,-2.8551,-2.8564,-2.8444,-2.8831,-2.8991,-2.8898,-2.9098,-2.9098,-2.8898,-2.8497,-2.8297,-2.8297,-2.8274,-2.8221,-2.8221,-2.7936,-2.7843,-2.7829,-2.7535,-2.7468,-2.7549,-2.7455,-2.7468,-2.7618,-2.7335,-2.7201,-2.7134,0.0,0.0,0.0,0.0,0.0,0.0,0.0,0.0,0.0,0.0,0.0,0.0,0.0,0.0,0.0,0.0,0.0,0.0,0.0,0.0,0.0,0.0,0.0,0.0,0.0,0.0,0.0,0.0,0.0,0.0,0.0,0.0,0.0,0.0,0.0,0.0,0.0,0.0,0.0,0.0,0.0,0.0,-2.9219,-2.75,-2.4711,0.0,0.0,0.0,0.0,0.0,0.0,0.0,0.0,-1.4977,-1.5578,-1.5671,-1.6486,-1.7716,-1.9399,-2.1082,-2.2766,-2.4543,-2.5932,-2.7028,-2.7709,-2.7923,-2.7816,-2.7201,-2.6226,-2.5211,-2.4302,-2.3888,-2.3821,-2.4222,-2.501,-2.5892,-2.6827,-2.7001,-2.6787,-2.6066,-2.6199,-2.6213,0.0,0.0,0.0,-2.7642,-2.7976,-2.8221,-2.8221,-2.8337,-2.835,-2.8234,-2.8631,-2.8791,-2.8604,-2.8791,-2.8738,-2.8444,-2.8243,-2.8221,-2.8221,-2.8221,-2.8167,-2.7976,-2.7776,-2.7642,-2.7522,-2.7228,-2.7175,-2.7255,-2.7148,-2.7175,-2.7241,-2.7054,-2.6907,-2.6827,0.0,0.0,0.0,0.0,0.0,0.0,0.0,0.0,0.0,0.0,0.0,0.0,0.0,0.0,0.0,0.0,0.0,0.0,0.0,0.0,0.0,0.0,0.0,0.0,0.0,0.0,0.0,0.0,0.0,0.0,0.0,0.0,0.0,0.0,0.0,0.0,0.0,0.0,0.0,0.0,0.0,0.0,-2.4219,-2.3296,0.0,0.0,0.0,0.0,0.0,0.0,0.0,0.0,0.0,0.0,-1.5939,-1.6299,-1.7462,-1.9065,-2.1172,-2.2834,-2.4315,-2.6026,-2.7094,-2.7789,-2.8127,-2.7843,-2.7268,-2.6171,-2.509,-2.3981,0.0,0.0,-2.2044,-2.2713,-2.3113,-2.4102,-2.6106,-2.5718,-2.5625,0.0,0.0,0.0,0.0,0.0,0.0,-2.7629,0.0,-2.8234,-2.8248,-2.8248,-2.8248,-2.8248,-2.8444,-2.8577,-2.8577,-2.8577,-2.843,-2.8221,-2.8221,-2.8221,-2.8221,-2.8221,-2.8073,-2.7722,-2.7709,-2.7535,-2.7241,-2.6947,-2.6987,-2.7188,-2.6907,-2.6974,-2.7228,-2.7228,-2.7041,-2.676,0.0,0.0,0.0,0.0,0.0,0.0,0.0,0.0,0.0,0.0,0.0,0.0,0.0,0.0,0.0,0.0,0.0,0.0,0.0,0.0,0.0,0.0,0.0,0.0,0.0,0.0,0.0,0.0,0.0,0.0,0.0,0.0,0.0,0.0,0.0,0.0,0.0,0.0,0.0,0.0,0.0,0.0,-2.2871,0.0,0.0,0.0,0.0,0.0,0.0,0.0,0.0,0.0,0.0,-1.5832,-1.6714,-1.7903,-1.9292,-2.0842,-2.2699,-2.4436,-2.5985,-2.7094,-2.7696,-2.802,-2.7575,-2.6921,-2.6012,-2.4623,-2.2913,-2.1229,0.0,0.0,0.0,-2.1109,-2.2953,0.0,-2.6186,-2.6947,0.0,-2.656,0.0,-2.6707,-2.6413,-2.6787,0.0,0.0,-2.7976,-2.8328,-2.847,-2.8484,-2.8484,-2.8484,-2.8337,-2.8257,-2.8257,-2.8257,-2.8301,-2.8221,-2.8221,-2.8221,-2.8221,-2.8221,-2.8181,-2.81,-2.7789,-2.7535,-2.7241,-2.6947,-2.6734,-2.66,-2.6533,-2.6547,-2.6613,-2.6613,-2.656,-2.6493,0.0,0.0,0.0,0.0,0.0,0.0,0.0,0.0,0.0,0.0,0.0,0.0,0.0,0.0,0.0,0.0,0.0,0.0,0.0,0.0,0.0,0.0,0.0,0.0,0.0,0.0,0.0,0.0,0.0,0.0,0.0,0.0,0.0,0.0,0.0,0.0,0.0,0.0,0.0,0.0,0.0,0.0,0.0,0.0,0.0,0.0,0.0,0.0,0.0,0.0,0.0,-1.5471,-1.6437,-1.7382,-1.8357,-1.984,0.0,-2.2659,-2.4436,-2.5919,-2.7108,-2.7736,-2.7829,-2.7591,-2.6533,-2.5625,-2.4396,-2.2338,-2.0601,0.0,0.0,0.0,0.0,0.0,0.0,0.0,-2.5358,-2.6413,-2.6987,0.0,-2.7255,0.0,-2.7175,-2.7537,-2.7776,0.0,-2.8257,-2.8417,-2.8591,-2.8724,-2.8738,-2.8604,-2.8444,-2.8283,-2.8221,-2.8221,-2.8221,-2.8221,-2.8221,-2.8221,-2.8221,-2.8221,-2.8154,-2.7936,-2.7642,-2.7348,-2.7054,-2.676,-2.6533,-2.6386,-2.6386,-2.6386,-2.6386,-2.6386,-2.6306,-2.6199,0.0,0.0,0.0,0.0,0.0,0.0,0.0,0.0,0.0,0.0,0.0,0.0,0.0,0.0,0.0,0.0,0.0,0.0,0.0,0.0,0.0,0.0,0.0,0.0,0.0,0.0,0.0,0.0,0.0,0.0,0.0,0.0,0.0,0.0,0.0,0.0,0.0,0.0,0.0,0.0,0.0,0.0,0.0,0.0,0.0,0.0,0.0,0.0,0.0,0.0,-1.6476,-1.6727,-1.7942,-1.9199,-2.0441,-2.1951,-2.3193,-2.4422,-2.6066,-2.7121,-2.7816,-2.8167,-2.7725,-2.676,-2.5304,-2.4128,-2.2552,-1.9779,0.0,-1.7276,-1.5864,-1.5992,-1.6754,-1.825,0.0,-2.1657,-2.4315,-2.5237,-2.6146,-2.7535,-2.7736,-2.7856,-2.8207,-2.8221,-2.8341,-2.8524,-2.8577,-2.8631,-2.8657,-2.8898,-2.8885,-2.8564,-2.8551,-2.8417,-2.8234,-2.8221,-2.8221,-2.8221,-2.8221,-2.8221,-2.8221,-2.8221,-2.8003,-2.7749,-2.7495,-2.7188,-2.6867,-2.6613,-2.6453,-2.6386,-2.6386,-2.6386,-2.6386,-2.6346,-2.6172,-2.6023,0.0,0.0,0.0,0.0,0.0,0.0,0.0,0.0,0.0,0.0,-1.65,0.0,0.0,0.0,0.0,0.0,0.0,0.0,0.0,0.0,0.0,0.0,0.0,0.0,0.0,0.0,0.0,0.0,0.0,0.0,0.0,0.0,0.0,0.0,0.0,0.0,0.0,0.0,0.0,0.0,0.0,0.0,0.0,0.0,0.0,0.0,0.0,0.0,0.0,0.0,-1.6945,-1.7982,-1.9693,-2.1029,-2.2298,-2.4035,-2.5037,-2.5798,-2.6827,-2.7575,-2.8167,-2.8221,-2.7335,-2.6159,-2.469,-2.2726,0.0,0.0,0.0,-1.5864,-1.4923,-1.5578,0.0,-1.825,0.0,0.0,0.0,0.0,-2.66,0.0,0.0,0.0,0.0,0.0,0.0,0.0,-2.8457,-2.8711,-2.8951,-2.9005,-2.8791,-2.8243,-2.8315,-2.8274,-2.8221,-2.8221,-2.8221,-2.8221,-2.8221,-2.8221,-2.8221,-2.8221,-2.8194,-2.814,-2.81,-2.7765,-2.7188,-2.7134,-2.6827,-2.6386,-2.6386,-2.6386,-2.636,-2.6119,-2.6077,-2.5996,0.0,0.0,0.0,0.0,0.0,0.0,0.0,0.0,0.0,0.0,-1.65,-1.65,0.0,0.0,0.0,0.0,0.0,0.0,0.0,0.0,0.0,0.0,0.0,0.0,0.0,0.0,0.0,0.0,0.0,0.0,0.0,0.0,0.0,0.0,0.0,0.0,0.0,0.0,0.0,0.0,0.0,0.0,0.0,0.0,0.0,0.0,0.0,0.0,0.0,0.0,-1.7267,-1.8223,-2.0601,-2.2058,-2.3207,-2.4836,-2.5611,-2.6186,-2.7215,-2.7802,-2.8194,-2.7949,-2.68,-2.5197,-2.326,0.0,0.0,0.0,-1.5645,-1.4977,-1.4402,0.0,0.0,0.0,0.0,0.0,0.0,0.0,0.0,0.0,0.0,0.0,0.0,0.0,-2.8301,-2.8377,-2.8524,-2.8671,-2.8804,-2.8818,-2.8684,-2.839,-2.823,-2.8221,-2.8221,-2.8221,-2.8221,-2.8221,-2.8221,-2.8221,-2.8221,-2.8221,-2.8221,-2.8221,-2.7976,-2.7749,-2.7468,-2.7161,-2.6867,-2.66,-2.6453,-2.6386,-2.6373,-2.6239,-2.5985,-2.5705,0.0,0.0,0.0,0.0,0.0,0.0,0.0,-1.65,-1.65,-1.65,-1.65,-1.65,-1.65,-1.65,0.0,0.0,0.0,0.0,0.0,0.0,0.0,0.0,0.0,0.0,0.0,0.0,0.0,0.0,0.0,0.0,0.0,0.0,0.0,0.0,0.0,0.0,0.0,0.0,0.0,0.0,0.0,0.0,0.0,0.0,0.0,0.0,0.0,0.0,0.0,0.0,-1.7184,-1.7789,-2.0181,-2.1911,-2.3273,-2.4489,-2.5291,-2.6012,-2.7121,-2.7722,-2.7989,-2.7762,-2.6279,-2.4302,-2.2124,-1.9872,0.0,0.0,-1.4683,-1.4362,-1.4135,0.0,0.0,0.0,0.0,0.0,0.0,0.0,0.0,0.0,0.0,0.0,0.0,0.0,0.0,-2.8484,-2.8511,-2.8537,-2.8604,-2.8537,-2.8511,-2.8511,-2.827,-2.8221,-2.8221,-2.8221,-2.8221,-2.8221,-2.8221,-2.8221,-2.8221,-2.8221,-2.8221,-2.8207,-2.7896,-2.7722,-2.7562,-2.7108,-2.6841,-2.6707,-2.648,-2.6386,-2.6386,-2.6319,-2.631,-2.626,0.0,0.0,0.0,0.0,0.0,0.0,0.0,-1.65,-1.65,-1.65,-1.65,-1.65,-1.65,-1.65,0.0,0.0,0.0,0.0,0.0,0.0,0.0,0.0,0.0,0.0,0.0,0.0,0.0,-1.3651,-1.4402,0.0,0.0,0.0,0.0,0.0,0.0,-1.541,0.0,0.0,0.0,0.0,0.0,0.0,0.0,0.0,0.0,0.0,0.0,0.0,0.0,0.0,0.0,-1.6641,-1.7381,-1.9666,-2.2191,-2.2592,0.0,0.0,-2.6266,-2.7108,-2.7736,-2.7709,-2.5972,-2.3808,-2.2043,0.0,0.0,-1.533,-1.4566,-1.4122,-1.4095,-1.4362,0.0,0.0,0.0,0.0,0.0,0.0,0.0,0.0,0.0,0.0,0.0,0.0,0.0,-2.8261,-2.8274,-2.831,-2.8591,-2.8337,-2.8274,-2.8274,-2.8248,-2.8221,-2.8221,-2.8221,-2.8221,-2.8221,-2.8221,-2.8221,-2.8221,-2.8221,-2.8221,-2.8221,-2.8194,-2.7886,-2.7308,-2.7241,-2.6907,-2.6426,-2.64,-2.6386,-2.636,-2.6092,-2.7172,-2.8608,0.0,0.0,0.0,0.0,0.0,0.0,0.0,-1.6274,-1.65,-1.65,-1.65,-1.65,-1.65,-1.65,-1.65,0.0,0.0,0.0,0.0,0.0,0.0,0.0,0.0,0.0,0.0,0.0,0.0,-1.3516,-1.3848,0.0,0.0,0.0,0.0,0.0,0.0,-1.541,0.0,0.0,0.0,0.0,0.0,0.0,0.0,0.0,0.0,0.0,0.0,0.0,0.0,0.0,0.0,0.0,-1.5333,-1.6594,0.0,0.0,-2.2231,-2.3794,-2.5211,-2.6493,-2.7348,-2.7001,-2.5144,-2.2926,-2.1162,0.0,0.0,-1.4923,-1.4376,-1.4082,-1.4082,-1.4175,-1.4469,0.0,0.0,0.0,0.0,0.0,0.0,0.0,0.0,0.0,0.0,0.0,-2.8221,-2.8221,-2.8221,-2.8274,-2.8323,-2.8301,-2.8221,-2.8221,-2.8221,-2.8221,-2.8221,-2.8221,-2.8221,-2.8221,-2.8221,-2.8221,-2.8221,-2.8221,-2.8221,-2.8221,-2.7949,-2.7736,-2.7495,-2.7148,-2.6867,-2.6627,-2.6453,-2.6386,-2.6504,-2.7347,-2.8089,-2.8762,0.0,0.0,0.0,0.0,0.0,0.0,-1.5718,-1.6019,-1.6325,-1.6475,-1.65,-1.65,-1.65,-1.65,-1.65,-1.65,0.0,0.0,0.0,0.0,0.0,0.0,0.0,0.0,0.0,0.0,-1.3204,-1.332,-1.3437,-1.3887,0.0,0.0,-1.4941,-1.5234,0.0,0.0,0.0,0.0,0.0,0.0,0.0,0.0,0.0,0.0,0.0,0.0,0.0,0.0,0.0,0.0,0.0,0.0,0.0,0.0,0.0,0.0,-2.0147,-2.1991,-2.3607,-2.5237,-2.6386,-2.5972,-2.4155,-2.2097,0.0,0.0,0.0,-1.4696,-1.4295,-1.4082,-1.4082,-1.4082,-1.4175,0.0,0.0,0.0,0.0,0.0,0.0,0.0,0.0,0.0,0.0,-2.7926,-2.8221,-2.8221,-2.8221,-2.8221,-2.8221,-2.8221,-2.8221,-2.8221,-2.8221,-2.8221,-2.8221,-2.8221,-2.8221,-2.8221,-2.8221,-2.8221,-2.8221,-2.814,-2.8016,-2.7989,-2.7696,-2.7522,-2.7402,-2.6987,-2.6774,-2.668,-2.6466,-2.6386,-2.6583,-2.8183,-2.9109,-2.98,0.0,0.0,0.0,0.0,0.0,0.0,0.0,-1.5693,-1.5894,-1.6425,-1.65,-1.65,-1.65,-1.65,-1.65,-1.65,0.0,0.0,0.0,0.0,0.0,0.0,0.0,0.0,0.0,0.0,-1.3505,-1.2915,-1.3301,-1.3704,-1.4133,-1.459,-1.4813,-1.4805,0.0,0.0,0.0,0.0,0.0,0.0,0.0,0.0,0.0,0.0,0.0,0.0,0.0,0.0,0.0,0.0,0.0,0.0,0.0,0.0,0.0,0.0,-1.7528,-2.008,-2.1333,-2.31,-2.4663,-2.4649,-2.31,-2.1239,0.0,0.0,0.0,-1.4696,-1.4295,-1.4082,-1.4082,-1.4082,-1.4175,-1.4469,0.0,0.0,0.0,0.0,0.0,0.0,0.0,0.0,0.0,-2.7121,-2.8221,-2.8221,-2.8221,0.0,-2.8221,-2.8221,-2.8221,-2.8221,-2.8221,-2.8221,-2.8221,-2.8221,-2.8221,-2.8221,-2.8221,-2.8221,-2.8221,-2.7843,-2.7709,-2.7682,-2.7402,-2.7108,-2.6827,-2.6827,-2.6653,-2.6386,-2.6386,-2.6386,-2.6583,-2.8183,-3.0373,-3.2567,0.0,0.0,0.0,0.0,0.0,0.0,0.0,-1.5442,-1.5894,-1.6425,-1.65,-1.65,-1.65,-1.65,-1.6324,-1.5908,0.0,0.0,0.0,0.0,0.0,0.0,0.0,0.0,0.0,0.0,-1.3089,-1.2915,-1.3301,-1.3704,-1.4114,-1.457,-1.4813,-1.4833,-1.5215,-1.5176,0.0,0.0,0.0,0.0,0.0,0.0,0.0,0.0,0.0,0.0,0.0,0.0,0.0,0.0,0.0,0.0,0.0,0.0,0.0,0.0,0.0,0.0,-1.8784,-2.0227,-2.1336,-2.1336,-2.0241,-1.8878,-1.7796,0.0,0.0,0.0,-1.4148,-1.4082,-1.4082,-1.4082,-1.4242,-1.475,0.0,0.0,0.0,0.0,0.0,0.0,0.0,0.0,0.0,0.0,-2.8221,-2.8221,-2.8221,-2.8221,-2.8221,-2.8221,-2.8221,-2.8221,-2.8221,-2.8221,-2.8221,-2.8221,-2.8043,-2.7843,-2.7843,-2.7736,-2.7535,-2.7442,-2.7402,-2.7388,-2.7094,-2.6907,-2.6814,-2.6613,-2.6466,-2.6373,-2.6172,-2.6923,-2.8216,-2.9672,-3.1503,-3.3425,0.0,0.0,0.0,0.0,0.0,0.0,0.0,-1.4884,-1.5361,-1.6095,-1.6195,-1.6296,-1.6475,-1.65,-1.6346,-1.5974,0.0,0.0,0.0,0.0,0.0,0.0,0.0,0.0,0.0,-1.2915,-1.2915,-1.2915,-1.3301,-1.3704,-1.4114,-1.457,-1.4813,-1.4833,-1.5215,-1.5176,0.0,0.0,0.0,0.0,0.0,0.0,-1.541,0.0,0.0,0.0,0.0,0.0,0.0,0.0,0.0,0.0,0.0,0.0,0.0,0.0,0.0,0.0,0.0,-1.7996,-1.8851,-1.9078,-1.825,0.0,0.0,0.0,0.0,0.0,0.0,0.0,0.0,0.0,0.0,0.0,0.0,0.0,0.0,0.0,0.0,0.0,0.0,0.0,0.0,-2.7899,-2.8221,-2.8221,-2.8221,-2.8221,-2.8221,-2.8221,-2.8181,-2.7976,-2.8167,-2.8221,-2.8221,-2.803,-2.7883,-2.7696,-2.7589,-2.7442,-2.7268,-2.7148,-2.7567,-2.8267,-2.796,-2.8202,0.0,-2.8564,-2.8569,-2.8642,-2.8129,-2.8775,-3.0077,-3.1353,-3.268,-3.4052,0.0,0.0,0.0,0.0,0.0,0.0,0.0,0.0,0.0,0.0,-1.5643,-1.5844,-1.6375,-1.6425,-1.6429,0.0,0.0,0.0,0.0,0.0,0.0,0.0,0.0,0.0,0.0,-1.2915,-1.2915,-1.2915,-1.334,-1.3743,-1.4172,-1.4668,-1.4863,-1.4844,-1.5273,-1.5215,-1.4891,-1.5254,-1.541,-1.541,-1.541,-1.541,0.0,0.0,0.0,0.0,0.0,0.0,0.0,0.0,0.0,0.0,0.0,0.0,0.0,0.0,0.0,0.0,0.0,0.0,0.0,0.0,0.0,0.0,0.0,0.0,0.0,0.0,0.0,0.0,0.0,0.0,0.0,0.0,0.0,0.0,0.0,0.0,0.0,0.0,0.0,0.0,-2.5999,-2.739,-2.8221,-2.8221,-2.8221,-2.8221,-2.8221,-2.8305,-2.8254,-2.7958,-2.8381,-2.8433,-2.8167,-2.7802,-2.7655,-2.7629,-2.7362,-2.7296,-2.7432,-2.7149,-2.8105,-3.0009,-2.9694,-3.0607,-3.239,-3.1909,-3.2034,-3.2357,-3.1482,-3.149,-3.2093,-3.3196,-3.3946,-3.4591,0.0,0.0,0.0,0.0,0.0,0.0,0.0,0.0,0.0,0.0,0.0,-1.5286,-1.5819,-1.5894,0.0,0.0,0.0,0.0,0.0,0.0,0.0,0.0,0.0,0.0,0.0,-1.2915,-1.2915,-1.2915,-1.3613,-1.4172,-1.4648,-1.5439,-1.5615,-1.5273,-1.5752,-1.5664,-1.5273,-1.5371,-1.541,-1.541,-1.541,-1.541,0.0,0.0,0.0,0.0,-1.5323,-1.4746,0.0,0.0,0.0,0.0,0.0,0.0,0.0,0.0,-1.473,-1.4937,-1.3794,0.0,-1.4805,-1.4412,0.0,0.0,0.0,0.0,0.0,0.0,0.0,0.0,0.0,0.0,0.0,0.0,0.0,0.0,0.0,0.0,0.0,0.0,0.0,-2.7281,-2.668,-2.7549,-2.8221,-2.8221,-2.8221,-2.8221,-2.8221,-2.9774,-3.0447,-3.0045,-3.1706,-3.0995,-2.7551,-2.7402,-2.7255,-2.7028,-2.6961,-2.7588,-2.8904,-2.8831,-2.9728,-3.1377,-3.1297,-3.1313,-3.1499,-3.1416,-3.1416,-3.1449,-3.1079,-3.1832,-3.3178,-3.3266,-3.4293,-3.5593,0.0,0.0,0.0,0.0,0.0,0.0,0.0,0.0,0.0,0.0,0.0,0.0,0.0,0.0,0.0,0.0,0.0,0.0,0.0,0.0,0.0,0.0,0.0,0.0,-1.292,-1.2915,-1.2993,-1.3164,-1.3782,-1.4426,-1.5078,-1.5791,-1.5968,-1.5703,-1.5742,-1.5625,-1.541,-1.541,-1.541,-1.541,-1.541,0.0,0.0,0.0,0.0,0.0,-1.541,-1.5118,0.0,-1.5264,-1.5301,-1.5242,0.0,0.0,0.0,0.0,-1.5773,-1.6105,-1.435,-1.4552,-1.5095,-1.4551,-1.4453,-1.4631,0.0,0.0,0.0,0.0,0.0,0.0,0.0,0.0,0.0,0.0,0.0,0.0,0.0,0.0,0.0,0.0,0.0,-2.8632,0.0,-2.9724,-3.0759,-2.9774,-2.969,-3.0093,-3.1159,-3.1175,-3.1426,-3.2058,-3.2999,-3.2427,-3.0114,-2.9739,-2.9577,-2.9611,-2.9237,-2.9621,-3.0512,-3.0512,-3.1367,-3.2968,-3.2878,-3.336,-3.3946,-3.3786,-3.3804,-3.3893,-3.3232,-3.379,-3.4957,-3.4171,-3.47,-3.5664,0.0,0.0,0.0,0.0,0.0,0.0,0.0,0.0,0.0,0.0,0.0,0.0,0.0,0.0,0.0,0.0,0.0,0.0,0.0,0.0,0.0,0.0,0.0,-1.4048,-1.292,-1.2915,-1.3111,-1.3516,-1.3958,-1.464,-1.5527,-1.6065,-1.6261,-1.6183,-1.5644,-1.541,-1.541,-1.541,-1.541,-1.541,-1.541,0.0,0.0,0.0,0.0,0.0,0.0,0.0,0.0,-1.541,-1.541,-1.5469,-1.587,0.0,0.0,0.0,0.0,0.0,-1.577,-1.613,-1.6838,-1.6077,-1.5821,-1.5999,0.0,0.0,0.0,0.0,0.0,0.0,0.0,0.0,0.0,0.0,0.0,0.0,0.0,0.0,0.0,0.0,-2.9042,0.0,-2.9104,-3.2453,-3.392,-3.2052,-3.1842,-3.2648,-3.457,-3.2822,-3.2378,-3.3987,-3.3913,-3.3906,-3.4108,-3.2873,-3.2419,-3.2698,-3.2041,-3.1861,-3.2159,-3.2159,-3.3081,-3.4629,-3.4611,-3.5538,-3.707,-3.666,-3.668,-3.6894,-3.5742,-3.5723,-3.623,-3.5117,-3.4941,-3.5215,0.0,0.0,0.0,0.0,0.0,0.0,0.0,0.0,0.0,0.0,0.0,0.0,0.0,0.0,0.0,0.0,0.0,0.0,0.0,0.0,0.0,0.0,-1.4213,-1.36,-1.2939,-1.2915,-1.3111,-1.3516,-1.4297,-1.5146,-1.6007,-1.6829,-1.6973,-1.6551,-1.5781,-1.541,-1.541,-1.541,-1.541,-1.541,-1.541,0.0,0.0,0.0,0.0,0.0,0.0,0.0,0.0,-1.541,-1.541,-1.543,-1.5488,0.0,0.0,0.0,0.0,0.0,-1.615,-1.778,-1.9295,-1.6522,-1.6245,-1.675,0.0,0.0,0.0,0.0,0.0,0.0,0.0,0.0,0.0,0.0,0.0,0.0,0.0,0.0,-3.0714,-3.1348,0.0,-3.3627,-3.2643,-3.3867,-3.457,-3.4246,-3.3807,-3.3919,-3.4635,-3.5371,-3.5832,-3.6089,-3.7482,-3.789,-3.7242,-3.366,-3.1909,-3.1959,-3.1531,-3.2216,-3.3836,-3.3836,-3.4735,-3.6321,-3.6321,-3.6266,-3.6191,-3.5762,-3.5625,-3.5625,-3.5039,-3.4883,-3.498,-3.4766,-3.4746,-3.4746,0.0,0.0,0.0,0.0,0.0,0.0,0.0,0.0,0.0,0.0,0.0,0.0,0.0,0.0,0.0,0.0,0.0,0.0,0.0,0.0,0.0,0.0,-1.3813,-1.3166,-1.2915,-1.3105,-1.3418,-1.3821,-1.4473,-1.5352,-1.6426,-1.6836,-1.6914,-1.6668,-1.5771,-1.541,-1.541,-1.541,-1.541,-1.541,0.0,0.0,0.0,0.0,0.0,0.0,0.0,0.0,0.0,0.0,-1.541,-1.541,-1.541,0.0,0.0,0.0,0.0,0.0,-1.7162,-1.8222,-1.9288,-1.8286,-1.8404,-1.8935,0.0,0.0,0.0,0.0,0.0,0.0,0.0,0.0,0.0,0.0,0.0,-2.6865,-2.9278,-3.0792,-3.1929,0.0,0.0,-3.5158,-3.3785,-3.6228,-3.7245,-3.5834,-3.5504,-3.6035,-3.7421,-3.6723,-3.6798,-3.7953,-3.8333,-3.832,-3.793,-3.5622,-3.4559,-3.4758,-3.436,-3.4676,-3.5543,-3.5317,-3.5616,-3.6289,-3.5801,-3.5644,-3.5644,-3.5195,-3.5019,-3.498,-3.4531,-3.4492,-3.4668,-3.4453,-3.4219,-3.3984,0.0,0.0,0.0,0.0,0.0,0.0,0.0,0.0,0.0,0.0,0.0,0.0,0.0,0.0,0.0,0.0,0.0,0.0,0.0,0.0,-1.4698,-1.4698,-1.3549,-1.2954,-1.3052,-1.334,-1.3743,-1.425,-1.4727,-1.5547,-1.6707,-1.6707,-1.6648,-1.6543,-1.5762,-1.541,-1.541,-1.541,-1.541,-1.541,0.0,0.0,0.0,0.0,0.0,0.0,0.0,0.0,0.0,0.0,0.0,0.0,0.0,0.0,0.0,-1.6707,-1.7311,-1.8027,-1.8091,-1.8442,-1.8929,-1.9727,0.0,0.0,0.0,0.0,0.0,0.0,0.0,0.0,0.0,0.0,0.0,0.0,-2.8127,-2.9865,-3.1507,-3.2702,-3.3646,-3.4476,-3.6243,-3.6831,-3.5521,-3.8375,-3.9471,-3.7399,-3.7118,-3.7782,-3.9515,-3.754,-3.7128,-3.8833,-3.8164,-3.7734,-3.7637,-3.6992,-3.6836,-3.7148,-3.6621,-3.6426,-3.6504,-3.6074,-3.5937,-3.5976,-3.5195,-3.5059,-3.5351,-3.4785,-3.4551,-3.4512,-3.4082,-3.4121,-3.4355,-3.4043,-3.3711,-3.3418,0.0,0.0,0.0,0.0,0.0,0.0,0.0,0.0,0.0,0.0,0.0,0.0,0.0,0.0,0.0,0.0,0.0,0.0,0.0,0.0,-1.4698,-1.4698,-1.3549,-1.3066,-1.3457,-1.3496,-1.3906,-1.4746,-1.5156,-1.581,-1.6707,-1.6707,-1.6504,-1.6124,-1.5625,-1.541,-1.541,-1.541,-1.541,-1.541,-1.541,0.0,0.0,0.0,0.0,0.0,0.0,0.0,0.0,0.0,0.0,0.0,0.0,0.0,-1.6707,-1.6707,-1.7311,-1.8086,-1.8442,-1.8906,-1.9355,-1.9805,0.0,0.0,0.0,0.0,0.0,0.0,0.0,0.0,0.0,0.0,0.0,0.0,-3.0419,-3.3292,-3.6367,0.0,-3.8828,-3.9351,-3.9523,-3.9637,-3.9468,-3.9771,-3.9671,-3.9054,-3.8666,-3.8506,-3.8672,-3.7747,-3.7475,-3.8008,-3.7578,-3.7148,-3.6758,-3.6699,-3.668,-3.6699,-3.5879,-3.5684,-3.6055,-3.5625,-3.5644,-3.5996,-3.5547,-3.5371,-3.5332,-3.4473,-3.4121,-3.4082,-3.3633,-3.3496,-3.3516,-3.3476,-3.3457,-3.3418,0.0,0.0,0.0,0.0,0.0,0.0,0.0,0.0,0.0,0.0,0.0,0.0,0.0,0.0,0.0,0.0,0.0,0.0,0.0,0.0,-1.4698,-1.4698,-1.3549,-1.3086,-1.3496,-1.3743,-1.418,-1.4813,-1.5762,-1.6269,-1.6328,-1.657,-1.6484,-1.6065,-1.5605,-1.541,-1.541,-1.541,-1.541,-1.541,-1.541,-1.541,0.0,0.0,0.0,0.0,0.0,0.0,0.0,0.0,-1.541,0.0,0.0,0.0,-1.6707,-1.6707,-1.7311,-1.8047,-1.8203,-1.875,-1.9394,-1.9805,0.0,0.0,0.0,0.0,0.0,0.0,0.0,0.0,0.0,0.0,0.0,0.0,-3.3096,-3.5497,-3.778,-3.8984,-3.959,-3.9473,-3.9726,-3.957,-3.875,-3.8906,-3.8769,-3.8066,-3.7871,-3.7773,-3.7773,-3.748,-3.7363,-3.7539,-3.6855,-3.6426,-3.6269,-3.5723,-3.5449,-3.5449,-3.541,-3.5488,-3.5605,-3.4902,-3.4805,-3.5156,-3.4473,-3.4316,-3.4531,-3.3926,-3.3672,-3.3652,-3.3496,-3.3418,-3.3418,-3.3418,-3.3418,-3.3418,0.0,0.0,0.0,0.0,0.0,0.0,0.0,0.0,0.0,0.0,0.0,0.0,0.0,0.0,0.0,0.0,0.0,0.0,0.0,-1.5533,-1.4903,-1.4698,-1.3718,-1.3288,-1.3496,-1.3899,-1.4328,-1.4813,-1.5957,-1.6289,-1.5889,-1.6309,-1.6289,-1.587,-1.5547,-1.541,-1.541,-1.541,-1.541,-1.541,-1.541,-1.541,0.0,0.0,0.0,0.0,0.0,0.0,0.0,0.0,0.0,0.0,0.0,0.0,0.0,0.0,-1.7408,-1.8008,-1.8008,-1.8437,-1.9043,0.0,0.0,0.0,0.0,0.0,0.0,0.0,0.0,0.0,0.0,0.0,0.0,0.0,-3.4414,-3.6328,-3.7773,-3.8613,-3.8965,-3.8633,-3.8887,-3.873,-3.7812,-3.7988,-3.7871,-3.7148,-3.6973,-3.6894,-3.6894,-3.6621,-3.6543,-3.6699,-3.5976,-3.5605,-3.5605,-3.5,-3.4707,-3.4707,-3.4883,-3.5059,-3.5156,-3.4414,-3.4297,-3.4668,-3.3945,-3.3789,-3.4043,-3.3594,-3.3418,-3.3418,-3.3418,-3.3418,-3.3418,-3.3418,-3.3418,-3.3418,0.0,0.0,0.0,0.0,0.0,0.0,0.0,0.0,0.0,0.0,0.0,0.0,0.0,0.0,0.0,0.0,0.0,0.0,0.0,-1.593,-1.5332,-1.4721,-1.412,-1.371,-1.3496,-1.3899,-1.4328,-1.4813,-1.5674,-1.587,-1.543,-1.5889,-1.587,-1.541,-1.543,-1.543,-1.541,-1.541,-1.5381,-1.541,-1.541,-1.541,-1.541,0.0,0.0,0.0,0.0,0.0,0.0,0.0,0.0,0.0,0.0,0.0,0.0,0.0,-1.7676,-1.8008,-1.8008,-1.8027,0.0,0.0,0.0,0.0,0.0,0.0,0.0,0.0,0.0,0.0,-2.9512,0.0,0.0,-3.1894,-3.3984,-3.5684,-3.6543,-3.7031,-3.7305,-3.7285,-3.7285,-3.7285,-3.7285,-3.7285,-3.7109,-3.668,-3.625,-3.6016,-3.6016,-3.5176,-3.4902,-3.5371,-3.4941,-3.4687,-3.4687,-3.4687,-3.4668,-3.4668,-3.4258,-3.4277,-3.4668,-3.4258,-3.4297,-3.4668,-3.4238,-3.4062,-3.4023,-3.3594,-3.3418,-3.3418,-3.3418,-3.3418,-3.3418,-3.3418,-3.3418,-3.3418,0.0,0.0,0.0,0.0,0.0,0.0,0.0,0.0,0.0,0.0,0.0,0.0,0.0,0.0,0.0,0.0,0.0,0.0,0.0,-1.593,-1.5332,-1.4721,-1.4537,-1.4018,-1.3091,-1.3743,-1.4465,-1.5215,-1.5811,-1.587,-1.543,-1.6172,-1.6309,-1.5909,-1.6211,-1.6172,-1.5889,-1.5889,-1.5684,-1.541,-1.541,-1.541,-1.541,0.0,0.0,0.0,0.0,0.0,0.0,0.0,0.0,0.0,0.0,0.0,0.0,0.0,-1.7676,-1.8008,-1.8008,0.0,0.0,0.0,0.0,0.0,0.0,0.0,0.0,0.0,0.0,0.0,-3.0469,0.0,0.0,-3.2422,-3.3906,-3.5312,-3.6504,-3.7031,-3.7187,-3.6894,-3.6855,-3.6621,-3.6016,-3.5957,-3.5762,-3.5312,-3.5156,-3.5098,-3.5098,-3.4844,-3.4766,-3.4902,-3.4492,-3.4121,-3.3809,-3.3516,-3.3203,-3.291,-3.2793,-3.3262,-3.4238,-3.3809,-3.3691,-3.3769,-3.3359,-3.3184,-3.3144,-3.2715,-3.2715,-3.2988,-3.2988,-3.2988,-3.3008,-3.332,-3.3418,-3.3379,0.0,0.0,0.0,0.0,0.0,0.0,0.0,0.0,0.0,0.0,0.0,0.0,0.0,0.0,0.0,0.0,0.0,0.0,0.0,0.0,-1.5688,-1.5085,-1.4835,-1.429,-1.3404,-1.3841,-1.4523,-1.541,-1.5684,-1.5664,-1.543,-1.6133,-1.6328,-1.6124,0.0,-1.6484,-1.6085,-1.6085,-1.5948,-1.5664,-1.5664,-1.5781,-1.5888,0.0,0.0,0.0,0.0,0.0,0.0,0.0,0.0,0.0,0.0,0.0,0.0,0.0,-1.7812,-1.8047,-1.8188,0.0,0.0,0.0,0.0,0.0,0.0,0.0,0.0,0.0,0.0,0.0,-3.1562,-3.1582,0.0,-3.2871,-3.3828,-3.4785,-3.5742,-3.6113,-3.6172,-3.5918,-3.5898,-3.5684,-3.5176,-3.4961,-3.4824,-3.4707,-3.4394,-3.4336,-3.4687,-3.4219,-3.4101,-3.4434,-3.3711,-3.3281,-3.3164,-3.2754,-3.2422,-3.2229,-3.2229,-3.2578,-3.3364,-3.3047,-3.293,-3.291,-3.2656,-3.2539,-3.2519,-3.2266,-3.2324,-3.2539,-3.2539,-3.2539,-3.2578,-3.2832,-3.293,-3.2891,0.0,0.0,0.0,0.0,0.0,0.0,0.0,0.0,0.0,0.0,0.0,0.0,0.0,0.0,0.0,0.0,0.0,0.0,0.0,0.0,-1.6238,-1.562,-1.4971,-1.4524,-1.4288,-1.4167,-1.4523,-1.541,-1.541,-1.541,-1.543,0.0,-1.6144,-1.6183,0.0,-1.6582,-1.6144,-1.6144,-1.6124,-1.6085,-1.6085,-1.6328,-1.6648,-1.6269,0.0,0.0,0.0,0.0,0.0,0.0,0.0,0.0,0.0,0.0,0.0,-1.7891,-1.8047,-1.811,0.0,0.0,0.0,0.0,0.0,0.0,0.0,0.0,0.0,0.0,0.0,0.0,-3.2519,-3.2109,-3.1973,-3.3164,-3.3691,-3.4121,-3.457,-3.4648,-3.4648,-3.4687,-3.4629,-3.459,-3.459,-3.416,-3.4062,-3.4434,-3.375,-3.3652,-3.4434,-3.3359,-3.3086,-3.3867,-3.2773,-3.2344,-3.2676,-3.2305,-3.209,-3.2051,-3.2051,-3.2051,-3.2051,-3.2129,-3.2209,-3.2109,-3.2109,-3.2109,-3.2109,-3.207,-3.207,-3.2109,-3.2109,-3.2109,-3.2109,-3.2148,-3.2229,-3.2168,0.0,0.0,0.0,0.0,0.0,0.0,0.0,0.0,0.0,0.0,0.0,0.0,0.0,0.0,0.0,0.0,0.0,0.0,0.0,0.0,-1.6238,-1.562,-1.4561,-1.45,-1.557,-1.4625,-1.4523,-1.541,-1.541,-1.541,0.0,0.0,0.0,-1.659,0.0,-1.7272,-1.6551,-1.6551,-1.6387,-1.6085,-1.6085,-1.6328,-1.6687,-1.659,-1.6551,0.0,0.0,0.0,0.0,0.0,0.0,0.0,0.0,-1.7383,-1.7461,-1.7891,-1.8208,0.0,0.0,0.0,0.0,0.0,0.0,0.0,0.0,0.0,0.0,0.0,0.0,-3.1973,-3.2246,-3.2148,-3.2226,-3.2832,-3.3008,-3.334,-3.4101,-3.4219,-3.4336,-3.4668,-3.4101,-3.3691,-3.3691,-3.3008,-3.2617,-3.2695,-3.2539,-3.2519,-3.2695,-3.2461,-3.2383,-3.2578,-3.2305,-3.2051,-3.1797,-3.1699,-3.1484,-3.1172,-3.1172,-3.1172,-3.1191,-3.1855,-3.1973,-3.166,-3.166,-3.166,-3.1641,-3.1309,-3.1367,-3.166,-3.166,-3.166,-3.1699,-3.2051,-3.2229,-3.2129,0.0,0.0,0.0,0.0,0.0,0.0,0.0,0.0,0.0,0.0,0.0,0.0,0.0,0.0,0.0,0.0,0.0,0.0,0.0,0.0,0.0,-1.522,-1.4835,-1.4704,-1.4792,-1.4654,-1.4752,-1.5117,-1.5312,0.0,0.0,0.0,0.0,-1.6746,0.0,-1.7656,-1.7051,-1.7051,-1.6914,-1.6731,-1.6731,-1.6953,-1.7291,-1.7129,-1.7051,-1.7012,-1.6785,0.0,0.0,0.0,0.0,0.0,0.0,0.0,-1.7734,-1.7949,-1.8164,-1.8383,0.0,0.0,0.0,0.0,0.0,0.0,0.0,0.0,0.0,0.0,0.0,-3.1914,-3.219,-3.2229,-3.2246,-3.2461,-3.25,-3.2656,-3.3168,-3.3164,-3.3242,-3.3457,-3.3086,-3.2832,-3.2832,-3.2226,-3.1953,-3.2148,-3.1973,-3.1953,-3.2209,-3.1973,-3.1953,-3.2168,-3.1777,-3.1543,-3.1523,-3.1328,-3.1113,-3.0898,-3.0898,-3.0898,-3.0918,-3.1348,-3.1426,-3.1211,-3.1211,-3.1211,-3.1191,-3.0976,-3.1016,-3.1211,-3.1211,-3.1211,-3.125,-3.1465,-3.1562,-3.1523,0.0,0.0,0.0,0.0,0.0,0.0,0.0,0.0,0.0,0.0,0.0,0.0,0.0,0.0,0.0,0.0,0.0,0.0,0.0,0.0,0.0,0.0,-1.5399,-1.5084,-1.3952,-1.4702,-1.5022,-1.4883,0.0,0.0,0.0,0.0,0.0,-1.6843,0.0,-1.7773,-1.7383,-1.7383,-1.7383,-1.7383,-1.7383,-1.7637,-1.7969,-1.7617,-1.75,-1.7441,-1.7058,-1.6921,-1.698,-1.7363,0.0,0.0,0.0,0.0,-1.8008,-1.8008,-1.8066,-1.8281,0.0,0.0,0.0,0.0,0.0,0.0,0.0,0.0,0.0,0.0,0.0,-3.1406,-3.1758,-3.1894,-3.2013,-3.2013,-3.2013,-3.1973,-3.2051,-3.2051,-3.209,-3.2209,-3.2109,-3.2051,-3.2051,-3.166,-3.1562,-3.1914,-3.1621,-3.1562,-3.1934,-3.1523,-3.1445,-3.1816,-3.1074,-3.084,-3.1172,-3.084,-3.0664,-3.0664,-3.0742,-3.0762,-3.0781,-3.0859,-3.0898,-3.0898,-3.0898,-3.0898,-3.0898,-3.0898,-3.0898,-3.0898,-3.0898,-3.0898,-3.0898,-3.0898,-3.0898,-3.0898,0.0,0.0,0.0,0.0,0.0,0.0,0.0,0.0,0.0,0.0,0.0,0.0,0.0,0.0,0.0,0.0,0.0,0.0,-1.65,0.0,0.0,-1.6259,-1.5842,-1.5637,-1.5665,-1.5288,-1.5185,-1.5332,0.0,0.0,0.0,0.0,0.0,-1.7324,0.0,0.0,-1.7383,-1.7383,-1.7383,-1.7383,-1.7383,-1.7637,-1.8008,-1.7949,-1.793,-1.791,-1.7852,-1.7852,-1.7852,-1.791,-1.793,0.0,0.0,0.0,-1.8008,-1.8008,-1.8227,0.0,0.0,0.0,0.0,0.0,0.0,0.0,0.0,0.0,0.0,0.0,-2.9746,-3.0391,-3.0449,-3.0781,-3.1055,-3.1055,-3.1055,-3.1191,-3.1562,-3.1601,-3.1738,-3.2129,-3.1836,-3.1601,-3.1601,-3.123,-3.0996,-3.1055,-3.1016,-3.0996,-3.1055,-3.0625,-3.0391,-3.0449,-3.0,-2.9822,-2.9824,-2.9785,-2.9746,-2.9802,-3.0117,-3.0293,-3.0293,-3.0703,-3.0898,-3.0898,-3.0898,-3.0898,-3.0898,-3.0898,-3.0898,-3.0898,-3.0898,-3.0898,-3.0898,-3.0898,-3.0898,-3.0898,0.0,0.0,0.0,0.0,0.0,0.0,0.0,0.0,0.0,0.0,0.0,0.0,0.0,0.0,0.0,-1.65,-1.65,-1.65,-1.65,-1.65,-1.6346,-1.5996,-1.6402,-1.6335,-1.5726,-1.5953,-1.5929,0.0,0.0,0.0,0.0,-1.7194,-1.7812,0.0,0.0,0.0,0.0,-1.793,-1.7734,-1.7734,-1.7734,-1.7852,-1.8008,-1.8008,-1.813,-1.8325,-1.8325,-1.8516,-1.873,-1.873,-1.873,-1.8691,-1.8403,0.0,0.0,0.0,-1.8144,0.0,0.0,0.0,0.0,0.0,0.0,0.0,0.0,0.0,0.0,0.0,-2.8535,-2.9277,-2.9746,-3.0019,-3.0234,-3.0469,-3.0508,-3.0664,-3.1094,-3.1172,-3.123,-3.1426,-3.1289,-3.1172,-3.1172,-3.0762,-3.0508,-3.0508,-3.0273,-3.0156,-3.0156,-2.9961,-2.9844,-2.9844,-2.9668,-2.9626,-2.9626,-2.9626,-2.9626,-2.9626,-2.9766,-2.9844,-2.9863,-3.0059,-3.043,-3.0898,-3.0898,-3.0898,-3.0898,-3.0898,-3.0898,-3.0898,-3.0898,-3.0898,-3.0898,-3.0898,-3.0898,-3.0898,0.0,0.0,0.0,0.0,0.0,0.0,0.0,0.0,0.0,0.0,0.0,0.0,0.0,0.0,0.0,0.0,-1.65,-1.65,-1.65,-1.65,-1.6377,-1.6058,-1.6923,-1.6925,-1.5845,-1.6484,0.0,0.0,0.0,0.0,-1.6882,-1.7891,-1.873,0.0,-1.9453,-1.9316,0.0,0.0,0.0,-1.813,-1.8047,-1.8008,-1.8027,-1.8091,-1.8325,-1.8617,-1.8734,-1.9004,-1.9297,-1.9297,-1.9297,-1.9238,-1.8906,-1.8773,0.0,0.0,0.0,0.0,0.0,0.0,0.0,0.0,0.0,0.0,0.0,0.0,0.0,0.0,-2.7285,-2.8027,-2.8789,-2.9277,-2.9668,-2.998,-3.0039,-3.0156,-3.0508,-3.0566,-3.0566,-3.0566,-3.0566,-3.0566,-3.0566,-3.0234,-3.0039,-3.0039,-2.9746,-2.9626,-2.9626,-2.9411,-2.9297,-2.9394,-2.9082,-2.9023,-2.9238,-2.9238,-2.9238,-2.9238,-2.9355,-2.9394,-2.9414,-2.9567,-2.9922,-3.0566,-3.0664,-3.0723,-3.0723,-3.084,-3.0898,-3.0898,-3.0898,-3.0898,-3.0898,-3.0898,-3.0898,-3.0898,0.0,0.0,0.0,0.0,0.0,0.0,0.0,0.0,0.0,0.0,0.0,0.0,-1.65,-1.65,-1.65,-1.65,-1.65,-1.65,-1.65,-1.65,-1.6726,-1.7277,-1.7375,0.0,-1.6752,-1.6792,0.0,0.0,0.0,0.0,-1.7383,-1.8633,-1.9453,-1.9883,-1.9883,-1.9397,-1.8656,0.0,0.0,0.0,0.0,-1.8008,-1.8047,-1.8422,-1.8578,-1.8656,-1.9102,-1.9277,-1.9297,-1.9297,-1.9297,-1.9277,-1.9258,-1.9258,-1.916,0.0,0.0,0.0,0.0,0.0,0.0,0.0,0.0,0.0,0.0,0.0,0.0,0.0,-2.6172,-2.6621,-2.707,-2.8476,-2.9626,-2.9646,-2.9609,-2.9665,-2.9629,-2.9704,-2.9704,-2.9704,-2.9704,-2.9704,-2.9704,-2.9665,-2.9609,-2.9609,-2.9646,-2.9626,-2.9626,-2.8809,-2.8535,-2.8945,-2.7773,-2.7539,-2.8359,-2.8359,-2.8359,-2.8359,-2.8769,-2.8945,-2.8965,-2.9375,-2.959,-2.9668,-3.0059,-3.0234,-3.0273,-3.0703,-3.0898,-3.0898,-3.0898,-3.0898,-3.0898,-3.0898,-3.0898,-3.0898,0.0,0.0,0.0,0.0,0.0,0.0,0.0,0.0,0.0,0.0,0.0,0.0,0.0,-1.65,-1.65,-1.65,-1.65,-1.65,-1.65,-1.6873,-1.7174,-1.7398,-1.8053,-1.8363,-1.8232,-1.8081,0.0,0.0,0.0,-1.7684,-1.7684,-1.869,-1.9003,-1.8711,-1.9258,-1.9336,-1.9023,-1.8633,0.0,0.0,0.0,-1.8383,-1.8422,-1.8887,-1.9219,-1.9436,-1.9629,-1.9863,-2.0136,-2.0136,-2.0136,-2.0096,-1.9785,-1.9687,-1.9551,-1.8812,-1.85,-1.8403,-1.8559,0.0,0.0,0.0,0.0,0.0,0.0,0.0,0.0,-2.4355,-2.5059,-2.5634,-2.5742,-2.6953,-2.8105,-2.8652,-2.875,-2.8945,-2.9492,-2.9626,-2.9626,-2.9626,-2.9626,-2.9626,-2.9626,-2.9316,-2.9141,-2.9141,-2.8652,-2.8393,-2.8393,-2.7793,-2.7539,-2.7695,-2.7246,-2.7168,-2.7461,-2.748,-2.748,-2.748,-2.791,-2.8125,-2.8125,-2.8555,-2.875,-2.8769,-2.9199,-2.9531,-2.9805,-2.998,-3.0195,-3.0449,-3.0449,-3.0625,-3.0898,-3.0898,-3.0898,-3.0898,0.0,0.0,0.0,0.0,0.0,0.0,0.0,0.0,0.0,0.0,0.0,0.0,0.0,0.0,-1.6851,-1.7052,-1.7052,-1.7052,-1.7052,-1.7451,-1.7752,-1.7928,-1.8607,-1.8983,-1.8906,-1.8758,0.0,0.0,0.0,0.0,0.0,-1.9169,-1.9321,-1.8918,-1.9479,-1.9475,0.0,0.0,0.0,-1.8457,-1.8539,-1.8695,-1.889,-1.9492,-1.9883,-2.0176,-2.0469,-2.0762,-2.1055,-2.1055,-2.0918,-2.0742,-2.0449,-2.0156,-1.9805,-1.9202,-1.8831,-1.8598,-1.8598,0.0,0.0,0.0,0.0,0.0,0.0,0.0,0.0,-2.3203,-2.3926,-2.4519,-2.4656,-2.5469,-2.6465,-2.748,-2.7773,-2.8066,-2.8633,-2.8711,-2.8711,-2.8711,-2.8711,-2.8711,-2.8711,-2.8457,-2.8281,-2.8281,-2.7754,-2.7441,-2.7441,-2.7031,-2.6738,-2.6582,-2.6719,-2.6797,-2.6797,-2.6797,-2.6875,-2.7012,-2.7305,-2.7441,-2.7461,-2.7734,-2.7949,-2.8105,-2.8379,-2.8828,-2.9355,-2.9567,-2.9726,-3.0,-3.0137,-3.0293,-3.0488,-3.0781,-3.0801,-3.0684,0.0,0.0,0.0,0.0,0.0,0.0,0.0,0.0,0.0,0.0,0.0,0.0,0.0,0.0,0.0,-1.8154,-1.8204,-1.8204,-1.8204,-1.8229,-1.848,-1.8983,-1.9033,-1.8931,-1.8741,-1.8741,0.0,0.0,0.0,0.0,0.0,0.0,-2.06,-2.059,-2.0623,-1.9907,-1.8738,0.0,-2.0083,-1.9328,-1.8828,-1.8961,-1.9524,-2.033,-2.0702,-2.082,-2.1663,-2.1958,-2.1916,-2.1916,-2.1602,-2.119,-2.1171,-2.0586,-1.9941,-1.9922,-1.9299,-1.8637,0.0,0.0,0.0,0.0,0.0,0.0,0.0,0.0,-2.0977,-2.2207,-2.2812,-2.3286,-2.3652,-2.4082,-2.4805,-2.6094,-2.666,-2.6973,-2.6973,-2.6992,-2.6992,-2.6992,-2.7012,-2.7012,-2.7012,-2.7012,-2.7012,-2.7012,-2.7012,-2.6992,-2.6973,-2.6562,-2.6133,-2.5654,-2.6113,-2.6328,-2.6328,-2.6328,-2.6543,-2.6953,-2.6973,-2.6992,-2.6992,-2.7012,-2.7246,-2.7708,-2.7708,-2.8125,-2.8906,-2.9355,-2.9607,-2.959,-3.0,-2.9922,-2.9668,-3.0547,-3.0586,-3.0254,0.0,0.0,0.0,0.0,0.0,0.0,0.0,0.0,0.0,0.0,0.0,0.0,-1.7149,-1.7652,-1.8028,-1.8179,-1.8204,-1.8204,-1.8204,-1.8556,-1.8832,-1.8983,-1.9359,-1.9558,-1.9501,-1.9501,0.0,0.0,0.0,0.0,0.0,0.0,0.0,0.0,-2.1259,-2.0978,-2.0008,-1.9758,0.0,-2.0741,-1.9575,-2.0462,-2.2461,-2.2331,-2.2946,-2.3872,-2.3259,-2.3081,-2.292,-2.2164,-2.1602,-2.1132,-2.0859,-2.0586,-2.0332,-2.0,-1.9746,-1.9492,-1.9199,0.0,0.0,0.0,0.0,0.0,0.0,0.0,0.0,-2.1483,-2.1934,-2.2266,-2.2402,-2.3008,-2.3569,-2.3939,-2.4922,-2.5723,-2.6005,-2.6367,-2.6562,-2.6562,-2.6836,-2.7012,-2.7012,-2.7012,-2.7012,-2.7012,-2.6738,-2.6426,-2.6064,-2.5371,-2.4902,-2.4738,-2.4902,-2.4961,-2.4961,-2.4961,-2.5176,-2.5605,-2.5937,-2.625,-2.6562,-2.6875,-2.709,-2.7187,-2.7187,-2.75,-2.8047,-2.8476,-2.8828,-2.9101,-2.9219,-2.9394,-2.9629,-3.0195,-3.0117,-2.9863,0.0,0.0,0.0,0.0,0.0,0.0,0.0,0.0,0.0,0.0,0.0,0.0,-1.8028,-1.8355,-1.8607,-1.8857,-1.8882,-1.8882,-1.8882,-1.9158,-1.9334,-1.9334,-1.9861,-2.0189,-2.0189,-2.0388,0.0,0.0,0.0,0.0,0.0,0.0,0.0,0.0,0.0,0.0,0.0,0.0,-2.1074,-2.1576,-2.0758,-2.1833,-2.3921,-2.3804,-2.4464,-2.538,-2.4942,-2.444,-2.4031,-2.3846,-2.3063,-2.203,-2.1385,-2.0934,-2.0566,-2.0254,-2.0059,-1.9863,-1.9609,-1.9414,-1.9394,-1.9805,0.0,0.0,-2.0468,-2.0625,-2.0703,-2.0918,-2.1309,-2.1621,-2.1621,-2.2168,-2.2617,-2.2617,-2.3398,-2.4277,-2.5078,-2.541,-2.5566,-2.5566,-2.5781,-2.5937,-2.5937,-2.5937,-2.5937,-2.5937,-2.5703,-2.5449,-2.5148,-2.4707,-2.4414,-2.4414,-2.4238,-2.4238,-2.4414,-2.4238,-2.4375,-2.4805,-2.5254,-2.5586,-2.5859,-2.6289,-2.6582,-2.6758,-2.6758,-2.6992,-2.7422,-2.7851,-2.8281,-2.8672,-2.8848,-2.8965,-2.9101,-2.9707,-2.9668,-2.9434,0.0,0.0,0.0,0.0,0.0,0.0,0.0,0.0,0.0,0.0,0.0,0.0,-1.9108,-1.9183,-1.9384,-1.9936,-1.9987,-1.9987,-1.9987,-1.9987,-1.9987,-1.9987,-2.0515,-2.0792,-2.0792,-2.127,0.0,0.0,0.0,0.0,0.0,0.0,0.0,0.0,0.0,0.0,0.0,0.0,-2.2653,-2.2287,-2.216,-2.3153,-2.4755,-2.5057,-2.5616,-2.628,-2.6549,-2.6047,-2.5273,-2.6168,-2.5164,-2.3419,-2.2457,-2.1497,-2.0683,-2.0683,-2.0332,-1.998,-1.998,-1.9707,-1.9512,-1.9902,-1.9746,0.0,-2.0449,-2.0293,-2.0137,-2.0468,-2.082,-2.1034,-2.0995,-2.1406,-2.1779,-2.1779,-2.2129,-2.2852,-2.4043,-2.4277,-2.4355,-2.4355,-2.4394,-2.4414,-2.4414,-2.4414,-2.4414,-2.4414,-2.4375,-2.4355,-2.4355,-2.4297,-2.4277,-2.4277,-2.3906,-2.3887,-2.4277,-2.3906,-2.3926,-2.4355,-2.4746,-2.4988,-2.5047,-2.5449,-2.5879,-2.625,-2.6289,-2.6562,-2.6973,-2.7422,-2.7832,-2.8262,-2.8691,-2.8613,-2.8398,-2.9199,-2.9258,-2.9043,-1.8308,0.0,0.0,0.0,0.0,0.0,0.0,0.0,0.0,0.0,0.0,0.0,-2.0264,-2.0365,-2.0591,-2.1117,-2.1167,-2.1167,-2.1167,-2.1167,-2.1167,-2.1167,-2.1267,-2.1345,-2.1345,-2.1471,0.0,0.0,0.0,0.0,0.0,0.0,0.0,0.0,0.0,0.0,0.0,0.0,-2.3931,-2.4157,-2.3121,-2.46,-2.7299,-2.6566,-2.7402,-2.8905,-2.806,-2.7643,-2.729,-2.6295,-2.5098,-2.3966,-2.3398,-2.2208,-2.1073,-2.1073,-2.0781,-2.0468,-2.0468,-2.041,-2.037,-2.0449,-2.0644,0.0,-2.0644,-2.0781,-2.0761,-2.0176,-2.0117,-2.0059,-1.9727,-2.0331,-2.086,-2.086,-2.1484,-2.2207,-2.2793,-2.3477,-2.3906,-2.3906,-2.4219,-2.4414,-2.4414,-2.4414,-2.4414,-2.4414,-2.4102,-2.3906,-2.3906,-2.3574,-2.3335,-2.3335,-2.3257,-2.3257,-2.3335,-2.3257,-2.3477,-2.3906,-2.4004,-2.4219,-2.4551,-2.5,-2.5302,-2.5399,-2.5703,-2.6113,-2.6543,-2.6973,-2.7402,-2.7885,-2.8262,-2.8359,-2.8359,-2.8867,-2.8984,-2.9043,-1.8664,0.0,0.0,0.0,0.0,0.0,0.0,0.0,0.0,0.0,0.0,0.0,-2.1043,-2.1094,-2.1219,-2.1496,-2.1493,-2.1493,-2.1493,-2.1493,-2.1493,-2.1493,-2.1744,-2.1895,-2.1895,-2.2171,0.0,0.0,0.0,0.0,0.0,0.0,0.0,0.0,0.0,0.0,0.0,0.0,-2.4732,-2.5136,-2.4522,-2.5798,-2.8024,-2.7558,-2.8361,-2.9702,-2.9145,-2.8949,-2.8694,-2.7097,-2.5841,-2.4989,-2.506,-2.3435,-2.1585,-2.1949,-2.1491,-2.0859,-2.0664,-2.0605,-2.0664,-2.084,-2.0898,0.0,0.0,-2.0898,-2.0781,-2.0332,-2.0059,-1.9844,-1.9648,-1.9941,-2.0234,-2.0234,-2.0977,-2.1641,-2.1795,-2.2441,-2.2832,-2.2832,-2.3027,-2.3164,-2.3164,-2.3164,-2.3164,-2.3164,-2.3144,-2.3144,-2.3144,-2.3101,-2.3101,-2.3101,-2.3101,-2.3101,-2.3101,-2.3101,-2.3198,-2.3477,-2.3691,-2.3906,-2.4121,-2.4551,-2.4746,-2.4766,-2.5215,-2.5527,-2.5801,-2.666,-2.7148,-2.7402,-2.8047,-2.8301,-2.832,-2.8535,-2.8613,-2.8691,-1.9382,0.0,0.0,0.0,0.0,0.0,0.0,0.0,0.0,0.0,0.0,0.0,-2.1794,-2.1895,-2.2096,-2.2451,-2.2175,-2.2071,-2.2272,-2.2096,-2.192,-2.182,-2.2447,-2.2669,-2.2443,-2.2995,-2.3221,0.0,0.0,0.0,0.0,0.0,0.0,0.0,0.0,0.0,0.0,0.0,0.0,-2.5611,-2.5711,-2.664,-2.7971,-2.8072,-2.875,-2.9628,-2.9754,-2.9804,-2.9588,-2.8217,-2.6955,-2.6052,-2.6697,-2.4812,-2.243,-2.2866,-2.2325,-2.1392,-2.0762,-2.0664,-2.0762,-2.1035,-2.0957,-2.0879,0.0,0.0,0.0,-2.0507,-2.0156,-1.9863,0.0,0.0,0.0,-1.965,0.0,0.0,0.0,-2.123,0.0,-2.1855,-2.1816,-2.1797,-2.1875,-2.1894,-2.1894,-2.1894,-2.2207,-2.2383,-2.2383,-2.2672,-2.2886,-2.2964,-2.2984,-2.3023,-2.3101,-2.3101,-2.3101,-2.3101,-2.3496,-2.3672,-2.3672,-2.4102,-2.4297,-2.4316,-2.4844,-2.5106,-2.5204,-2.6387,-2.6894,-2.6992,-2.793,-2.8301,-2.8301,-2.8301,-2.834,-2.8476,-2.0785,-2.0182,0.0,0.0,0.0,0.0,0.0,0.0,0.0,0.0,0.0,-2.2397,-2.2869,-2.3401,-2.4305,-2.5795,-2.4556,-2.413,-2.5059,-2.423,-2.3477,-2.2945,-2.3923,-2.4023,-2.302,-2.3602,-2.3653,0.0,0.0,0.0,0.0,0.0,0.0,0.0,-2.3904,0.0,0.0,0.0,-2.5536,-2.5636,-2.6197,-2.6801,-2.7419,-2.7921,-2.8499,-2.9063,-2.9603,-2.9804,-2.9779,-2.9588,-2.8116,-2.6576,-2.7599,-2.6111,-2.3865,-2.3526,-2.3106,-2.2374,-2.0976,-2.0859,-2.1074,-2.0762,-2.1191,-2.1543,-2.084,0.0,-2.0898,-2.0156,0.0,-1.965,-1.889,0.0,0.0,-1.8812,-1.9455,-1.9941,-1.957,-1.9863,-2.0566,-2.1738,-2.1543,-2.1465,-2.1855,-2.1894,-2.1894,-2.1894,-2.1934,-2.1953,-2.1953,-2.1992,-2.2207,-2.2578,-2.2578,-2.2711,-2.3081,-2.3101,-2.3101,-2.3101,-2.314,-2.3159,-2.3179,-2.3672,-2.3867,-2.3906,-2.4727,-2.5106,-2.5184,-2.6074,-2.6465,-2.6582,-2.7812,-2.8301,-2.8301,-2.8301,-2.8535,-2.8906,-2.0984,-2.059,0.0,0.0,0.0,0.0,0.0,0.0,0.0,0.0,0.0,-2.3822,-2.4048,-2.4607,-2.5335,-2.6399,-2.5544,-2.5109,-2.5561,-2.4883,-2.4356,-2.4098,-2.4525,-2.4575,-2.4098,-2.4324,-2.4324,-2.4073,-2.4073,0.0,0.0,0.0,0.0,0.0,-2.4481,0.0,-2.5285,0.0,-2.5787,-2.6147,-2.6399,-2.6625,-2.6901,-2.7419,-2.7971,-2.8524,-2.9101,-2.9302,-2.9352,-2.9679,-2.8331,-2.6812,-2.853,-2.6549,-2.3735,-2.46,-2.3627,-2.2191,-2.1528,-2.175,-2.2047,-2.151,-2.191,-2.2209,-2.1194,-2.0898,-2.0742,-2.0371,0.0,0.0,0.0,0.0,0.0,0.0,-1.9531,-1.9766,0.0,0.0,-1.9473,-2.0273,-2.0215,-2.0273,-2.0703,-2.0977,-2.1153,-2.1153,-2.1367,-2.1504,-2.1504,-2.1758,-2.207,-2.25,-2.2519,-2.2672,-2.3081,-2.3101,-2.3101,-2.3101,-2.3101,-2.3101,-2.3101,-2.3276,-2.3418,-2.3457,-2.4316,-2.4687,-2.4785,-2.5918,-2.6387,-2.6465,-2.7246,-2.7695,-2.7949,-2.8203,-2.8398,-2.8574,-2.1744,0.0,0.0,0.0,0.0,0.0,0.0,0.0,0.0,-2.2543,-2.3847,-2.4933,-2.5234,-2.6013,-2.6866,-2.7781,-2.7143,-2.6741,-2.6741,-2.5963,-2.5285,-2.48,-2.5109,-2.5134,-2.48,-2.4926,-2.4926,0.0,0.0,0.0,0.0,0.0,0.0,0.0,0.0,-2.5335,-2.5871,0.0,-2.6122,-2.6499,-2.6499,-2.6499,-2.6549,-2.7102,-2.762,-2.8172,-2.8687,-2.8888,-2.8988,-2.9603,-2.8554,-2.7261,-2.9209,-2.7342,-2.4703,-2.5918,-2.4916,-2.3247,-2.2533,-2.2776,-2.3092,-2.2493,-2.2595,-2.259,-2.1849,-2.153,-2.1232,-2.0722,-2.066,0.0,0.0,0.0,-1.9801,-1.9505,0.0,-1.9625,-1.9362,-1.8891,-1.8754,-1.9238,-1.9297,-1.9414,-1.9707,-2.0019,-2.0292,-2.041,-2.0684,-2.0878,-2.1055,-2.1348,-2.1777,-2.2324,-2.2344,-2.2598,-2.3081,-2.3101,-2.3101,-2.3101,-2.3101,-2.3101,-2.3101,-2.3101,-2.3101,-2.314,-2.3997,-2.4414,-2.4512,-2.5723,-2.6211,-2.625,-2.668,-2.7109,-2.7539,-2.7969,-2.8203,-2.832,-2.3722,-2.2574,0.0,0.0,0.0,0.0,0.0,-2.197,-2.2493,-2.302,-2.4073,-2.5234,-2.6323,-2.7846,-2.9478,-3.1085,-3.0256,-2.9654,-2.9654,-2.8122,-2.649,-2.485,-2.5871,-2.5946,-2.48,-2.531,-2.5335,-2.48,0.0,0.0,0.0,0.0,0.0,0.0,0.0,-2.5921,-2.6474,-2.6474,-2.6474,-2.6499,-2.6499,-2.6499,-2.6549,-2.7102,-2.762,-2.8172,-2.8687,-2.8888,-2.8988,-2.9603,-2.9028,-2.8267,-2.9443,-2.8949,-2.7869,-2.7528,-2.74,-2.6753,-2.4129,-2.3819,-2.4051,-2.3568,-2.3001,-2.2581,-2.2804,-2.3145,-2.2891,-2.0996,-2.1798,-2.2205,-2.0248,-1.9922,-1.9888,-1.9872,-1.9575,0.0,0.0,-1.8877,-1.8754,-1.9238,-1.9297,-1.9297,-1.9297,-1.9316,-1.9492,-1.9902,-1.9941,-2.0137,-2.0605,-2.0644,-2.1055,-2.1875,-2.1914,-2.2305,-2.3081,-2.3101,-2.3101,-2.3101,-2.3101,-2.3101,-2.3101,-2.3101,-2.3101,-2.314,-2.3997,-2.4414,-2.4492,-2.5343,-2.5713,-2.5752,-2.625,-2.666,-2.709,-2.7519,-2.7949,-2.8359,0.0,0.0,0.0,0.0,0.0,-2.1947,-2.2031,-2.3125,-2.4305,-2.5209,-2.6615,-2.8097,-2.9553,-3.0557,-3.1486,-3.2416,-3.1813,-3.1235,-3.0884,-2.9654,-2.8524,-2.7559,-2.7544,-2.7193,-2.6465,-2.6615,-2.644,-2.5946,0.0,0.0,0.0,0.0,0.0,0.0,0.0,-2.6323,0.0,0.0,0.0,0.0,0.0,-2.6725,-2.7027,-2.6851,-2.6876,-2.7128,-2.7645,-2.7846,-2.7971,-2.89,-2.8488,-2.7852,-2.9344,-2.853,-2.7174,-2.7735,-2.7191,-2.6246,-2.5639,-2.5936,-2.6154,-2.5241,-2.4846,-2.4438,-2.3517,-2.2857,-2.2169,-2.1213,-2.1432,-2.151,-2.0526,-2.0847,-2.1106,-2.0448,-2.0779,-2.0857,0.0,-2.0009,-1.9983,-2.0133,-1.9387,-1.8848,-1.8848,-1.9121,-1.9355,-1.9492,-1.9746,-1.998,-2.0137,-2.0449,-2.0879,-2.1445,-2.1738,-2.2148,-2.2715,-2.2964,-2.3101,-2.3101,-2.3101,-2.3101,-2.3101,-2.3101,-2.3101,-2.314,-2.3997,-2.4414,-2.4492,-2.5323,-2.5693,-2.5693,-2.5849,-2.6387,-2.707,-2.75,-2.793,-2.8398,-2.5944,-2.5239,-2.4352,-2.3393,-2.3143,-2.3026,-2.2908,-2.4506,-2.6013,-2.6952,-2.8649,-3.0281,-3.1537,-3.2717,-3.3545,-3.3922,-3.3796,-3.3194,-3.2064,-3.1336,-3.0357,-2.8938,-2.8775,-2.8348,-2.7595,-2.757,-2.7253,-2.6499,-2.67,-2.6675,0.0,0.0,0.0,0.0,0.0,-2.6499,-2.6499,-2.6499,-2.6499,0.0,0.0,-2.67,-2.6977,-2.6625,-2.6625,-2.6826,-2.7178,-2.7293,-2.7444,-2.8549,-2.8447,-2.81,-2.941,-2.8831,-2.7787,-2.849,-2.7989,-2.7205,-2.7128,-2.7369,-2.753,-2.6794,-2.6313,-2.5856,-2.5085,-2.4508,-2.384,-2.2832,-2.2885,-2.2937,-2.2333,-2.2421,-2.2379,-2.1958,-2.1951,-2.1655,0.0,-2.059,-2.059,-2.059,-1.9862,-1.9206,-1.8883,-1.9109,-1.9302,-1.9294,-1.9531,-1.9824,-2.0137,-2.0449,-2.0762,-2.1171,-2.166,-2.209,-2.25,-2.2886,-2.3101,-2.3101,-2.3101,-2.3101,-2.3101,-2.3101,-2.3101,-2.314,-2.3997,-2.4414,-2.4492,-2.5323,-2.5693,-2.5713,-2.5849,-2.6406,-2.7051,-2.7324,-2.7793,-2.8398,-2.6632,-2.6561,-2.606,-2.472,-2.4233,-2.4004,-2.4029,-2.5912,-2.7544,-2.8172,-3.0181,-3.1788,-3.2441,-3.4354,-3.5608,-3.5608,-3.6107,-3.555,-3.3413,-3.3237,-3.1964,-2.9214,-2.9603,-2.9352,-2.8222,-2.8122,-2.757,-2.6524,-2.7027,0.0,0.0,0.0,0.0,0.0,-2.6499,0.0,-2.6499,-2.6499,-2.6499,-2.6499,-2.6499,-2.6524,-2.6524,-2.6499,-2.6826,-2.7293,-2.7278,-2.7278,-2.7394,-2.8473,-2.8813,-2.8913,-2.9553,-2.9754,-2.9754,-2.9779,-2.9804,-2.9585,-2.8466,-2.8164,-2.8164,-2.8164,-2.736,-2.6758,-2.7372,-2.779,-2.7481,-2.5643,-2.5892,-2.625,-2.5331,-2.4288,-2.3731,-2.413,-2.3041,-2.1812,-2.0921,-2.0818,-2.0818,-2.0818,-2.0764,-2.0387,-1.9474,-1.9342,-1.9294,-1.9305,-1.9294,-1.9648,0.0,-2.0586,-2.0762,-2.1171,-2.166,-2.209,-2.25,-2.2886,-2.3101,-2.3101,-2.3101,-2.3101,-2.3101,-2.3101,-2.3101,-2.314,-2.4023,-2.4394,-2.4492,-2.5304,-2.5674,-2.5732,-2.6191,-2.6621,-2.7031,-2.707,-2.7598,-2.8359,-2.7345,-2.6782,-2.6157,-2.5759,-2.474,-2.413,-2.4525,-2.6465,-2.8524,-3.0306,-3.2491,-3.455,-3.6332,-3.7036,-3.7387,-3.7387,-3.7136,-3.6558,-3.5625,-3.4751,-3.3621,-3.2089,-3.1361,-3.0482,-2.9377,-2.8524,-2.777,-2.7102,-2.6826,0.0,-2.6499,0.0,0.0,0.0,0.0,0.0,-2.6499,-2.6499,-2.6499,-2.6499,-2.6499,-2.6751,-2.7052,-2.665,-2.6826,-2.7253,-2.6851,-2.67,-2.6826,-2.7469,-2.7695,-2.7871,-2.885,-2.9113,-2.9227,-2.9654,-2.9804,-2.974,-2.9443,-2.9365,-2.9365,-2.9365,-2.853,-2.774,-2.7917,-2.7388,-2.6671,-2.5836,-2.5525,-2.5217,-2.4626,-2.4581,-2.4507,-2.4257,-2.414,-2.4002,-2.3765,-2.3717,-2.3717,-2.3717,-2.3374,-2.2369,-2.0474,-1.9683,-1.9293,-1.9307,-1.9298,-1.9394,-1.9646,-2.0253,-2.0762,-2.1171,-2.166,-2.209,-2.25,-2.2886,-2.3101,-2.3101,-2.3101,-2.3101,-2.3101,-2.3101,-2.3101,-2.312,-2.3711,-2.4121,-2.4453,-2.5019,-2.543,-2.5693,-2.581,-2.6367,-2.709,-2.7734,-2.8105,-2.8359,-2.8034,-2.7453,-2.6991,-2.6907,-2.6675,-2.654,-2.6581,-2.7871,-2.9628,-3.1838,-3.4048,-3.583,-3.681,-3.8015,-3.8642,-3.8391,-3.7864,-3.7211,-3.6455,-3.578,-3.4726,-3.3187,-3.2692,-3.1763,-3.0181,-2.9302,-2.8323,-2.7293,-2.7002,0.0,-2.6499,0.0,0.0,0.0,0.0,-2.6499,-2.6499,-2.6499,-2.6499,-2.6499,-2.6499,-2.6675,0.0,-2.66,-2.6826,-2.7278,-2.6977,-2.67,-2.6575,-2.7128,-2.7293,-2.7469,-2.8537,-2.8888,-2.9013,-2.9628,-2.9804,-2.9804,-2.9804,-2.9804,-2.9804,-2.9804,-2.9326,-2.8846,-2.8846,-2.8371,-2.7877,-2.7593,-2.6931,-2.6325,-2.6316,-2.5949,-2.5481,-2.491,-2.483,-2.48,-2.48,-2.48,-2.48,-2.48,-2.4525,-2.3726,-2.2226,-2.0757,-2.0052,-2.0463,-2.0135,-2.0127,-2.0454,-2.0959,-2.1211,-2.119,-2.166,-2.209,-2.25,-2.2886,-2.3101,-2.3101,-2.3101,-2.3101,-2.3101,-2.3101,-2.3101,-2.312,-2.3594,-2.4023,-2.4453,-2.4883,-2.5332,-2.5713,-2.5937,-2.6543,-2.7363,-2.7832,-2.8125,-2.832,-2.8966,-2.8685,-2.8381,-2.8163,-2.9223,-2.9959,-2.9603,-3.0131,-3.126,-3.3287,-3.5424,-3.6533,-3.6085,-3.8191,-3.9396,-3.8969,-3.8266,-3.7487,-3.6581,-3.638,-3.5378,-3.3413,-3.3545,-3.2742,-3.0758,-2.9955,-2.885,-2.7394,-2.7243,0.0,0.0,0.0,0.0,0.0,0.0,0.0,0.0,-2.6499,-2.6499,-2.6499,-2.6499,-2.6499,-2.6499,-2.6575,-2.6901,-2.7329,-2.7369,-2.7128,-2.6776,-2.7178,-2.7344,-2.7544,-2.8524,-2.8838,-2.9013,-2.9628,-2.9804,-2.9804,-2.9804,-2.9804,-2.9804,-2.9804,-2.9804,-2.9804,-2.9804,-2.9804,-2.9804,-2.9804,-2.895,-2.8348,-2.8712,-2.7519,-2.6323,-2.5787,-2.5335,-2.5034,-2.5034,-2.5034,-2.5034,-2.5034,-2.4926,0.0,-2.4255,-2.2202,-2.1202,-2.2026,-2.1403,-2.1231,-2.1891,-2.1958,-2.1791,-2.1309,-2.1699,-2.2109,-2.2598,-2.2906,-2.3101,-2.3101,-2.3101,-2.3101,-2.3101,-2.3101,-2.3101,-2.312,-2.3535,-2.3984,-2.4453,-2.4824,-2.5273,-2.5732,-2.6152,-2.6836,-2.763,-2.763,-2.7871,-2.8301,-3.0883,-3.0776,-3.0378,-2.9591,-3.0672,-3.1954,-3.2895,-3.3853,-3.4826,-3.5726,-3.7385,-3.8567,-3.8919,-3.8994,-3.8969,-3.8919,-3.7914,-3.7236,-3.7061,-3.6182,-3.5282,-3.4474,-3.3194,-3.2114,-3.126,-2.9377,-2.8247,-2.7971,-2.7077,0.0,0.0,0.0,0.0,0.0,0.0,0.0,-2.6499,-2.6499,0.0,-2.6499,-2.6499,-2.6499,-2.6549,-2.7002,-2.7228,-2.7379,-2.7795,-2.7896,-2.777,-2.7394,-2.7595,-2.7996,-2.8197,-2.8549,-2.9013,-2.9628,-2.9804,-2.9804,-2.9804,-2.9804,-2.9804,-2.9804,-2.9804,-2.9804,-2.9804,-2.9804,-2.9804,-2.9804,-2.9252,-2.8637,-2.8323,-2.7304,-2.6474,-2.6348,-2.6273,-2.6197,-2.6197,-2.6197,-2.6197,-2.6197,-2.5762,-2.5435,-2.5335,-2.3514,-2.2398,-2.2586,-2.2094,-2.1699,-2.1523,-2.1828,-2.1935,-2.1779,-2.1855,-2.2246,-2.2984,-2.3062,-2.3101,-2.3101,-2.3101,-2.3101,-2.3101,-2.3101,-2.3101,-2.3101,-2.3179,-2.3647,-2.4414,-2.4492,-2.5019,-2.5693,-2.5771,-2.6367,-2.7129,-2.7129,-2.7617,-2.8301,-3.3335,-3.2537,-3.2101,-3.3397,-3.4195,-3.5211,-3.6897,-3.8004,-3.8185,-3.6956,-3.7536,-3.799,-3.7965,-3.8517,-3.8743,-3.8442,-3.7663,-3.7061,-3.6832,-3.6006,-3.5132,-3.4324,-3.3244,-3.2265,-3.1411,-2.9503,-2.8398,-2.8097,-2.7027,-2.6499,0.0,0.0,0.0,0.0,0.0,-2.6499,0.0,0.0,-2.6499,-2.6499,-2.6499,-2.6499,-2.6549,-2.7102,-2.7469,-2.7795,-2.8323,-2.8725,-2.885,-2.7996,-2.7896,-2.8147,-2.8448,-2.8687,-2.9013,-2.9628,-2.9804,-2.9804,-2.9804,-2.9804,-2.9804,-2.9804,-2.9804,-2.9804,-2.9804,-2.9804,-2.9804,-2.9804,-2.9327,-2.8637,-2.7846,-2.7469,-2.7153,-2.6575,-2.6725,-2.6826,-2.6524,-2.6499,-2.6499,-2.6499,-2.6248,-2.5912,-2.5611,-2.4748,-2.4198,-2.4198,-2.356,-2.2981,-2.2528,-2.3172,-2.3297,-2.2737,-2.3243,-2.3925,-2.483,-2.4851,-2.4851,-2.4851,-2.4253,-2.3973,-2.3953,-2.3387,-2.343,-2.4016,-2.4303,-2.506,-2.6214,-2.6121,-2.5904,-2.5693,-2.5693,-2.62,-2.7012,-2.7012,-2.7559,-2.8301,-3.5579,-3.4695,-3.4486,-3.7092,-3.7951,-3.8602,-3.9786,-4.1132,-4.1014,-3.8321,-3.7733,-3.7337,-3.6832,-3.7838,-3.8316,-3.7864,-3.7211,-3.6659,-3.6254,-3.5454,-3.4625,-3.3771,-3.2968,-3.2139,-3.1235,-2.9729,-2.8612,-2.8097,-2.7153,-2.66,0.0,0.0,0.0,0.0,0.0,0.0,-2.6675,-2.6801,-2.6851,-2.6851,-2.6851,-2.6851,-2.6901,-2.7419,-2.7896,-2.8348,-2.8863,-2.9402,-2.9654,-2.8775,-2.8473,-2.8524,-2.8787,-2.8988,-2.9164,-2.9654,-2.9804,-2.9804,-2.9804,-2.9804,-2.9804,-2.9804,-2.9804,-2.9804,-2.9804,-2.9804,-2.9804,-2.9804,-2.9327,-2.8637,-2.7795,-2.7896,-2.7821,-2.6977,-2.7102,-2.7178,-2.6725,-2.6575,-2.6499,-2.6499,-2.6499,-2.6323,-2.5845,-2.5787,-2.5787,-2.5787,-2.5065,-2.4329,-2.3868,-2.4564,-2.4664,-2.382,-2.4613,-2.5475,-2.6461,-2.6524,-2.6524,-2.6483,-2.5588,-2.5168,-2.5126,-2.4356,-2.4483,-2.5338,-2.5894,-2.6889,-2.8076,-2.8009,-2.7389,-2.6476,-2.6187,-2.6646,-2.7348,-2.7114,-2.7559,-2.8301,-3.7075,-3.8053,-3.875,-3.8821,-4.0538,-4.1295,-3.9489,-4.1544,-4.2637,-4.0716,-3.9466,-3.8492,-3.7914,-3.7538,-3.7312,-3.7262,-3.6307,-3.5633,-3.5583,-3.4173,-3.3269,-3.3169,-3.1662,-3.0783,-3.0683,-2.949,-2.8612,-2.8097,-2.7494,-2.6977,-2.6499,0.0,0.0,0.0,0.0,-2.7253,-2.7278,-2.7745,-2.7946,-2.7946,-2.7946,-2.7946,-2.8021,-2.8574,-2.8762,-2.8888,-2.9503,-2.9754,-2.9779,-2.9679,-2.9628,-2.9553,-2.9076,-2.9302,-2.9729,-2.9779,-2.9804,-2.9804,-2.9804,-2.9804,-2.9804,-2.9804,-2.9804,-2.9804,-2.9804,-2.9804,-2.9804,-2.9804,-2.9327,-2.8863,-2.8762,-2.8398,-2.8072,-2.7971,-2.757,-2.7268,-2.7218,-2.6801,-2.6499,-2.6499,-2.6499,-2.6474,-2.6424,-2.6424,-2.6424,-2.6424,-2.582,-2.5305,-2.4862,-2.4945,-2.4958,-2.4843,-2.4965,-2.5475,-2.6461,-2.6524,-2.6524,-2.6524,-2.64,-2.6359,-2.6359,-2.6721,-2.6963,-2.7093,-2.7605,-2.8207,-2.8746,-2.9103,-2.9189,-2.8936,-2.7861,-2.7904,-2.8495,-2.7399,-2.7559,-2.8301,-4.0247,-4.0187,-4.0584,-4.2475,-4.2865,-4.3182,-4.3918,-4.4015,-4.3378,-4.166,-4.0605,-3.9537,-3.8164,-3.7513,-3.7061,-3.6757,-3.5981,-3.5357,-3.5031,-3.3796,-3.2918,-3.2566,-3.1311,-3.0608,-3.0608,-2.9465,-2.8787,-2.8562,-2.772,-2.7203,-2.6977,-2.6977,-2.7153,-2.7444,-2.767,-2.777,-2.7795,-2.8021,-2.8097,-2.8097,-2.8097,-2.8097,-2.8172,-2.8725,-2.8888,-2.8963,-2.9578,-2.9804,-2.9804,-2.9804,-2.9804,-2.9754,-2.9528,-2.9603,-2.9804,-2.9804,-2.9804,-2.9804,-2.9804,-2.9804,-2.9804,-2.9804,-2.9804,-2.9804,-2.9804,-2.9804,-2.9804,-2.9804,-2.9603,-2.9352,-2.8963,-2.9026,-2.89,-2.8222,-2.7921,-2.767,-2.7344,-2.6851,-2.6499,-2.6499,-2.6499,-2.6499,-2.6499,-2.6499,-2.6625,-2.6977,-2.6474,-2.5812,-2.5028,-2.5898,-2.6239,-2.596,-2.6847,-2.7705,-2.845,-2.8474,-2.8474,-2.845,-2.7787,-2.7441,-2.7464,-2.7016,-2.755,-2.8888,-3.0042,-3.0438,-3.025,-3.0415,-3.0033,-2.9395,-2.922,-2.951,-3.0046,-2.9906,-3.0218,-3.0721,-4.286,-4.2342,-4.2701,-4.5394,-4.5125,-4.4941,-4.6237,-4.5581,-4.4192,-4.2008,-4.1488,-4.036,-3.7806,-3.7186,-3.6784,-3.643,-3.5705,-3.5031,-3.4525,-3.3294,-3.234,-3.1763,-3.0859,-3.0382,-3.0382,-2.9603,-2.9063,-2.8888,-2.8147,-2.7695,-2.7519,-2.7519,-2.7745,-2.8122,-2.8273,-2.8348,-2.8373,-2.8524,-2.8599,-2.8599,-2.8599,-2.8599,-2.8649,-2.9026,-2.9176,-2.9227,-2.9654,-2.9804,-2.9804,-2.9804,-2.9804,-2.9804,-2.9804,-2.9804,-2.9804,-2.9804,-2.9804,-2.9804,-2.9804,-2.9804,-2.9804,-2.9804,-2.9804,-2.9804,-2.9804,-2.9804,-2.9804,-2.9804,-2.9804,-2.9679,-2.9252,-2.9528,-2.9528,-2.8725,-2.8323,-2.7971,-2.757,-2.6952,-2.6499,-2.6499,-2.6499,-2.6499,-2.6499,-2.6499,-2.665,-2.7052,-2.6725,-2.6273,-2.5694,-2.6714,-2.7232,-2.7063,-2.825,-2.9202,-2.9779,-2.9804,-2.9804,-2.9804,-2.8988,-2.8681,-2.8811,-2.8369,-2.913,-3.0816,-3.1953,-3.2197,-3.1777,-3.1777,-3.1267,-3.0509,-3.0698,-3.1015,-3.147,-3.163,-3.1977,-3.228,-4.4167,-4.4796,-4.5663,-4.704,-4.7279,-4.662,-4.4687,-4.5491,-4.514,-4.1917,-4.2131,-4.1032,-3.6879,-3.643,-3.6405,-3.6405,-3.5353,-3.45,-3.3947,-3.234,-3.1185,-3.0658,-3.0105,-2.9804,-2.9804,-2.9804,-2.9503,-2.8888,-2.8888,-2.8587,-2.8097,-2.8097,-2.8097,-2.8122,-2.8637,-2.8888,-2.8913,-2.9528,-2.9779,-2.9779,-2.9779,-2.9779,-2.9779,-2.9779,-2.9779,-2.9779,-2.9804,-2.9804,-2.9804,-2.9804,-2.9804,-2.9804,-2.9804,-2.9804,-2.9804,-2.9804,-2.9804,-2.9804,-2.9804,-2.9804,-2.9804,-2.9804,-2.9804,-2.9804,-2.9804,-2.9804,-2.9804,-2.9804,-2.9804,-2.9804,-2.9779,-2.9779,-2.9779,-2.9779,-2.8825,-2.8097,-2.8097,-2.7178,-2.6499,-2.6499,-2.6499,-2.6499,-2.6499,-2.6499,-2.6499,-2.6499,-2.6499,-2.6725,-2.7243,-2.7268,-2.7544,-2.806,-2.8587,-2.9202,-2.9779,-2.9804,-2.9804,-2.9804,-2.9804,-3.008,-3.0593,-3.1646,-3.2449,-3.3043,-3.3068,-3.3068,-3.3068,-3.3068,-3.3068,-3.2989,-3.2337,-3.2294,-3.2606,-3.1922,-3.1977,-3.228,-4.6322,-4.6531,-4.68,-4.7249,-4.7309,-4.694,-4.5868,-4.565,-4.479,-4.2567,-4.2066,-4.1114,-3.9033,-3.8043,-3.7088,-3.5877,-3.5152,-3.45,-3.3947,-3.2667,-3.1712,-3.116,-3.0633,-3.0181,-2.9804,-2.9804,-2.9704,-2.9528,-2.9088,-2.8787,-2.8674,-2.8674,-2.8875,-2.9252,-2.9453,-2.9528,-2.9528,-2.9704,-2.9804,-2.9804,-2.9804,-2.9804,-2.9804,-2.9804,-2.9804,-2.9804,-2.9804,-2.9804,-2.9804,-2.9804,-2.9804,-2.9804,-2.9804,-2.9804,-2.9804,-2.9804,-2.9804,-2.9804,-2.9804,-2.9804,-2.9804,-2.9804,-2.9804,-2.9804,-2.9804,-2.9804,-2.9804,-2.9804,-2.9804,-2.9804,-2.9804,-2.9478,-2.9202,-2.9202,-2.8273,-2.7544,-2.7544,-2.6952,-2.6499,-2.6499,-2.6499,-2.6499,-2.6499,-2.6499,-2.665,-2.7027,-2.67,-2.6575,-2.6751,-2.7444,-2.7921,-2.8097,-2.9026,-2.9603,-2.9804,-2.9804,-2.9804,-2.9804,-3.0181,-3.0633,-3.116,-3.1888,-3.2315,-3.2516,-3.2893,-3.3111,-3.3111,-3.3111,-3.3294,-3.3652,-3.3821,-3.4185,-3.461,-3.4843,-3.5016,-3.509,-4.7309,-4.7309,-4.7219,-4.698,-4.692,-4.6621,-4.5723,-4.5214,-4.443,-4.306,-4.2497,-4.1823,-4.0661,-3.9664,-3.8405,-3.6888,-3.5922,-3.5058,-3.4246,-3.2971,-3.1888,-3.1135,-3.0783,-3.0357,-2.9804,-2.9804,-2.9804,-2.9804,-2.9428,-2.9252,-2.9252,-2.9252,-2.9453,-2.9804,-2.9804,-2.9804,-2.9804,-2.9804,-2.9804,-2.9804,-2.9804,-2.9804,-2.9804,-2.9804,-2.9804,-2.9804,-2.9804,-2.9804,-2.9804,-2.9804,-2.9804,-2.9804,-2.9804,-2.9804,-2.9804,-2.9804,-2.9804,-2.9804,-2.9804,-2.9804,-2.9804,-2.9804,-2.9804,-2.9804,-2.9804,-2.9804,-2.9804,-2.9804,-2.9804,-2.9804,-2.9804,-2.9327,-2.8888,-2.8888,-2.7996,-2.7293,-2.7293,-2.6851,-2.6499,-2.6499,-2.6499,-2.6499,-2.6499,-2.6675,-2.6851,-2.7002,-2.7077,-2.7027,-2.6826,-2.762,-2.8097,-2.8097,-2.9202,-2.9804,-2.9804,-3.0005,-3.0105,-3.0105,-3.0859,-3.1386,-3.1712,-3.229,-3.2541,-3.2566,-3.2918,-3.3111,-3.3111,-3.3111,-3.3294,-3.3671,-3.4424,-3.4881,-3.5282,-3.6081,-3.6405,-3.6405,-4.7309,-4.7309,-4.71,-4.6441,-4.6279,-4.5831,-4.4526,-4.4317,-4.4077,-4.3379,-4.329,-4.29,-4.1864,-4.1122,-4.0281,-3.9187,-3.7536,-3.6051,-3.4895,-3.327,-3.1912,-3.0828,-3.0723,-3.0407,-2.9804,-2.9804,-2.9804,-2.9804,-2.9804,-2.9804,-2.9804,-2.9804,-2.9804,-2.9804,-2.9804,-2.9804,-2.9804,-2.9804,-2.9804,-2.9804,-2.9804,-2.9804,-2.9804,-2.9804,-2.9804,-2.9804,-2.9804,-2.9804,-2.9804,-2.9804,-2.9804,-2.9804,-2.9804,-2.9804,-2.9804,-2.9804,-2.9804,-2.9804,-2.9804,-2.9804,-2.9804,-2.9804,-2.9804,-2.9804,-2.9804,-2.9804,-2.9804,-2.9804,-2.9804,-2.9804,-2.9804,-2.9277,-2.8838,-2.8838,-2.7946,-2.7218,-2.7218,-2.6826,-2.6499,-2.6499,-2.6524,-2.6549,-2.6549,-2.7027,-2.7128,-2.665,-2.7494,-2.7846,-2.7369,-2.7871,-2.8172,-2.8172,-2.9227,-2.9804,-2.9804,-3.0331,-3.0658,-3.0733,-3.1712,-3.219,-3.229,-3.2842,-3.3111,-3.3111,-3.3111,-3.3111,-3.3111,-3.3111,-3.3093,-3.3244,-3.4248,-3.47,-3.4851,-3.5881,-3.6329,-3.6355,-4.7309,-4.7309,-4.71,-4.6441,-4.6279,-4.5831,-4.4526,-4.4317,-4.4077,-4.3379,-4.329,-4.321,-4.2941,-4.2347,-4.1636,-4.09,-3.8464,-3.6634,-3.5909,-3.4738,-3.3599,-3.2489,-3.1629,-3.0758,-2.9804,-2.9804,-2.9804,-2.9804,-2.9804,-2.9804,-2.9804,-2.9804,-2.9804,-2.9804,-2.9804,-2.9804,-2.9804,-2.9804,-2.9804,-2.9804,-2.9804,-2.9804,-2.9804,-2.9804,-2.9804,-2.9804,-2.9804,-2.9804,-2.9804,-2.9804,-2.9804,-2.9804,-2.9804,-2.9804,-2.9804,-2.9804,-2.9804,-2.9804,-2.9804,-2.9804,-2.9804,-2.9804,-2.9804,-2.9804,-2.9804,-2.9804,-2.9804,-2.9804,-2.9804,-2.9804,-2.9804,-2.8976,-2.8298,-2.8298,-2.7369,-2.67,-2.67,-2.6575,-2.6499,-2.6499,-2.6876,-2.7128,-2.7128,-2.7253,-2.7394,-2.7695,-2.757,-2.7595,-2.7896,-2.8423,-2.8687,-2.8687,-2.9428,-2.9804,-2.9804,-3.0331,-3.1035,-3.1838,-3.1662,-3.2039,-3.2867,-3.3018,-3.3111,-3.3111,-3.3111,-3.3111,-3.3111,-3.3111,-3.3319,-3.3721,-3.3997,-3.4349,-3.4705,-3.5002,-3.5378,-3.5683,-4.692,-4.686,-4.6561,-4.5574,-4.5394,-4.5065,-4.3977,-4.3828,-4.3708,-4.3349,-4.329,-4.329,-4.329,-4.2761,-4.2141,-4.1482,-3.9256,-3.7619,-3.6972,-3.5961,-3.486,-3.37,-3.3104,-3.2032,-3.0482,-3.0457,-3.0254,-2.9804,-2.9804,-2.9804,-2.9804,-2.9804,-2.9804,-2.9804,-2.9804,-2.9804,-2.9804,-2.9804,-2.9804,-2.9804,-2.9804,-2.9804,-2.9804,-2.9804,-2.9804,-2.9804,-2.9804,-2.9804,-2.9804,-2.9804,-2.9804,-2.9804,-2.9804,-2.9804,-2.9804,-2.9804,-2.9804,-2.9804,-2.9804,-2.9804,-2.9804,-2.9804,-2.9804,-2.9804,-2.9804,-2.9804,-2.9804,-2.9804,-2.9804,-2.9804,-2.9804,-2.8875,-2.8097,-2.8097,-2.7203,-2.6499,-2.6499,-2.6499,-2.6575,-2.6851,-2.7128,-2.7394,-2.7645,-2.7896,-2.8047,-2.8097,-2.8298,-2.8448,-2.8473,-2.9026,-2.9164,-2.8888,-2.9503,-2.9804,-2.9804,-3.0583,-3.1386,-3.2215,-3.2164,-3.2491,-3.3111,-3.3111,-3.3111,-3.3111,-3.3111,-3.3111,-3.3111,-3.3111,-3.3244,-3.3545,-3.3796,-3.4073,-3.4374,-3.4625,-3.5031,-3.5508,-4.6262,-4.6172,-4.5783,-4.4526,-4.4317,-4.4077,-4.3379,-4.329,-4.329,-4.329,-4.329,-4.329,-4.329,-4.2671,-4.2021,-4.1482,-3.9853,-3.8649,-3.806,-3.706,-3.5892,-3.4668,-3.4463,-3.3465,-3.1452,-3.1426,-3.0932,-3.0011,-3.0011,-2.9934,-2.9804,-2.9804,-2.9804,-2.9804,-2.9804,-2.9804,-2.9804,-2.9804,-2.9804,-2.9804,-2.9804,-2.9804,-2.9804,-2.9804,-2.9804,-2.9804,-2.9804,-2.9804,-2.9804,-2.9804,-2.9804,-2.9804,-2.9804,-2.9804,-2.9804,-2.9804,-2.9804,-2.9804,-2.9804,-2.9804,-2.9804,-2.9804,-2.9804,-2.9804,-2.9804,-2.9804,-2.9804,-2.9804,-2.9804,-2.9804,-2.9804,-2.8875,-2.8097,-2.8097,-2.7203,-2.6499,-2.6499,-2.6575,-2.6801,-2.7253,-2.7419,-2.772,-2.8197,-2.8612,-2.8737,-2.8398,-2.9176,-2.9478,-2.9038,-2.9528,-2.9603,-2.9164,-2.9654,-3.0005,-3.0156,-3.0984,-3.1712,-3.234,-3.2742,-3.2993,-3.3111,-3.3111,-3.3111,-3.3111,-3.3111,-3.3111,-3.3111,-3.3111,-3.3111,-3.3162,-3.3596,-3.3771,-3.3822,-3.4299,-3.4781,-3.5257,-4.5484,-4.5454,-4.5214,-4.4436,-4.4317,-4.4077,-4.3379,-4.329,-4.329,-4.329,-4.329,-4.329,-4.329,-4.2252,-4.1542,-4.1384,-4.0099,-3.9245,-3.9156,-3.8144,-3.7014,-3.5798,-3.4901,-3.3762,-3.2407,-3.2379,-3.1938,-3.097,-3.097,-3.0582,-2.9804,-2.9804,-2.9804,-2.9804,-2.9804,-2.9804,-2.9804,-2.9804,-2.9804,-2.9804,-2.9804,-2.9804,-2.9804,-2.9804,-2.9804,-2.9804,-2.9804,-2.9804,-2.9804,-2.9804,-2.9804,-2.9804,-2.9804,-2.9804,-2.9804,-2.9804,-2.9804,-2.9804,-2.9804,-2.9804,-2.9804,-2.9804,-2.9804,-2.9804,-2.9804,-2.9804,-2.9804,-2.9804,-2.9804,-2.9804,-2.9804,-2.8875,-2.8097,-2.8097,-2.7203,-2.6499,-2.6499,-2.6901,-2.7228,-2.7268,-2.8097,-2.8662,-2.8762,-2.8838,-2.9101,-2.9503,-2.9252,-2.9227,-2.9628,-2.9754,-2.9955,-3.0331,-3.0432,-3.0909,-3.1838,-3.1537,-3.1913,-3.2943,-3.2541,-3.2591,-3.3111,-3.3111,-3.3111,-3.3111,-3.3111,-3.3111,-3.3111,-3.3111,-3.3111,-3.3136,-3.3212,-3.3194,-3.3219,-3.3294,-3.3671,-3.4223,-4.4825,-4.4766,-4.4556,-4.3898,-4.3738,-4.3648,-4.3349,-4.329,-4.329,-4.329,-4.303,-4.2821,-4.2821,-4.1953,-4.1235,-4.0876,-4.0307,-3.9798,-3.9403,-3.8943,-3.8069,-3.6816,-3.627,-3.5167,-3.3359,-3.2841,-3.2379,-3.1947,-3.1947,-3.1719,-3.1304,-3.1304,-3.1304,-3.1304,-3.0771,-3.0545,-3.0533,-3.0011,-2.9804,-2.9804,-2.9804,-2.9804,-2.9804,-2.9804,-2.9804,-2.9804,-2.9804,-2.9804,-2.9804,-2.9804,-2.9804,-2.9804,-2.9804,-2.9804,-2.9804,-2.9804,-2.9804,-2.9804,-2.9804,-2.9804,-2.9804,-2.9804,-2.9804,-2.9804,-2.9804,-2.9804,-2.9804,-2.9804,-2.9804,-2.9804,-2.9804,-2.8875,-2.8197,-2.8461,-2.762,-2.7027,-2.7293,-2.757,-2.7846,-2.8122,-2.8624,-2.9013,-2.9352,-2.9402,-2.9503,-2.9779,-2.9829,-2.9955,-3.0231,-3.0507,-3.0783,-3.1035,-3.1035,-3.126,-3.1763,-3.1813,-3.2089,-3.2616,-3.2641,-3.2817,-3.3111,-3.3111,-3.3111,-3.3111,-3.3111,-3.3111,-3.3111,-3.3111,-3.3111,-3.3111,-3.3111,-3.3111,-3.3162,-3.342,-3.3671,-3.4022,-4.4197,-4.4077,-4.3928,-4.3379,-4.329,-4.329,-4.329,-4.329,-4.329,-4.329,-4.2761,-4.241,-4.241,-4.1662,-4.0935,-4.0457,-4.0277,-3.9948,-3.9403,-3.9373,-3.8811,-3.7464,-3.7135,-3.6141,-3.4375,-3.3636,-3.315,-3.2912,-3.2912,-3.2806,-3.2593,-3.2593,-3.2593,-3.2558,-3.1865,-3.1536,-3.1462,-3.0771,-3.0457,-3.0419,-3.0216,-3.0139,-3.0101,-2.9895,-2.9804,-2.9804,-2.9804,-2.9804,-2.9804,-2.9804,-2.9804,-2.9818,-3.0088,-2.9972,-2.9818,-3.0062,-2.9972,-2.9804,-2.9804,-2.9804,-2.9804,-2.9804,-2.9804,-2.9804,-2.9804,-2.9804,-2.9804,-2.9804,-2.9804,-2.9804,-2.9804,-2.8976,-2.8423,-2.8813,-2.8122,-2.762,-2.8047,-2.8222,-2.8448,-2.8838,-2.9013,-2.9302,-2.9754,-2.9905,-2.998,-2.998,-3.0482,-3.0809,-3.0809,-3.1185,-3.1461,-3.1587,-3.1587,-3.1637,-3.1788,-3.2215,-3.2416,-3.2416,-3.2867,-3.3111,-3.3111,-3.3111,-3.3111,-3.3111,-3.3111,-3.3111,-3.3111,-3.3111,-3.3111,-3.3111,-3.3111,-3.3169,-3.3319,-3.3746,-3.3972,-3.4223,-4.3379,-4.3349,-4.3349,-4.329,-4.329,-4.329,-4.329,-4.329,-4.329,-4.329,-4.2761,-4.241,-4.241,-4.1235,-4.0457,-4.0397,-3.9858,-3.9433,-3.9373,-3.9373,-3.8811,-3.7464,-3.6267,-3.5576,-3.5392,-3.5326,-3.4839,-3.391,-3.391,-3.3463,-3.2593,-3.2593,-3.2593,-3.2593,-3.2522,-3.2486,-3.2486,-3.2415,-3.2379,-3.2307,-3.1462,-3.1119,-3.1007,-3.0139,-2.9804,-2.9804,-2.9804,-2.9804,-2.9804,-2.9804,-2.9804,-2.9934,-3.082,-3.0495,-2.9972,-3.082,-3.0495,-2.9804,-2.9804,-2.9804,-2.9804,-2.9804,-2.9804,-2.9804,-2.9804,-2.9804,-2.9804,-2.9804,-2.9804,-2.9804,-2.9804,-2.9277,-2.8838,-2.8888,-2.8423,-2.8047,-2.8097,-2.8549,-2.8838,-2.8888,-2.9402,-2.9754,-2.9804,-3.0256,-3.0557,-3.0557,-3.1035,-3.1336,-3.1336,-3.1361,-3.1612,-3.2139,-3.2164,-3.2416,-3.2943,-3.2993,-3.3018,-3.3018,-3.3068,-3.3111,-3.3111,-3.3111,-3.3111,-3.3111,-3.3111,-3.3111,-3.3111,-3.3111,-3.3111,-3.3111,-3.3111,-3.3395,-3.3847,-3.3897,-3.4223,-3.4705,-4.329,-4.329,-4.329,-4.329,-4.329,-4.329,-4.329,-4.329,-4.314,-4.2791,-4.2201,-4.1632,-4.1242,-4.0337,-3.9798,-3.9798,-3.9559,-3.9373,-3.9373,-3.902,-3.8362,-3.7434,-3.6178,-3.5519,-3.5519,-3.5519,-3.5326,-3.4938,-3.4938,-3.4739,-3.4409,-3.4409,-3.4409,-3.4375,-3.3739,-3.3463,-3.3429,-3.2841,-3.2593,-3.2558,-3.22,-3.2055,-3.2019,-3.1646,-3.1563,-3.1563,-3.1563,-3.1563,-3.1563,-3.1563,-3.1563,-3.1573,-3.1974,-3.1829,-3.1462,-3.1241,-3.0533,-2.9804,-2.9804,-2.9804,-2.9804,-2.9804,-2.9804,-2.9804,-2.9804,-2.9804,-2.9804,-2.9804,-2.9804,-2.9804,-2.9804,-2.9327,-2.9013,-2.9402,-2.8976,-2.875,-2.9101,-2.9327,-2.9478,-2.9478,-2.9654,-2.993,-3.0256,-3.0482,-3.0758,-3.106,-3.1587,-3.1913,-3.1913,-3.224,-3.2541,-3.2742,-3.2742,-3.2842,-3.3111,-3.3111,-3.3111,-3.3111,-3.3111,-3.3111,-3.3111,-3.3111,-3.3111,-3.3111,-3.3111,-3.3269,-3.3571,-3.3262,-3.3294,-3.3545,-3.3219,-3.342,-3.3947,-3.4274,-3.455,-3.4851,-4.329,-4.329,-4.329,-4.329,-4.329,-4.329,-4.329,-4.329,-4.314,-4.2731,-4.2141,-4.1542,-4.1055,-4.0247,-3.9738,-3.9738,-3.9493,-3.9373,-3.9373,-3.8571,-3.7793,-3.7135,-3.6088,-3.5519,-3.5519,-3.5519,-3.5519,-3.5519,-3.5519,-3.5519,-3.5519,-3.5519,-3.5519,-3.5457,-3.4773,-3.4476,-3.4442,-3.3802,-3.3498,-3.3463,-3.3185,-3.3017,-3.3017,-3.27,-3.2593,-3.2593,-3.2593,-3.2593,-3.2593,-3.2593,-3.2593,-3.2629,-3.2947,-3.3017,-3.2841,-3.1938,-3.1193,-3.071,-3.0929,-3.0752,-3.0406,-2.9907,-2.9804,-2.9804,-2.9804,-2.9804,-2.9804,-2.9804,-2.9804,-2.9804,-2.9804,-2.9478,-2.9327,-2.9729,-2.9453,-2.9402,-2.998,-3.0055,-3.0105,-3.0281,-3.0306,-3.0457,-3.0834,-3.1009,-3.126,-3.1612,-3.2164,-3.2491,-3.2491,-3.2867,-3.3111,-3.3111,-3.3111,-3.3111,-3.3111,-3.3111,-3.3111,-3.3111,-3.3111,-3.3111,-3.3111,-3.3111,-3.3212,-3.3345,-3.3345,-3.3646,-3.4123,-3.3746,-3.3822,-3.4123,-3.3746,-3.3922,-3.4449,-3.4851,-3.5077,-3.5353,-4.329,-4.329,-4.329,-4.329,-4.329,-4.329,-4.329,-4.329,-4.329,-4.329,-4.2761,-4.241,-4.2381,-4.1175,-4.0397,-4.0397,-3.9798,-3.9373,-3.9373,-3.8153,-3.7135,-3.6507,-3.5848,-3.5519,-3.5519,-3.5519,-3.5519,-3.5519,-3.5519,-3.5519,-3.5519,-3.5519,-3.5519,-3.5519,-3.5519,-3.5519,-3.5519,-3.5519,-3.5519,-3.5392,-3.4413,-3.4013,-3.391,-3.2982,-3.2629,-3.2629,-3.2629,-3.2629,-3.2629,-3.2629,-3.2629,-3.277,-3.3705,-3.4013,-3.3808,-3.2876,-3.2593,-3.2731,-3.3412,-3.2803,-3.1665,-3.0176,-2.9804,-2.9804,-2.9804,-2.9804,-2.9804,-2.9804,-2.9804,-2.9804,-2.9804,-2.9804,-2.9804,-2.9804,-2.9804,-3.0005,-3.0532,-3.0633,-3.0809,-3.1336,-3.1386,-3.1386,-3.1411,-3.1888,-3.2215,-3.2215,-3.2742,-3.3111,-3.3111,-3.3111,-3.3111,-3.3111,-3.3111,-3.3111,-3.3111,-3.3111,-3.3111,-3.3111,-3.3111,-3.3111,-3.3136,-3.3136,-3.3395,-3.3897,-3.3897,-3.4223,-3.4726,-3.468,-3.468,-3.4726,-3.468,-3.5006,-3.5508,-3.5508,-3.5881,-3.6405,-4.329,-4.329,-4.329,-4.329,-4.329,-4.329,-4.329,-4.329,-4.314,-4.2701,-4.253,-4.2231,-4.1752,-4.0905,-4.0397,-4.0397,-3.9798,-3.92,-3.8721,-3.8332,-3.7614,-3.6537,-3.5848,-3.5519,-3.5519,-3.5519,-3.5519,-3.5519,-3.5519,-3.5519,-3.5519,-3.5519,-3.5519,-3.5519,-3.5519,-3.5519,-3.5519,-3.5519,-3.5519,-3.5457,-3.5166,-3.5067,-3.5034,-3.4739,-3.4639,-3.4639,-3.4639,-3.4639,-3.4639,-3.4639,-3.4639,-3.4673,-3.4968,-3.4576,-3.3945,-3.3671,-3.3431,-3.3356,-3.3559,-3.3358,-3.285,-3.1765,-3.0919,-3.0256,-2.988,-2.9804,-2.9905,-3.0281,-3.0357,-3.0482,-3.0859,-3.0909,-3.0909,-3.0909,-3.0909,-3.0959,-3.1135,-3.116,-3.121,-3.1361,-3.1386,-3.1537,-3.1938,-3.2114,-3.239,-3.2792,-3.2993,-3.3111,-3.3111,-3.3111,-3.3111,-3.3111,-3.3111,-3.3111,-3.3111,-3.3111,-3.3111,-3.3111,-3.3111,-3.3294,-3.3646,-3.3646,-3.3947,-3.4474,-3.4474,-3.4801,-3.5232,-3.4876,-3.4906,-3.5207,-3.4831,-3.5006,-3.5508,-3.5508,-3.5881,-3.6405,-4.329,-4.329,-4.329,-4.329,-4.329,-4.329,-4.329,-4.329,-4.314,-4.2791,-4.2761,-4.2581,-4.2192,-4.1324,-4.0786,-4.0786,-3.9948,-3.926,-3.8811,-3.8542,-3.7943,-3.6896,-3.6237,-3.5759,-3.5519,-3.5519,-3.5519,-3.5519,-3.5519,-3.5519,-3.5519,-3.5519,-3.5519,-3.5519,-3.5519,-3.5519,-3.5519,-3.5519,-3.5519,-3.5519,-3.5519,-3.5519,-3.5519,-3.5519,-3.5519,-3.5519,-3.5519,-3.5519,-3.5519,-3.5519,-3.5519,-3.5519,-3.5519,-3.51,-3.4576,-3.4576,-3.4674,-3.481,-3.5039,-3.5009,-3.4741,-3.4213,-3.2718,-3.1265,-3.0778,-3.0676,-3.0739,-3.0889,-3.0934,-3.1009,-3.1336,-3.1386,-3.1386,-3.1386,-3.1386,-3.1461,-3.1687,-3.1712,-3.1788,-3.2039,-3.2064,-3.219,-3.2516,-3.2767,-3.3018,-3.337,-3.3596,-3.3545,-3.3093,-3.3495,-3.3621,-3.3395,-3.3621,-3.3721,-3.3721,-3.3721,-3.3621,-3.3395,-3.3621,-3.3897,-3.4223,-3.4223,-3.4525,-3.5006,-3.5006,-3.5353,-3.583,-3.5504,-3.5554,-3.583,-3.5504,-3.5579,-3.5881,-3.5881,-3.6081,-3.6405,-4.329,-4.329,-4.329,-4.329,-4.329,-4.329,-4.329,-4.329,-4.329,-4.329,-4.329,-4.326,-4.323,-4.2132,-4.1392,-4.1332,-4.0157,-3.9373,-3.9373,-3.8841,-3.8153,-3.7434,-3.6866,-3.6237,-3.5519,-3.5519,-3.5519,-3.5519,-3.5519,-3.5519,-3.5519,-3.5519,-3.5519,-3.5519,-3.5519,-3.5519,-3.5519,-3.5519,-3.5519,-3.5519,-3.5519,-3.5519,-3.5519,-3.5519,-3.5519,-3.5519,-3.5519,-3.5519,-3.5519,-3.5519,-3.5519,-3.5519,-3.5519,-3.5519,-3.5519,-3.5519,-3.5998,-3.6686,-3.7255,-3.7157,-3.6974,-3.7076,-3.5045,-3.2897,-3.2364,-3.2155,-3.1993,-3.1701,-3.1543,-3.1486,-3.1537,-3.1537,-3.1537,-3.1537,-3.1537,-3.1712,-3.2215,-3.229,-3.2491,-3.3018,-3.3111,-3.3136,-3.3187,-3.3646,-3.3972,-3.3972,-3.4424,-3.4274,-3.3312,-3.4173,-3.45,-3.3997,-3.4449,-3.468,-3.468,-3.4731,-3.4525,-3.3972,-3.4474,-3.4751,-3.4756,-3.4756,-3.5056,-3.5583,-3.5583,-3.5906,-3.6405,-3.6405,-3.6405,-3.6405,-3.6405,-3.6405,-3.6405,-3.6405,-3.6405,-3.6405,-4.329,-4.329,-4.329,-4.329,-4.329,-4.329,-4.329,-4.329,-4.329,-4.329,-4.329,-4.315,-4.2641,-4.1901,-4.1175,-4.0666,-3.9888,-3.9373,-3.9373,-3.9254,-3.8661,-3.7464,-3.7285,-3.6686,-3.5519,-3.5519,-3.5519,-3.5519,-3.5519,-3.5519,-3.5519,-3.5519,-3.5519,-3.5519,-3.5519,-3.5519,-3.5519,-3.5519,-3.5519,-3.5519,-3.5519,-3.5519,-3.5519,-3.5519,-3.5519,-3.5519,-3.5519,-3.5519,-3.5519,-3.5519,-3.5519,-3.5519,-3.5519,-3.5519,-3.5519,-3.5519,-3.6327,-3.7225,-3.7375,-3.7744,-3.808,-3.808,-3.7227,-3.5956,-3.4409,-3.338,-3.2869,-3.3223,-3.2608,-3.2164,-3.2616,-3.2717,-3.2717,-3.2717,-3.2717,-3.2742,-3.2867,-3.2893,-3.2943,-3.3068,-3.3111,-3.3244,-3.3671,-3.4223,-3.455,-3.455,-3.4605,-3.4625,-3.4374,-3.46,-3.4675,-3.455,-3.465,-3.468,-3.468,-3.5107,-3.5056,-3.455,-3.463,-3.4906,-3.5332,-3.5332,-3.5655,-3.6182,-3.6182,-3.6304,-3.6405,-3.6405,-3.6405,-3.6405,-3.6405,-3.6405,-3.6405,-3.6405,-3.6405,-3.6405,-4.329,-4.329,-4.329,-4.329,-4.329,-4.329,-4.329,-4.329,-4.329,-4.329,-4.329,-4.317,-4.2851,-4.2291,-4.1482,-4.0487,-3.9798,-3.9373,-3.9373,-3.9373,-3.896,-3.7913,-3.7584,-3.7105,-3.6417,-3.5818,-3.5519,-3.5519,-3.5519,-3.5519,-3.5519,-3.5519,-3.5519,-3.5519,-3.5519,-3.5519,-3.5519,-3.5519,-3.5519,-3.5519,-3.5519,-3.5519,-3.5519,-3.5519,-3.5519,-3.5519,-3.5519,-3.5519,-3.5519,-3.5519,-3.5699,-3.5968,-3.5968,-3.6178,-3.6417,-3.6417,-3.7105,-3.7883,-3.7883,-3.8362,-3.8871,-3.8871,-3.8631,-3.7855,-3.6065,-3.482,-3.4203,-3.4536,-3.3775,-3.3194,-3.3746,-3.3847,-3.3847,-3.3847,-3.3847,-3.3847,-3.3847,-3.3847,-3.3847,-3.3847,-3.3847,-3.4073,-3.4625,-3.4906,-3.5082,-3.5082,-3.5353,-3.5278,-3.4751,-3.5228,-3.5378,-3.5082,-3.5378,-3.5504,-3.5504,-3.578,-3.578,-3.5504,-3.5504,-3.5655,-3.5931,-3.5931,-3.6081,-3.6405,-3.6405,-3.6405,-3.6405,-3.6405,-3.6405,-3.6405,-3.6405,-3.6405,-3.6405,-3.6405,-3.6405,-3.6405,-4.329,-4.329,-4.329,-4.329,-4.329,-4.329,-4.329,-4.329,-4.329,-4.329,-4.329,-4.326,-4.314,-4.2491,-4.1632,-4.0487,-3.9798,-3.9373,-3.9373,-3.9373,-3.911,-3.8422,-3.7853,-3.7524,-3.7404,-3.6387,-3.5789,-3.5669,-3.5549,-3.5519,-3.5519,-3.5519,-3.5519,-3.5519,-3.5519,-3.5519,-3.5519,-3.5519,-3.5519,-3.5519,-3.5519,-3.5519,-3.5519,-3.5519,-3.5519,-3.5519,-3.5519,-3.5519,-3.5519,-3.5639,-3.6028,-3.6507,-3.6596,-3.6985,-3.7404,-3.7404,-3.7883,-3.8392,-3.8392,-3.896,-3.9553,-3.9553,-3.9553,-3.9222,-3.7915,-3.659,-3.5786,-3.6033,-3.5208,-3.4638,-3.52,-3.5302,-3.5302,-3.5302,-3.5149,-3.5015,-3.5015,-3.4836,-3.468,-3.468,-3.4756,-3.5006,-3.5458,-3.5583,-3.5633,-3.5633,-3.6107,-3.6003,-3.5052,-3.5881,-3.6157,-3.5658,-3.6132,-3.6405,-3.6405,-3.6405,-3.6405,-3.6405,-3.6405,-3.6405,-3.6405,-3.6405,-3.6405,-3.6405,-3.6405,-3.6405,-3.6405,-3.6405,-3.6405,-3.6405,-3.6405,-3.6405,-3.6405,-3.6405,-3.6405,-3.6405,-4.329,-4.329,-4.329,-4.329,-4.329,-4.329,-4.329,-4.329,-4.329,-4.329,-4.329,-4.312,-4.259,-4.1384,-4.0606,-4.0427,-3.9798,-3.9373,-3.9373,-3.9373,-3.911,-3.8422,-3.8302,-3.7973,-3.7434,-3.7255,-3.6896,-3.6357,-3.5789,-3.5519,-3.5519,-3.5519,-3.5519,-3.5519,-3.5519,-3.5519,-3.5519,-3.5519,-3.5519,-3.5519,-3.5519,-3.5519,-3.5519,-3.5519,-3.5519,-3.5519,-3.5519,-3.5519,-3.5579,-3.6178,-3.6417,-3.6567,-3.7105,-3.7345,-3.7404,-3.7404,-3.7883,-3.8392,-3.8392,-3.932,-4.0277,-4.0277,-4.0277,-4.036,-4.0696,-3.904,-3.7634,-3.8232,-3.7514,-3.6976,-3.7619,-3.7729,-3.7729,-3.7729,-3.6882,-3.6262,-3.6262,-3.5347,-3.468,-3.468,-3.5107,-3.5408,-3.5483,-3.5981,-3.6304,-3.6304,-3.6355,-3.6329,-3.6204,-3.6329,-3.638,-3.6304,-3.638,-3.6405,-3.6405,-3.6405,-3.6405,-3.6405,-3.6405,-3.6405,-3.6405,-3.6405,-3.6405,-3.6405,-3.6405,-3.6405,-3.6405,-3.6405,-3.6405,-3.6405,-3.6405,-3.6405,-3.6405,-3.6405,-3.6405,-3.6405,-4.329,-4.329,-4.329,-4.329,-4.329,-4.329,-4.329,-4.329,-4.329,-4.329,-4.329,-4.32,-4.294,-4.1743,-4.0816,-4.0427,-3.9798,-3.9373,-3.9373,-3.9373,-3.929,-3.896,-3.8601,-3.8452,-3.8542,-3.7793,-3.7285,-3.7015,-3.6357,-3.5878,-3.5519,-3.5519,-3.5519,-3.5519,-3.5519,-3.5519,-3.5519,-3.5519,-3.5519,-3.5519,-3.5519,-3.5519,-3.5519,-3.5519,-3.5519,-3.5519,-3.5519,-3.5968,-3.6567,-3.6507,-3.6956,-3.7614,-3.7853,-3.8212,-3.8542,-3.8542,-3.8751,-3.896,-3.896,-3.9679,-4.0397,-4.0397,-4.0666,-4.1025,-4.1324,-4.0567,-3.9806,-3.9834,-3.8956,-3.838,-3.9059,-3.9169,-3.9169,-3.9169,-3.8742,-3.8396,-3.8396,-3.7943,-3.759,-3.759,-3.7803,-3.7693,-3.6994,-3.718,-3.7103,-3.6452,-3.6405,-3.6405,-3.6405,-3.6405,-3.6405,-3.6405,-3.6405,-3.6405,-3.6405,-3.6405,-3.6405,-3.6405,-3.6405,-3.6405,-3.6405,-3.6405,-3.6405,-3.6405,-3.6405,-3.6405,-3.6405,-3.6405,-3.6405,-3.6405,-3.6405,-3.6405,-3.6405,-3.6405,-3.6405,-3.6405]},{"header":{"parameterUnit":"m.s-1","parameterCategory":1,"la1":30.6,"la2":28.766,"lo1":-90.7593,"lo2":-88.6598,"dy":0.0162,"dx":0.0183,"nx":116,"ny":114,"refTime":"2023-08-06T06:00:00:Z","depth":0,"parameterNumber":3,"parameterNumberName":"V-component_of_WINDS"},"data":[0.0,0.0,0.0,0.0,0.0,0.0,0.0,0.0,0.0,0.0,0.0,0.0,0.0,0.0,0.0,0.0,0.0,0.0,0.0,0.0,0.0,0.0,0.0,0.0,0.0,0.0,0.0,0.0,0.0,0.0,0.0,0.0,0.0,0.0,0.0,0.0,0.0,0.0,0.0,0.0,0.0,0.0,0.0,0.0,0.0,0.0,0.0,0.0,0.0,0.0,0.0,0.0,0.0,0.0,0.0,0.0,0.0,0.0,0.0,0.0,0.0,0.0,0.0,0.0,0.0,0.0,0.0,0.0,0.0,0.0,0.0,0.0,0.0,0.0,0.0,0.0,0.0,0.0,0.0,0.0,0.0,0.0,0.0,0.0,0.0,0.0,0.0,0.0,0.0,0.0,0.0,0.0,0.0,0.0,0.0,0.0,0.0,0.0,0.0,0.0,0.0,0.0,0.0,0.0,0.0,0.0,0.0,0.0,0.0,0.0,0.0,0.0,0.0,0.0,0.0,0.0,0.0,0.0,0.0,0.0,0.0,0.0,0.0,0.0,0.0,0.0,0.0,0.0,0.0,0.0,0.0,0.0,0.0,0.0,0.0,0.0,0.0,0.0,0.0,0.0,0.0,0.0,0.0,0.0,0.0,0.0,0.0,0.0,0.0,0.0,0.0,0.0,0.0,0.0,0.0,0.0,0.0,0.0,0.0,0.0,0.0,0.0,0.0,0.0,0.0,0.0,0.0,0.0,0.0,0.0,0.0,0.0,0.0,0.0,0.0,0.0,0.0,0.0,0.0,0.0,0.0,0.0,0.0,0.0,0.0,0.0,0.0,0.0,0.0,0.0,0.0,0.0,0.0,0.0,0.0,0.0,0.0,0.0,0.0,0.0,0.0,0.0,0.0,0.0,0.0,0.0,0.0,0.0,0.0,0.0,0.0,0.0,0.0,0.0,0.0,0.0,0.0,0.0,0.0,0.0,0.0,0.0,0.0,0.0,0.0,0.0,0.0,0.0,0.0,0.0,0.0,0.0,0.0,0.0,0.0,0.0,0.0,0.0,0.0,0.0,0.0,0.0,0.0,0.0,0.0,0.0,0.0,0.0,0.0,0.0,0.0,0.0,0.0,0.0,0.0,0.0,0.0,0.0,0.0,0.0,0.0,0.0,0.0,0.0,0.0,0.0,0.0,0.0,0.0,0.0,0.0,0.0,0.0,0.0,0.0,0.0,0.0,0.0,0.0,0.0,0.0,0.0,0.0,0.0,0.0,0.0,0.0,0.0,0.0,0.0,0.0,0.0,0.0,0.0,0.0,0.0,0.0,0.0,0.0,0.0,0.0,0.0,0.0,0.0,0.0,0.0,0.0,0.0,0.0,0.0,0.0,0.0,0.0,0.0,0.0,0.0,0.0,0.0,0.0,0.0,0.0,0.0,0.0,0.0,0.0,0.0,0.0,0.0,0.0,0.0,0.0,0.0,0.0,0.0,0.0,0.0,0.0,0.0,0.0,0.0,0.0,0.0,0.0,0.0,0.0,0.0,0.0,0.0,0.0,0.0,0.0,0.0,0.0,0.0,0.0,0.0,0.0,0.0,0.0,0.0,0.0,0.0,0.0,0.0,0.0,0.0,0.0,0.0,0.0,0.0,0.0,0.0,0.0,0.0,0.0,0.0,0.0,0.0,0.0,0.0,0.0,0.0,0.0,0.0,0.0,0.0,0.0,0.0,0.0,0.0,0.0,0.0,0.0,0.0,0.0,0.0,0.0,0.0,0.0,0.0,0.0,0.0,0.0,0.0,0.0,0.0,0.0,0.0,0.0,0.0,0.0,0.0,0.0,0.0,0.0,0.0,0.0,0.0,0.0,0.0,0.0,0.0,0.0,0.0,0.0,0.0,0.0,0.0,0.0,0.0,0.0,0.0,0.0,0.0,0.0,0.0,0.0,0.0,0.0,0.0,0.0,0.0,0.0,0.0,0.0,0.0,0.0,0.0,0.0,0.0,0.0,0.0,0.0,0.0,0.0,0.0,0.0,0.0,0.0,0.0,0.0,0.0,0.0,0.0,0.0,0.0,0.0,0.0,0.0,0.0,0.0,0.0,0.0,0.0,0.0,0.0,0.0,0.0,0.0,0.0,0.0,0.0,0.0,0.0,0.0,0.0,0.0,0.0,0.0,0.0,0.0,0.0,0.0,0.0,0.0,0.0,0.0,0.0,0.0,0.0,0.0,0.0,0.0,0.0,0.0,0.0,0.0,0.0,0.0,0.0,0.0,0.0,0.0,0.0,0.0,0.0,0.0,0.0,0.0,0.0,0.0,0.0,0.0,0.0,0.0,0.0,0.0,0.0,0.0,0.0,0.0,0.0,0.0,0.0,0.0,0.0,0.0,0.0,0.0,0.0,0.0,0.0,0.0,0.0,0.0,0.0,0.0,0.0,0.0,0.0,0.0,0.0,0.0,0.0,0.0,0.0,0.0,0.0,0.0,0.0,0.0,0.0,0.0,0.0,0.0,0.0,0.0,0.0,0.0,0.0,0.0,0.0,0.0,0.0,0.0,0.0,0.0,0.0,0.0,0.0,0.0,0.0,0.0,0.0,0.0,0.0,0.0,0.0,0.0,0.0,0.0,0.0,0.0,0.0,0.0,0.0,0.0,0.0,0.0,0.0,0.0,0.0,0.0,0.0,0.0,0.0,0.0,0.0,0.0,0.0,0.0,0.0,0.0,0.0,0.0,0.0,0.0,0.0,0.0,0.0,0.0,0.0,0.0,0.0,0.0,0.0,0.0,0.0,0.0,0.0,0.0,0.0,0.0,0.0,0.0,0.0,0.0,0.0,0.0,0.0,0.0,0.0,0.0,0.0,0.0,0.0,0.0,0.0,0.0,0.0,0.0,0.0,0.0,0.0,0.0,0.0,0.0,0.0,0.0,0.0,0.0,0.0,0.0,0.0,0.0,0.0,0.0,0.0,0.0,0.0,0.0,0.0,0.0,0.0,0.0,0.0,0.0,0.0,0.0,0.0,0.0,0.0,0.0,0.0,0.0,0.0,0.0,0.0,0.0,0.0,0.0,0.0,0.0,0.0,0.0,0.0,0.0,0.0,0.0,0.0,0.0,0.0,0.0,0.0,0.0,0.0,0.0,0.0,0.0,0.0,0.0,0.0,0.0,0.0,0.0,0.0,0.0,0.0,0.0,0.0,0.0,0.0,0.0,0.0,0.0,0.0,0.0,0.0,0.0,0.0,0.0,0.0,0.0,0.0,0.0,0.0,0.0,0.0,0.0,0.0,0.0,0.0,0.0,0.0,0.0,0.0,0.0,0.0,0.0,0.0,0.0,0.0,0.0,0.0,0.0,0.0,0.0,0.0,0.0,0.0,0.0,0.0,0.0,0.0,0.0,0.0,0.0,0.0,0.0,0.0,0.0,0.0,0.0,0.0,0.0,0.0,0.0,0.0,0.0,0.0,0.0,0.0,0.0,0.0,0.0,0.0,0.0,0.0,0.0,0.0,0.0,0.0,0.0,0.0,0.0,0.0,0.0,0.0,0.0,0.0,0.0,0.0,0.0,0.0,0.0,0.0,0.0,0.0,0.0,0.0,0.0,0.0,0.0,0.0,0.0,0.0,0.0,0.0,0.0,0.0,0.0,0.0,0.0,0.0,0.0,0.0,0.0,0.0,0.0,0.0,0.0,0.0,0.0,0.0,0.0,0.0,0.0,0.0,0.0,0.0,0.0,0.0,0.0,0.0,0.0,0.0,0.0,0.0,0.0,0.0,0.0,0.0,0.0,0.0,0.0,0.0,0.0,0.0,0.0,0.0,0.0,0.0,0.0,0.0,0.0,0.0,0.0,0.0,0.0,0.0,0.0,0.0,0.0,0.0,0.0,0.0,0.0,0.0,0.0,0.0,0.0,0.0,0.0,0.0,0.0,0.0,0.0,0.0,0.0,0.0,0.0,0.0,0.0,0.0,0.0,0.0,0.0,0.0,0.0,0.0,0.0,0.0,0.0,0.0,0.0,0.0,0.0,0.0,0.0,0.0,0.0,0.0,0.0,0.0,0.0,0.0,0.0,0.0,0.0,0.0,0.0,0.0,0.0,0.0,0.0,0.0,0.0,0.0,0.0,0.0,0.0,0.0,0.0,0.0,0.0,0.0,0.0,0.0,0.0,0.0,0.0,0.0,0.0,0.0,0.0,0.0,0.0,0.0,0.0,0.0,0.0,0.0,0.0,0.0,0.0,0.0,0.0,0.0,0.0,0.0,0.0,0.0,0.0,0.0,0.0,0.0,0.0,0.0,0.0,0.0,0.0,0.0,0.0,0.0,0.0,0.0,0.0,0.0,0.0,0.0,0.0,0.0,0.0,0.0,0.0,0.0,0.0,0.0,0.0,0.0,0.0,0.0,0.0,0.0,0.0,0.0,0.0,0.0,0.0,0.0,0.0,0.0,0.0,0.0,0.0,0.0,0.0,0.0,0.0,0.0,0.0,0.0,0.0,0.0,0.0,0.0,0.0,0.0,0.0,0.0,0.0,0.0,0.0,0.0,0.0,0.0,0.0,0.0,0.0,0.0,0.0,0.0,0.0,0.0,0.0,0.0,0.0,0.0,0.0,0.0,0.0,0.0,0.0,0.0,0.0,0.0,0.0,0.0,0.0,0.0,0.0,0.0,0.0,0.0,0.0,0.0,0.0,0.0,0.0,0.0,0.0,0.0,0.0,0.0,0.0,0.0,0.0,0.0,0.0,0.0,0.0,0.0,0.0,0.0,0.0,0.0,0.0,0.0,0.0,0.0,0.0,0.0,0.0,0.0,0.0,0.0,0.0,0.0,0.0,0.0,0.0,0.0,0.0,0.0,0.0,0.0,0.0,0.0,0.0,0.0,0.0,0.0,0.0,0.0,0.0,0.0,0.0,0.0,0.0,0.0,0.0,0.0,0.0,0.0,0.0,0.0,0.0,0.0,0.0,0.0,0.0,0.0,0.0,0.0,0.0,0.0,0.0,0.0,0.0,0.0,0.0,0.0,0.0,0.0,0.0,0.0,0.0,0.0,0.0,0.0,0.0,0.0,0.0,0.0,0.0,0.0,0.0,0.0,0.0,0.0,0.0,0.0,0.0,0.0,0.0,0.0,0.0,0.0,0.0,0.0,0.0,0.0,0.0,0.0,0.0,0.0,0.0,0.0,0.0,0.0,0.0,0.0,0.0,0.0,0.0,0.0,0.0,0.0,0.0,0.0,0.0,0.0,0.0,0.0,0.0,0.0,0.0,0.0,0.0,0.0,0.0,0.0,0.0,0.0,0.0,0.0,0.0,0.0,0.0,0.0,0.0,0.0,0.0,0.0,0.0,0.0,0.0,0.0,0.0,0.0,0.0,0.0,0.0,0.0,0.0,0.0,0.0,0.0,0.0,0.0,0.0,0.0,0.0,0.0,0.0,0.0,0.0,0.0,0.0,0.0,0.0,0.0,0.0,0.0,0.0,0.0,0.0,0.0,0.0,0.0,0.0,0.0,0.0,0.0,0.0,0.0,0.0,0.0,0.0,0.0,0.0,0.0,0.0,0.0,0.0,0.0,0.0,0.0,0.0,0.0,0.0,0.0,0.0,0.0,0.0,0.0,0.0,0.0,0.0,0.0,0.0,0.0,0.0,0.0,0.0,0.0,0.0,0.0,0.0,0.0,0.0,0.0,0.0,0.0,0.0,0.0,0.0,0.0,0.0,0.0,0.0,0.0,0.0,0.0,0.0,0.0,0.0,0.0,0.0,0.0,0.0,0.0,0.0,0.0,0.0,0.0,0.0,0.0,0.0,0.0,0.0,0.0,0.0,0.0,0.0,0.0,0.0,0.0,0.0,0.0,0.0,0.0,0.0,0.0,0.0,0.0,0.0,0.0,0.0,0.0,0.0,0.0,0.0,0.0,0.0,0.0,0.0,0.0,0.0,0.0,0.0,0.0,0.0,0.0,0.0,0.0,0.0,0.0,0.0,0.0,0.0,0.0,0.0,0.0,0.0,0.0,0.0,0.0,0.0,0.0,0.0,0.0,0.0,0.0,0.0,0.0,0.0,0.0,0.0,0.0,0.0,0.0,0.0,0.0,0.0,0.0,0.0,0.0,0.0,0.0,-4.2122,-4.0948,0.0,0.0,0.0,0.0,0.0,0.0,0.0,0.0,0.0,0.0,0.0,0.0,0.0,0.0,0.0,0.0,0.0,0.0,0.0,0.0,0.0,0.0,0.0,0.0,0.0,0.0,0.0,0.0,0.0,0.0,0.0,0.0,0.0,0.0,0.0,0.0,0.0,0.0,0.0,0.0,0.0,0.0,0.0,0.0,0.0,0.0,0.0,0.0,0.0,0.0,0.0,0.0,0.0,0.0,0.0,0.0,0.0,0.0,0.0,0.0,0.0,0.0,0.0,0.0,0.0,0.0,0.0,0.0,0.0,0.0,0.0,0.0,0.0,0.0,0.0,0.0,0.0,0.0,0.0,0.0,0.0,0.0,0.0,0.0,0.0,0.0,0.0,0.0,0.0,0.0,0.0,0.0,0.0,0.0,0.0,0.0,0.0,0.0,0.0,0.0,0.0,0.0,0.0,0.0,0.0,0.0,0.0,0.0,0.0,0.0,0.0,0.0,0.0,0.0,-4.6636,-4.4544,0.0,0.0,0.0,0.0,0.0,0.0,0.0,0.0,0.0,0.0,0.0,0.0,0.0,0.0,0.0,0.0,0.0,0.0,0.0,0.0,0.0,0.0,0.0,0.0,0.0,0.0,0.0,0.0,0.0,0.0,0.0,0.0,0.0,0.0,0.0,0.0,0.0,0.0,0.0,0.0,0.0,0.0,0.0,0.0,0.0,0.0,0.0,0.0,0.0,0.0,0.0,0.0,0.0,0.0,0.0,0.0,0.0,0.0,0.0,0.0,0.0,0.0,0.0,0.0,0.0,0.0,0.0,0.0,0.0,0.0,0.0,0.0,0.0,0.0,0.0,0.0,0.0,0.0,0.0,0.0,0.0,0.0,0.0,0.0,0.0,0.0,0.0,0.0,0.0,0.0,0.0,0.0,0.0,0.0,0.0,0.0,0.0,0.0,0.0,0.0,0.0,0.0,0.0,0.0,0.0,0.0,0.0,0.0,-5.4436,-5.5721,-5.6859,-5.7152,-5.774,-5.8217,-5.3518,-5.0692,-4.9297,-4.8177,0.0,0.0,0.0,0.0,0.0,0.0,0.0,0.0,0.0,0.0,0.0,0.0,0.0,0.0,0.0,0.0,0.0,0.0,0.0,0.0,0.0,0.0,0.0,0.0,0.0,0.0,0.0,0.0,0.0,0.0,0.0,0.0,0.0,0.0,0.0,0.0,0.0,0.0,0.0,0.0,0.0,0.0,0.0,0.0,0.0,0.0,0.0,0.0,0.0,0.0,0.0,0.0,0.0,0.0,0.0,0.0,0.0,0.0,0.0,0.0,0.0,0.0,0.0,0.0,0.0,0.0,0.0,0.0,0.0,0.0,0.0,0.0,0.0,0.0,0.0,0.0,0.0,0.0,0.0,0.0,0.0,0.0,0.0,0.0,0.0,0.0,-4.1772,-4.1168,0.0,0.0,0.0,0.0,0.0,0.0,0.0,0.0,0.0,0.0,0.0,0.0,0.0,-5.1426,-5.2234,-5.5919,-5.7593,-5.7262,-6.0896,-6.2365,-6.1924,-6.3356,-6.4457,-6.5191,-6.442,0.0,-5.3445,-5.1242,0.0,0.0,0.0,0.0,0.0,0.0,0.0,0.0,0.0,0.0,0.0,0.0,0.0,0.0,0.0,0.0,0.0,0.0,0.0,0.0,0.0,0.0,0.0,0.0,0.0,0.0,0.0,0.0,0.0,0.0,0.0,0.0,0.0,0.0,0.0,0.0,0.0,0.0,0.0,0.0,0.0,0.0,0.0,0.0,0.0,0.0,0.0,0.0,0.0,0.0,0.0,0.0,0.0,0.0,0.0,0.0,0.0,0.0,0.0,0.0,0.0,0.0,0.0,0.0,0.0,0.0,0.0,0.0,0.0,0.0,0.0,0.0,0.0,0.0,0.0,0.0,0.0,0.0,0.0,0.0,0.0,0.0,0.0,0.0,0.0,-4.1368,-4.2323,-4.2433,-4.3461,-4.3718,0.0,0.0,0.0,0.0,0.0,0.0,0.0,0.0,0.0,-5.183,-5.4583,-5.6638,-5.7923,-6.1043,-6.3135,-6.4163,-6.6402,-6.776,-6.8274,-6.9009,-6.9779,-7.055,-7.055,-6.8017,-6.3503,-5.8327,-5.495,-5.2784,0.0,0.0,0.0,0.0,-5.0618,-5.2491,0.0,0.0,0.0,0.0,0.0,0.0,0.0,0.0,0.0,0.0,0.0,0.0,0.0,0.0,0.0,0.0,0.0,0.0,0.0,0.0,0.0,0.0,0.0,0.0,0.0,0.0,0.0,0.0,0.0,0.0,0.0,0.0,0.0,0.0,0.0,0.0,0.0,0.0,0.0,0.0,0.0,0.0,0.0,0.0,0.0,0.0,0.0,0.0,0.0,0.0,0.0,0.0,0.0,0.0,0.0,0.0,0.0,0.0,0.0,0.0,0.0,0.0,0.0,0.0,0.0,0.0,0.0,0.0,0.0,0.0,0.0,0.0,0.0,0.0,0.0,0.0,0.0,-4.2489,-4.3534,-4.3515,-4.5149,-4.57,0.0,0.0,0.0,0.0,0.0,0.0,-5.1536,-5.3445,-5.5464,-5.7703,-6.0309,-6.2365,-6.3759,-6.6219,-6.8458,-7.044,-7.1248,-7.2386,-7.3744,-7.3744,-7.4037,-7.4625,-7.4625,-7.3817,-7.2018,-6.5118,-6.097,-5.8694,-5.5647,-5.4803,-5.5317,-5.4913,-5.6051,-5.7923,0.0,0.0,0.0,0.0,0.0,0.0,0.0,0.0,0.0,0.0,0.0,0.0,0.0,0.0,0.0,0.0,0.0,0.0,0.0,0.0,0.0,0.0,0.0,0.0,0.0,0.0,0.0,0.0,0.0,0.0,0.0,0.0,0.0,0.0,0.0,0.0,0.0,0.0,0.0,0.0,0.0,0.0,0.0,0.0,0.0,0.0,0.0,0.0,0.0,0.0,0.0,0.0,0.0,0.0,0.0,0.0,0.0,0.0,0.0,0.0,0.0,0.0,0.0,0.0,0.0,0.0,0.0,0.0,0.0,0.0,0.0,0.0,0.0,0.0,0.0,0.0,0.0,0.0,0.0,-4.3772,-4.7645,0.0,0.0,0.0,0.0,-5.1499,-5.3078,-5.5023,-5.7446,-5.9832,-6.1887,-6.3613,-6.6769,-6.8825,-6.9669,-7.2055,-7.3707,-7.4625,-7.5432,-7.624,-7.7053,-7.7053,-7.7053,-7.7127,-7.7127,-7.6644,-7.5432,-6.9669,-6.6366,-6.464,-6.2108,-6.1117,-6.1263,-6.1998,-6.2879,-6.3686,0.0,0.0,0.0,0.0,0.0,0.0,0.0,0.0,0.0,0.0,0.0,0.0,0.0,0.0,0.0,0.0,0.0,0.0,0.0,0.0,0.0,0.0,0.0,0.0,0.0,0.0,0.0,0.0,0.0,0.0,0.0,0.0,0.0,0.0,0.0,0.0,0.0,0.0,0.0,0.0,0.0,0.0,0.0,0.0,0.0,0.0,0.0,0.0,0.0,0.0,0.0,0.0,0.0,0.0,0.0,0.0,0.0,0.0,0.0,0.0,0.0,0.0,0.0,0.0,0.0,0.0,0.0,0.0,0.0,0.0,0.0,0.0,0.0,0.0,0.0,0.0,0.0,0.0,0.0,-4.9774,-5.3592,0.0,-5.3151,-5.3702,-5.4913,-5.6528,-5.8107,-6.0309,-6.3319,-6.5264,-6.7283,-6.9449,-7.1615,-7.3156,-7.3964,-7.5322,-7.6166,-7.643,-7.6723,-7.7341,-7.8112,-7.753,-7.7635,-7.8112,-7.7561,-7.7488,-7.7524,-7.4955,-7.2312,-6.9706,-6.7247,-6.6623,-6.7026,-6.6806,-6.7907,-6.9522,0.0,0.0,0.0,0.0,0.0,0.0,0.0,0.0,0.0,0.0,0.0,0.0,0.0,0.0,0.0,0.0,0.0,0.0,0.0,0.0,0.0,0.0,0.0,0.0,0.0,0.0,0.0,0.0,0.0,0.0,0.0,0.0,0.0,0.0,0.0,0.0,0.0,0.0,0.0,0.0,0.0,0.0,-4.2392,0.0,0.0,0.0,0.0,0.0,0.0,0.0,0.0,0.0,0.0,0.0,0.0,0.0,0.0,0.0,0.0,0.0,0.0,0.0,0.0,0.0,0.0,0.0,0.0,0.0,0.0,0.0,0.0,0.0,0.0,0.0,0.0,0.0,0.0,0.0,-5.4216,-5.4766,-5.8634,-6.0615,-5.8988,-5.9575,-6.075,-6.234,-6.398,-6.6182,-6.9192,-7.0587,-7.2312,-7.4478,-7.5322,-7.613,-7.6937,-7.7194,-7.7273,-7.7273,-7.7273,-7.7598,-7.8148,-7.7892,-7.8075,-7.8589,-7.8295,-7.8332,-7.8552,-7.8002,-7.6313,-7.3964,-7.2386,-7.1908,-7.2092,-7.1835,-7.2569,-7.3707,0.0,0.0,0.0,0.0,0.0,0.0,0.0,0.0,0.0,0.0,0.0,0.0,0.0,0.0,0.0,0.0,0.0,0.0,0.0,0.0,0.0,0.0,0.0,0.0,0.0,0.0,0.0,0.0,0.0,0.0,0.0,0.0,0.0,0.0,0.0,0.0,0.0,0.0,0.0,0.0,0.0,0.0,-4.6584,0.0,0.0,0.0,0.0,0.0,0.0,0.0,0.0,0.0,0.0,0.0,0.0,0.0,0.0,0.0,0.0,0.0,0.0,0.0,0.0,0.0,0.0,0.0,0.0,0.0,0.0,0.0,0.0,0.0,0.0,0.0,0.0,0.0,-4.8746,-5.4179,-5.829,-5.8364,-6.2622,-6.4934,-6.3294,-6.5301,-6.7393,-6.8972,-7.0587,-7.2504,-7.4918,-7.5799,-7.6974,-7.8589,-7.7818,-7.7781,-7.8626,-7.7818,-7.7384,-7.7384,-7.7347,-7.7347,-7.742,-7.8259,-7.8589,-7.8662,-7.9433,-7.9323,-7.8589,-7.8552,-7.8075,-7.7347,-7.731,-7.6827,-7.624,-7.698,-7.6827,-7.613,0.0,0.0,0.0,0.0,0.0,0.0,0.0,0.0,0.0,0.0,0.0,0.0,0.0,0.0,0.0,0.0,0.0,0.0,0.0,0.0,0.0,0.0,0.0,0.0,0.0,0.0,0.0,0.0,0.0,0.0,0.0,0.0,0.0,0.0,0.0,0.0,0.0,0.0,0.0,0.0,0.0,0.0,-4.9328,0.0,0.0,0.0,0.0,0.0,0.0,0.0,0.0,0.0,0.0,0.0,0.0,0.0,0.0,0.0,0.0,0.0,0.0,0.0,0.0,0.0,0.0,0.0,0.0,0.0,0.0,0.0,0.0,0.0,0.0,0.0,0.0,-5.6271,-5.5464,-6.0419,-6.4824,-6.6549,-6.9522,-7.1211,-7.0734,-7.1321,-7.2129,-7.3193,-7.4742,-7.624,-7.7524,-7.8332,-7.8993,-7.9433,-7.925,-7.9213,-7.947,-7.9213,-7.9103,-7.9103,-7.8516,-7.8846,-7.9947,-7.9029,-7.8919,-7.9433,-7.9066,-7.8809,-7.8552,-7.7928,-7.7892,-7.8185,-7.753,-7.7163,-7.7011,-7.72,-7.7163,-7.69,0.0,0.0,0.0,0.0,0.0,0.0,0.0,0.0,0.0,0.0,0.0,0.0,0.0,0.0,0.0,0.0,0.0,0.0,0.0,0.0,0.0,0.0,0.0,0.0,0.0,0.0,0.0,0.0,0.0,0.0,0.0,0.0,0.0,0.0,0.0,0.0,0.0,0.0,0.0,0.0,0.0,0.0,-5.439,-5.0656,-4.9468,-4.9513,-4.7304,-4.7005,-4.7405,-4.5385,0.0,0.0,0.0,0.0,0.0,0.0,0.0,0.0,0.0,0.0,0.0,0.0,0.0,0.0,0.0,0.0,0.0,0.0,0.0,0.0,0.0,0.0,0.0,0.0,-5.8474,-6.2695,-6.3906,-6.6659,-6.9412,-7.1835,-7.3634,-7.4992,-7.5689,-7.5726,-7.6093,-7.69,-7.7818,-7.8589,-7.9066,-7.9543,-7.9947,-8.0277,-8.0277,-8.0277,-8.0277,-8.0277,-7.9947,-7.9286,-7.9176,-7.9396,-7.9984,-7.936,-7.936,-7.9764,-7.9286,-7.8919,-7.8552,-7.8075,-7.7928,-7.8002,0.0,0.0,0.0,0.0,-7.7273,-7.7237,0.0,0.0,0.0,0.0,0.0,0.0,0.0,0.0,0.0,0.0,0.0,0.0,0.0,0.0,0.0,0.0,0.0,0.0,0.0,0.0,0.0,0.0,0.0,0.0,0.0,0.0,0.0,0.0,0.0,0.0,0.0,0.0,0.0,0.0,0.0,0.0,0.0,0.0,0.0,0.0,0.0,0.0,-5.9908,-5.6234,-5.5623,-5.6185,-5.2219,-5.0626,-5.0155,-4.8125,0.0,0.0,0.0,0.0,0.0,0.0,0.0,0.0,0.0,0.0,0.0,0.0,0.0,0.0,0.0,0.0,0.0,0.0,0.0,0.0,0.0,0.0,0.0,0.0,-6.4127,-6.8568,-7.2606,-7.2496,-7.276,-7.4918,-7.5799,-7.6864,-7.8442,-7.8589,-7.8919,-7.9727,-7.9874,-7.991,-7.991,0.0,0.0,0.0,0.0,-8.1158,-8.1158,-8.1158,-8.0424,-7.8993,-7.9617,-7.9543,-7.8883,-7.9507,-7.9727,-7.9653,-7.9653,-7.9176,-7.8442,-7.8442,-7.8002,-7.7273,-7.7273,-7.7273,-7.7273,-7.7273,-7.7273,-7.7273,0.0,0.0,0.0,0.0,0.0,0.0,0.0,0.0,0.0,0.0,0.0,0.0,0.0,0.0,0.0,0.0,0.0,0.0,0.0,0.0,0.0,0.0,0.0,0.0,0.0,0.0,0.0,0.0,0.0,0.0,0.0,0.0,0.0,0.0,0.0,0.0,0.0,0.0,0.0,0.0,0.0,0.0,-5.9979,-5.8629,-5.7553,-5.6674,-5.5737,-5.5801,-5.6124,-5.4386,-5.3674,-5.3078,-5.0839,0.0,0.0,0.0,0.0,0.0,0.0,0.0,0.0,0.0,0.0,0.0,0.0,0.0,0.0,0.0,0.0,0.0,0.0,0.0,0.0,-6.5118,-6.9045,-7.2753,-7.6864,-7.668,-7.6283,-7.676,-7.6943,-7.7488,-7.8516,-7.8589,-7.8919,-7.9727,-8.0388,-8.0755,-8.0755,-8.1379,-8.1819,-8.1966,-8.1966,-8.1966,-8.1966,-8.1966,-8.1819,-8.1489,-8.1012,0.0,-8.0534,-8.0021,-7.9433,-7.8809,-7.8809,-7.8332,-7.753,-7.753,-7.742,-7.7273,-7.7273,-7.7273,-7.7273,-7.7273,-7.7273,-7.7273,0.0,0.0,0.0,0.0,0.0,0.0,0.0,0.0,0.0,0.0,0.0,0.0,0.0,0.0,0.0,0.0,0.0,0.0,0.0,0.0,0.0,0.0,0.0,0.0,0.0,0.0,0.0,0.0,0.0,0.0,0.0,0.0,0.0,0.0,0.0,0.0,0.0,0.0,0.0,0.0,0.0,0.0,-6.2803,-6.1693,-6.0634,-5.966,-5.9702,-5.921,-5.8457,-5.7661,-5.6859,-5.5904,-5.4289,-5.183,-4.915,0.0,0.0,0.0,0.0,0.0,0.0,0.0,0.0,0.0,0.0,0.0,0.0,0.0,0.0,-5.4179,0.0,0.0,-6.5521,-6.9963,-7.3413,-7.6423,-7.8846,-7.8809,-7.8405,-7.8002,-7.7965,-7.8442,-7.969,-7.98,-8.0314,-8.1525,-8.1599,-8.1599,-8.1599,-8.1966,-8.2186,-8.2186,-8.259,-8.2627,-8.2186,-8.259,-8.2406,-8.1599,-8.1195,-8.0791,-8.0351,-7.958,-7.8993,-7.8589,-7.8148,-7.7708,-7.7273,-7.7273,-7.7273,-7.7273,-7.7273,-7.7273,-7.7273,-7.7273,-7.7273,-7.7273,0.0,0.0,0.0,0.0,0.0,0.0,0.0,0.0,0.0,0.0,0.0,0.0,0.0,0.0,0.0,0.0,0.0,0.0,0.0,0.0,0.0,0.0,0.0,0.0,0.0,0.0,0.0,0.0,0.0,0.0,0.0,0.0,0.0,0.0,0.0,0.0,0.0,0.0,0.0,0.0,0.0,0.0,-6.5338,-6.4084,-6.3119,-6.2509,-6.2439,-6.076,-5.8615,-5.9225,-5.8253,-5.6785,-5.6602,-5.4987,-5.2637,-5.0031,-4.882,0.0,0.0,0.0,0.0,0.0,0.0,0.0,0.0,0.0,-5.1389,-5.4818,-5.7226,-5.9869,-6.3734,-6.7393,-7.0881,-7.4111,-7.7011,-7.9066,-7.969,-7.9653,-7.9323,-7.8662,-7.8736,-7.9396,-8.0865,-8.1012,-8.1599,-8.3067,-8.2553,-8.2186,-8.2186,-8.2039,-8.2039,-8.2186,-8.27,-8.27,-8.2186,-8.2847,-8.2517,-8.1232,-8.1085,-8.0571,-7.9764,-7.8956,-7.8516,-7.8295,-7.7598,-7.7273,-7.7273,-7.7273,-7.7273,-7.7273,-7.7273,-7.7273,-7.7273,-7.7273,-7.7273,-7.7273,0.0,0.0,0.0,0.0,0.0,0.0,0.0,0.0,0.0,0.0,0.0,0.0,0.0,0.0,0.0,0.0,0.0,0.0,0.0,0.0,0.0,0.0,0.0,0.0,0.0,0.0,0.0,0.0,0.0,0.0,0.0,0.0,0.0,0.0,0.0,0.0,0.0,0.0,0.0,0.0,0.0,0.0,-6.4613,-6.382,-6.311,-6.2438,-6.1777,-5.9173,-5.6433,-5.9298,-5.8731,-5.7152,-5.9208,-5.8694,-5.6712,-5.3592,0.0,-4.7902,-4.5993,-4.4599,-4.3901,-4.5076,-4.6177,-4.8837,0.0,0.0,-5.9111,-6.3135,-6.4751,-6.6439,-6.9715,-7.1908,-7.4221,-7.7524,-7.8956,-7.969,-7.9764,-7.9176,-7.8699,-7.8589,-7.9213,-8.0021,-8.0901,-8.1012,-8.1379,-8.226,-8.226,-8.2186,-8.2186,-8.1525,-8.1452,-8.2186,-8.1599,-8.1562,-8.2186,-8.2296,-8.2223,-8.2039,-8.1342,-8.0571,-7.9764,-7.8956,-7.8185,-7.742,-7.7347,-7.7273,-7.7273,-7.7273,-7.7273,-7.7273,-7.7273,-7.7273,-7.7273,-7.7273,-7.7273,-7.7273,0.0,0.0,0.0,0.0,0.0,0.0,0.0,0.0,0.0,0.0,0.0,0.0,0.0,0.0,0.0,0.0,0.0,0.0,0.0,0.0,0.0,0.0,0.0,0.0,0.0,0.0,0.0,0.0,0.0,0.0,0.0,0.0,0.0,0.0,0.0,0.0,0.0,0.0,0.0,0.0,0.0,0.0,-6.4444,-6.2821,-6.118,-5.9667,-5.9408,-5.6821,0.0,0.0,-5.5868,-5.5647,-5.7152,-5.6822,-5.5354,-5.2601,-5.0839,0.0,-4.7755,-4.7535,-4.7902,0.0,-5.1463,-5.5258,-5.9612,-6.1704,-6.3796,-6.7357,-6.9486,-7.1394,-7.367,-7.5432,-7.7011,0.0,-7.9286,-7.98,-7.98,-7.9507,-7.8919,-7.7965,-7.8589,-7.9396,-8.0204,-8.0718,-8.1158,-8.1489,-8.1489,-8.1305,-8.0828,-8.0938,-8.0938,-8.0791,-8.1379,-8.1636,-8.1489,-8.1966,-8.1966,-8.1489,-8.0681,-7.9874,-7.9066,-7.8222,-7.764,-7.7273,-7.7273,-7.7273,-7.7273,-7.7273,-7.7273,-7.7273,-7.7273,-7.7273,-7.7273,-7.7273,-7.698,-7.6607,0.0,0.0,0.0,0.0,0.0,0.0,0.0,0.0,0.0,0.0,0.0,0.0,0.0,0.0,0.0,0.0,0.0,0.0,0.0,0.0,0.0,0.0,0.0,0.0,0.0,0.0,0.0,0.0,0.0,0.0,0.0,0.0,0.0,0.0,0.0,0.0,0.0,0.0,0.0,0.0,0.0,0.0,-6.2516,-6.052,-5.8006,-5.5566,-5.5989,-5.3513,0.0,0.0,-5.1426,-5.194,-5.3188,-5.3482,-5.3004,-5.1059,-4.9994,-4.9187,-4.7976,0.0,0.0,-5.2197,-5.6565,-6.1227,-6.3723,-6.5999,-6.8458,-7.1468,-7.3487,-7.5065,-7.624,-7.7635,-7.8516,-7.8295,-7.9103,-7.9617,-7.9176,-7.8919,-7.8148,-7.6497,-7.646,-7.69,-7.7708,-7.9323,-8.0424,-8.0645,-8.0681,-8.0424,-7.98,-8.0131,-8.0167,-7.98,-8.0901,-8.1342,-8.1012,-8.1562,-8.1562,-8.1012,-7.9947,-7.914,-7.8552,-7.7708,-7.7273,-7.7273,-7.7273,-7.7273,-7.7273,-7.7053,-7.709,-7.7273,-7.7053,-7.709,-7.7273,-7.7273,-7.679,-7.6056,0.0,0.0,0.0,0.0,0.0,0.0,0.0,0.0,0.0,0.0,0.0,0.0,0.0,0.0,0.0,0.0,0.0,0.0,0.0,0.0,0.0,0.0,0.0,0.0,0.0,0.0,0.0,0.0,0.0,0.0,0.0,0.0,0.0,0.0,0.0,0.0,0.0,0.0,0.0,0.0,0.0,0.0,-5.7915,-5.6461,-5.3376,-5.013,-5.1557,0.0,0.0,0.0,-4.5626,-4.5388,-4.7792,-4.9627,0.0,-4.9904,-4.7939,0.0,0.0,0.0,-5.1756,-5.5647,-6.0309,-6.5191,-6.9926,-7.2275,-7.4147,-7.6607,-7.7127,-7.72,-7.7237,-7.8002,-7.8332,-7.7457,-7.8736,-7.9213,-7.7604,-7.6717,-7.5616,-7.4001,-7.2459,-7.1835,0.0,-7.6313,-7.8993,-7.9764,-7.9837,-7.98,-7.98,-7.9066,-7.9029,-7.9764,-7.9837,-8.0241,-8.1012,-8.1012,-8.1012,-8.0975,-7.9396,-7.8626,-7.8552,-7.7708,-7.7273,-7.7273,-7.7273,-7.7273,-7.7237,-7.646,-7.6607,-7.72,-7.646,-7.6607,-7.7273,-7.7273,-7.679,-7.5983,0.0,0.0,0.0,0.0,0.0,0.0,0.0,0.0,0.0,0.0,0.0,0.0,0.0,0.0,0.0,0.0,0.0,0.0,0.0,0.0,0.0,0.0,0.0,0.0,0.0,0.0,0.0,0.0,0.0,0.0,0.0,0.0,0.0,0.0,0.0,0.0,0.0,0.0,0.0,0.0,0.0,0.0,-5.6122,-5.3112,-4.9828,-4.6608,0.0,0.0,0.0,0.0,0.0,0.0,-4.326,0.0,0.0,-4.4819,-4.5296,-4.6471,0.0,0.0,-5.7483,-6.2108,-6.6476,-7.0513,-7.3744,-7.5322,-7.6166,-7.646,-7.4808,-7.2981,-7.1945,-7.1541,-7.1431,-7.1688,-7.4001,-7.5726,-7.5726,-7.6387,-7.5506,-7.1762,-7.2239,0.0,0.0,0.0,0.0,-7.7231,-7.7855,-7.8148,-7.8148,-7.8442,-7.8479,-7.8148,-7.9213,-7.9653,-7.9396,-7.9947,-7.9947,-7.9396,-7.8295,-7.7745,-7.7745,-7.742,-7.7273,-7.7273,-7.6754,-7.6497,-7.646,-7.5652,-7.5469,-7.5689,-7.5432,-7.5469,-7.5622,-7.5102,-7.4735,-7.4551,0.0,0.0,0.0,0.0,0.0,0.0,0.0,0.0,0.0,0.0,0.0,0.0,0.0,0.0,0.0,0.0,0.0,0.0,0.0,0.0,0.0,0.0,0.0,0.0,0.0,0.0,0.0,0.0,0.0,0.0,0.0,0.0,0.0,0.0,0.0,0.0,0.0,0.0,0.0,0.0,0.0,0.0,-5.0608,-4.7631,-4.481,0.0,0.0,0.0,0.0,0.0,0.0,0.0,0.0,-4.1148,-4.28,-4.3057,-4.5296,-4.8673,-5.3298,-5.7923,-6.2548,-6.743,-7.1248,-7.4258,-7.613,-7.6717,-7.6423,-7.4735,-7.2055,-6.9265,-6.6769,-6.5632,-6.5448,-6.6549,-6.8715,-7.1138,-7.3707,-7.4184,-7.3597,-7.1615,-7.1982,-7.2018,0.0,0.0,0.0,-7.5946,-7.6864,-7.7273,-7.7273,-7.7855,-7.7892,-7.731,-7.8662,-7.9103,-7.8589,-7.9103,-7.8956,-7.8148,-7.7598,-7.7273,-7.7273,-7.7273,-7.7127,-7.6864,-7.6313,-7.5946,-7.5616,-7.4808,-7.4661,-7.4882,-7.4588,-7.4661,-7.4845,-7.4331,-7.3927,-7.3707,0.0,0.0,0.0,0.0,0.0,0.0,0.0,0.0,0.0,0.0,0.0,0.0,0.0,0.0,0.0,0.0,0.0,0.0,0.0,0.0,0.0,0.0,0.0,0.0,0.0,0.0,0.0,0.0,0.0,0.0,0.0,0.0,0.0,0.0,0.0,0.0,0.0,0.0,0.0,0.0,0.0,0.0,-4.1948,-4.0451,0.0,0.0,0.0,0.0,0.0,0.0,0.0,0.0,0.0,0.0,-4.3791,-4.4782,-4.7976,-5.238,-5.7973,-6.2523,-6.6806,-7.1505,-7.4441,-7.635,-7.7017,-7.6497,-7.4918,-7.166,-6.8935,-6.5888,0.0,0.0,-6.0566,-6.2193,-6.3503,-6.6219,-7.1725,-7.066,-7.0403,0.0,0.0,0.0,0.0,0.0,0.0,-7.5909,0.0,-7.731,-7.7347,-7.7347,-7.7347,-7.7347,-7.8148,-7.8516,-7.8516,-7.8516,-7.8112,-7.7273,-7.7273,-7.7273,-7.7273,-7.7273,-7.687,-7.6166,-7.613,-7.5652,-7.4845,-7.4037,-7.4147,-7.4698,-7.3927,-7.4111,-7.4808,-7.4808,-7.4294,-7.3523,0.0,0.0,0.0,0.0,0.0,0.0,0.0,0.0,0.0,0.0,0.0,0.0,0.0,0.0,0.0,0.0,0.0,0.0,0.0,0.0,0.0,0.0,0.0,0.0,0.0,0.0,0.0,0.0,0.0,0.0,0.0,0.0,0.0,0.0,0.0,0.0,0.0,0.0,0.0,0.0,0.0,0.0,-3.9614,0.0,0.0,0.0,0.0,0.0,0.0,0.0,0.0,0.0,0.0,-4.3497,-4.592,-4.9187,-5.3004,-5.7262,-6.2365,-6.7136,-7.1394,-7.4441,-7.6093,-7.6723,-7.5763,-7.3964,-7.1468,-6.765,-6.2952,-5.8327,0.0,0.0,0.0,-5.7997,-6.3062,0.0,-7.1945,-7.4037,0.0,-7.2973,0.0,-7.3377,-7.2569,-7.3597,0.0,0.0,-7.6864,-7.7567,-7.8222,-7.8259,-7.8259,-7.8259,-7.7855,-7.7635,-7.7635,-7.7635,-7.7494,-7.7273,-7.7273,-7.7273,-7.7273,-7.7273,-7.7163,-7.6943,-7.635,-7.5652,-7.4845,-7.4037,-7.345,-7.3083,-7.2899,-7.2936,-7.312,-7.312,-7.2973,-7.2789,0.0,0.0,0.0,0.0,0.0,0.0,0.0,0.0,0.0,0.0,0.0,0.0,0.0,0.0,0.0,0.0,0.0,0.0,0.0,0.0,0.0,0.0,0.0,0.0,0.0,0.0,0.0,0.0,0.0,0.0,0.0,0.0,0.0,0.0,0.0,0.0,0.0,0.0,0.0,0.0,0.0,0.0,0.0,0.0,0.0,0.0,0.0,0.0,0.0,0.0,0.0,-4.2506,-4.5314,-4.7755,-5.0435,-5.4509,0.0,-6.2254,-6.7136,-7.1211,-7.4478,-7.6203,-7.646,-7.5549,-7.2899,-7.0403,-6.7026,-6.1166,-5.6602,0.0,0.0,0.0,0.0,0.0,0.0,0.0,-6.9669,-7.2569,-7.4147,0.0,-7.4882,0.0,-7.4661,-7.5402,-7.6313,0.0,-7.7635,-7.8075,-7.8552,-7.8919,-7.8956,-7.8589,-7.8148,-7.7708,-7.7273,-7.7273,-7.7273,-7.7273,-7.7273,-7.7273,-7.7273,-7.7273,-7.709,-7.6754,-7.5946,-7.5139,-7.4331,-7.3523,-7.2899,-7.2496,-7.2496,-7.2496,-7.2496,-7.2496,-7.2275,-7.1982,0.0,0.0,0.0,0.0,0.0,0.0,0.0,0.0,0.0,0.0,0.0,0.0,0.0,0.0,0.0,0.0,0.0,0.0,0.0,0.0,0.0,0.0,0.0,0.0,0.0,0.0,0.0,0.0,0.0,0.0,0.0,0.0,0.0,0.0,0.0,0.0,0.0,0.0,0.0,0.0,0.0,0.0,0.0,0.0,0.0,0.0,0.0,0.0,0.0,0.0,-4.2923,-4.5957,-4.9463,-5.2747,-5.6161,-6.0309,-6.3723,-6.71,-7.1615,-7.4515,-7.6423,-7.7127,-7.5916,-7.3523,-6.9522,-6.6292,-6.1961,-5.4157,0.0,-4.7627,-4.3735,-4.3938,-4.603,-5.0141,0.0,-5.9501,-6.6806,-6.9339,-7.1835,-7.5652,-7.6203,-7.6533,-7.7237,-7.7273,-7.7604,-7.8369,-7.8516,-7.8662,-7.8736,-7.9396,-7.936,-7.8479,-7.8442,-7.8075,-7.731,-7.7273,-7.7273,-7.7273,-7.7273,-7.7273,-7.7273,-7.7273,-7.6937,-7.624,-7.5542,-7.4698,-7.3817,-7.312,-7.2679,-7.2496,-7.2496,-7.2496,-7.2496,-7.2386,-7.1908,-7.1256,0.0,0.0,0.0,0.0,0.0,0.0,0.0,0.0,0.0,0.0,-1.9708,0.0,0.0,0.0,0.0,0.0,0.0,0.0,0.0,0.0,0.0,0.0,0.0,0.0,0.0,0.0,0.0,0.0,0.0,0.0,0.0,0.0,0.0,0.0,0.0,0.0,0.0,0.0,0.0,0.0,0.0,0.0,0.0,0.0,0.0,0.0,0.0,0.0,0.0,0.0,-4.6085,-4.9574,-5.4106,-5.7776,-6.1263,-6.6035,-6.8788,-7.0881,-7.3707,-7.5763,-7.7127,-7.7273,-7.5102,-7.1872,-6.7834,-6.2438,0.0,0.0,0.0,-4.3735,-4.1001,-4.28,0.0,-5.0141,0.0,0.0,0.0,0.0,-7.3083,0.0,0.0,0.0,0.0,0.0,0.0,0.0,-7.8185,-7.8883,-7.9543,-7.969,-7.9103,-7.7598,-7.753,-7.742,-7.7273,-7.7273,-7.7273,-7.7273,-7.7273,-7.7273,-7.7273,-7.7273,-7.72,-7.7053,-7.6943,-7.6026,-7.4698,-7.4551,-7.3707,-7.2496,-7.2496,-7.2496,-7.2422,-7.1762,-7.1403,-7.1183,0.0,0.0,0.0,0.0,0.0,0.0,0.0,0.0,0.0,0.0,-1.9708,-1.9708,0.0,0.0,0.0,0.0,0.0,0.0,0.0,0.0,0.0,0.0,0.0,0.0,0.0,0.0,0.0,0.0,0.0,0.0,0.0,0.0,0.0,0.0,0.0,0.0,0.0,0.0,0.0,0.0,0.0,0.0,0.0,0.0,0.0,0.0,0.0,0.0,0.0,0.0,-4.4837,-5.0068,-5.6602,-6.0603,-6.3759,-6.8238,-7.0367,-7.1945,-7.4771,-7.6387,-7.72,-7.679,-7.3634,-6.9229,-6.3906,0.0,0.0,0.0,-4.2983,-4.1148,-3.957,0.0,0.0,0.0,0.0,0.0,0.0,0.0,0.0,0.0,0.0,0.0,0.0,0.0,-7.7494,-7.7965,-7.8369,-7.8772,-7.914,-7.9176,-7.8809,-7.8002,-7.7561,-7.7273,-7.7273,-7.7273,-7.7273,-7.7273,-7.7273,-7.7273,-7.7273,-7.7273,-7.7273,-7.7273,-7.6864,-7.624,-7.5469,-7.4625,-7.3817,-7.3083,-7.2679,-7.2496,-7.2459,-7.2092,-7.1394,-7.0624,0.0,0.0,0.0,0.0,0.0,0.0,0.0,-1.9708,-1.9708,-1.9708,-1.9708,-1.9708,-1.9708,-1.9708,0.0,0.0,0.0,0.0,0.0,0.0,0.0,0.0,0.0,0.0,0.0,0.0,0.0,0.0,0.0,0.0,0.0,0.0,0.0,0.0,0.0,0.0,0.0,0.0,0.0,0.0,0.0,0.0,0.0,0.0,0.0,0.0,0.0,0.0,0.0,0.0,-4.2265,-4.7897,-5.5258,-6.0199,-6.3943,-6.7283,-6.9486,-7.1468,-7.4515,-7.6166,-7.69,-7.6276,-7.2202,-6.6769,-6.0579,-5.4414,0.0,0.0,-4.0341,-3.946,-3.8836,0.0,0.0,0.0,0.0,0.0,0.0,0.0,0.0,0.0,0.0,0.0,0.0,0.0,0.0,-7.8259,-7.8332,-7.8405,-7.8589,-7.8405,-7.8332,-7.8332,-7.7671,-7.7273,-7.7273,-7.7273,-7.7273,-7.7273,-7.7273,-7.7273,-7.7273,-7.7273,-7.7273,-7.7237,-7.6644,-7.6166,-7.5726,-7.4478,-7.3744,-7.3377,-7.2753,-7.2496,-7.2496,-7.2312,-7.1317,-7.0002,0.0,0.0,0.0,0.0,0.0,0.0,0.0,-1.9708,-1.9708,-1.9708,-1.9708,-1.9708,-1.9708,-1.9708,0.0,0.0,0.0,0.0,0.0,0.0,0.0,0.0,0.0,0.0,0.0,0.0,0.0,-2.3467,-2.4882,0.0,0.0,0.0,0.0,0.0,0.0,-2.6691,0.0,0.0,0.0,0.0,0.0,0.0,0.0,0.0,0.0,0.0,0.0,0.0,0.0,0.0,0.0,-4.1978,-4.6798,-5.4032,-6.097,-6.2071,0.0,0.0,-7.2165,-7.4478,-7.6203,-7.613,-7.1358,-6.5411,-6.0358,0.0,0.0,-4.1976,-3.9884,-3.8799,-3.8726,-3.946,0.0,0.0,0.0,0.0,0.0,0.0,0.0,0.0,0.0,0.0,0.0,0.0,0.0,-7.7384,-7.742,-7.7781,-7.8552,-7.7855,-7.742,-7.742,-7.7347,-7.7273,-7.7273,-7.7273,-7.7273,-7.7273,-7.7273,-7.7273,-7.7273,-7.7273,-7.7273,-7.7273,-7.72,-7.6356,-7.5028,-7.4845,-7.3927,-7.2606,-7.2532,-7.2496,-7.2422,-7.1688,-7.0784,-6.971,0.0,0.0,0.0,0.0,0.0,0.0,0.0,-1.9438,-1.9708,-1.9708,-1.9708,-1.9708,-1.9708,-1.9708,-1.9708,0.0,0.0,0.0,0.0,0.0,0.0,0.0,0.0,0.0,0.0,0.0,0.0,-2.341,-2.3985,0.0,0.0,0.0,0.0,0.0,0.0,-2.6691,0.0,0.0,0.0,0.0,0.0,0.0,0.0,0.0,0.0,0.0,0.0,0.0,0.0,0.0,0.0,0.0,-3.9051,-4.409,0.0,0.0,-6.108,-6.5375,-6.9265,-7.2789,-7.5139,-7.4184,-6.9082,-6.2989,-5.8143,0.0,0.0,-4.1001,-3.9496,-3.8689,-3.8689,-3.8946,-3.9753,0.0,0.0,0.0,0.0,0.0,0.0,0.0,0.0,0.0,0.0,0.0,-7.7273,-7.7273,-7.7273,-7.742,-7.7818,-7.7494,-7.7273,-7.7273,-7.7273,-7.7273,-7.7273,-7.7273,-7.7273,-7.7273,-7.7273,-7.7273,-7.7273,-7.7273,-7.7273,-7.7273,-7.679,-7.6203,-7.5542,-7.4588,-7.3817,-7.3156,-7.2679,-7.2496,-7.2328,-7.101,-6.9962,-6.9012,0.0,0.0,0.0,0.0,0.0,0.0,-1.8732,-1.9091,-1.9498,-1.9678,-1.9708,-1.9708,-1.9708,-1.9708,-1.9708,-1.9708,0.0,0.0,0.0,0.0,0.0,0.0,0.0,0.0,0.0,0.0,-2.2416,-2.3071,-2.3274,-2.4052,0.0,0.0,-2.5879,-2.6387,0.0,0.0,0.0,0.0,0.0,0.0,0.0,0.0,0.0,0.0,0.0,0.0,0.0,0.0,0.0,0.0,0.0,0.0,0.0,0.0,0.0,0.0,-5.5354,-6.0419,-6.4861,-6.9339,-7.2496,-7.1358,-6.6366,-6.0505,0.0,0.0,0.0,-4.0377,-3.9276,-3.8689,-3.8689,-3.8689,-3.8946,0.0,0.0,0.0,0.0,0.0,0.0,0.0,0.0,0.0,0.0,-7.6466,-7.7273,-7.7273,-7.7273,-7.7273,-7.7273,-7.7273,-7.7273,-7.7273,-7.7273,-7.7273,-7.7273,-7.7273,-7.7273,-7.7273,-7.7273,-7.7273,-7.7273,-7.7053,-7.6974,-7.69,-7.6093,-7.5616,-7.5285,-7.4147,-7.356,-7.3303,-7.2716,-7.2496,-7.2299,-7.064,-6.9629,-6.874,0.0,0.0,0.0,0.0,0.0,0.0,0.0,-1.8702,-1.8942,-1.9618,-1.9708,-1.9708,-1.9708,-1.9708,-1.9708,-1.9708,0.0,0.0,0.0,0.0,0.0,0.0,0.0,0.0,0.0,0.0,-2.1823,-2.2313,-2.3038,-2.3797,-2.4541,-2.527,-2.5592,-2.5642,0.0,0.0,0.0,0.0,0.0,0.0,0.0,0.0,0.0,0.0,0.0,0.0,0.0,0.0,0.0,0.0,0.0,0.0,0.0,0.0,0.0,0.0,-4.8159,-5.517,-5.8414,-6.3466,-6.776,-6.7724,-6.3466,-5.8157,0.0,0.0,0.0,-4.0377,-3.9276,-3.8689,-3.8689,-3.8689,-3.8946,-3.9753,0.0,0.0,0.0,0.0,0.0,0.0,0.0,0.0,0.0,-7.4515,-7.7273,-7.7273,-7.7273,0.0,-7.7273,-7.7273,-7.7273,-7.7273,-7.7273,-7.7273,-7.7273,-7.7273,-7.7273,-7.7273,-7.7273,-7.7273,-7.7273,-7.6497,-7.613,-7.6056,-7.5285,-7.4478,-7.3707,-7.3707,-7.323,-7.2496,-7.2496,-7.2496,-7.2299,-7.064,-6.9854,-6.9247,0.0,0.0,0.0,0.0,0.0,0.0,0.0,-1.8403,-1.8942,-1.9618,-1.9708,-1.9708,-1.9708,-1.9708,-1.9803,-2.0089,0.0,0.0,0.0,0.0,0.0,0.0,0.0,0.0,0.0,0.0,-2.2166,-2.2313,-2.3038,-2.3797,-2.4508,-2.5236,-2.5592,-2.5626,-2.6353,-2.6285,0.0,0.0,0.0,0.0,0.0,0.0,0.0,0.0,0.0,0.0,0.0,0.0,0.0,0.0,0.0,0.0,0.0,0.0,0.0,0.0,0.0,0.0,-5.161,-5.5574,-5.8621,-5.8621,-5.5611,-5.1867,-4.8893,0.0,0.0,0.0,-3.8872,-3.8689,-3.8689,-3.8689,-3.9129,-4.0524,0.0,0.0,0.0,0.0,0.0,0.0,0.0,0.0,0.0,0.0,-7.7273,-7.7273,-7.7273,-7.7273,-7.7273,-7.7273,-7.7273,-7.7273,-7.7273,-7.7273,-7.7273,-7.7273,-7.7047,-7.6497,-7.6497,-7.6203,-7.5652,-7.5395,-7.5285,-7.5249,-7.4441,-7.3927,-7.367,-7.312,-7.2716,-7.2459,-7.1908,-7.1297,-7.0501,-6.8242,-6.6985,-6.6135,0.0,0.0,0.0,0.0,0.0,0.0,0.0,-1.7699,-1.8267,-1.9181,-1.9301,-1.942,-1.9678,-1.9708,-1.9785,-2.0037,0.0,0.0,0.0,0.0,0.0,0.0,0.0,0.0,0.0,-2.2313,-2.2313,-2.2313,-2.3038,-2.3797,-2.4508,-2.5236,-2.5592,-2.5626,-2.6353,-2.6285,0.0,0.0,0.0,0.0,0.0,0.0,-2.6691,0.0,0.0,0.0,0.0,0.0,0.0,0.0,0.0,0.0,0.0,0.0,0.0,0.0,0.0,0.0,0.0,-4.9444,-5.1793,-5.2417,-5.0141,0.0,0.0,0.0,0.0,0.0,0.0,0.0,0.0,0.0,0.0,0.0,0.0,0.0,0.0,0.0,0.0,0.0,0.0,0.0,0.0,-7.6393,-7.7273,-7.7273,-7.7273,-7.7273,-7.7273,-7.7273,-7.7163,-7.6864,-7.7127,-7.7273,-7.7273,-7.7011,-7.6607,-7.6093,-7.5799,-7.5395,-7.4918,-7.4588,-7.4226,-7.3878,-7.3076,-7.2522,0.0,-7.1371,-7.1158,-7.134,-7.0283,-6.9683,-6.9173,-6.6667,-6.5547,-6.5066,0.0,0.0,0.0,0.0,0.0,0.0,0.0,0.0,0.0,0.0,-1.8642,-1.8882,-1.9558,-1.9618,-1.9666,0.0,0.0,0.0,0.0,0.0,0.0,0.0,0.0,0.0,0.0,-2.2313,-2.2313,-2.2313,-2.3105,-2.3864,-2.4609,-2.5406,-2.5744,-2.571,-2.6454,-2.6353,-2.5728,-2.642,-2.6691,-2.6691,-2.6691,-2.6691,0.0,0.0,0.0,0.0,0.0,0.0,0.0,0.0,0.0,0.0,0.0,0.0,0.0,0.0,0.0,0.0,0.0,0.0,0.0,0.0,0.0,0.0,0.0,0.0,0.0,0.0,0.0,0.0,0.0,0.0,0.0,0.0,0.0,0.0,0.0,0.0,0.0,0.0,0.0,0.0,-7.1431,-7.4999,-7.7273,-7.7273,-7.7273,-7.7273,-7.7273,-7.7243,-7.6845,-7.6039,-7.6673,-7.7071,-7.7127,-7.6387,-7.5983,-7.5909,-7.5175,-7.4742,-7.4609,-7.3839,-7.2978,-7.2004,-7.1247,-7.0391,-6.946,-6.8822,-6.8893,-6.9389,-6.79,-6.7724,-6.8046,-6.5681,-6.5209,-6.54,0.0,0.0,0.0,0.0,0.0,0.0,0.0,0.0,0.0,0.0,0.0,-1.8177,-1.8852,-1.8942,0.0,0.0,0.0,0.0,0.0,0.0,0.0,0.0,0.0,0.0,0.0,-2.2313,-2.2313,-2.2313,-2.3579,-2.4609,-2.5372,-2.6674,-2.6979,-2.6454,-2.7215,-2.7131,-2.6454,-2.6623,-2.6691,-2.6691,-2.6691,-2.6691,0.0,0.0,0.0,0.0,-2.6741,-2.7019,0.0,0.0,0.0,0.0,0.0,0.0,0.0,0.0,-3.2136,-3.3158,-3.617,0.0,-3.7705,-3.9067,0.0,0.0,0.0,0.0,0.0,0.0,0.0,0.0,0.0,0.0,0.0,0.0,0.0,0.0,0.0,0.0,0.0,0.0,0.0,-7.4955,-7.3303,-7.5689,-7.7273,-7.7273,-7.7273,-7.7273,-7.7273,-7.6563,-7.5835,-7.507,-7.4469,-7.4598,-7.5439,-7.5285,-7.4882,-7.4258,-7.4074,-7.33,-7.1992,-7.1811,-7.0894,-6.9452,-6.9274,-6.8709,-6.7936,-6.7758,-6.7758,-6.7829,-6.6839,-6.618,-6.5646,-6.4417,-6.3655,-6.3072,0.0,0.0,0.0,0.0,0.0,0.0,0.0,0.0,0.0,0.0,0.0,0.0,0.0,0.0,0.0,0.0,0.0,0.0,0.0,0.0,0.0,0.0,0.0,0.0,-2.2265,-2.2313,-2.2448,-2.2801,-2.3932,-2.5049,-2.6116,-2.7283,-2.7587,-2.7199,-2.7266,-2.7063,-2.6691,-2.6691,-2.6691,-2.6691,-2.6691,0.0,0.0,0.0,0.0,0.0,-2.6691,-2.6858,0.0,-2.6775,-2.7113,-2.7638,0.0,0.0,0.0,0.0,-3.1463,-3.2214,-3.3501,-3.4179,-3.4924,-3.6588,-3.7046,-3.7144,0.0,0.0,0.0,0.0,0.0,0.0,0.0,0.0,0.0,0.0,0.0,0.0,0.0,0.0,0.0,0.0,0.0,-7.5077,0.0,-7.5701,-7.613,-7.6563,-7.6595,-7.6396,-7.5925,-7.5496,-7.4714,-7.3509,-7.2619,-7.262,-7.3609,-7.2919,-7.2521,-7.238,-7.1689,-7.0854,-6.9964,-6.9964,-6.9028,-6.7409,-6.7409,-6.691,-6.6088,-6.5775,-6.581,-6.5984,-6.4523,-6.4055,-6.405,-6.261,-6.1961,-6.1772,0.0,0.0,0.0,0.0,0.0,0.0,0.0,0.0,0.0,0.0,0.0,0.0,0.0,0.0,0.0,0.0,0.0,0.0,0.0,0.0,0.0,0.0,0.0,-2.1478,-2.2265,-2.2313,-2.2651,-2.341,-2.4237,-2.5422,-2.6894,-2.7756,-2.8094,-2.7959,-2.7097,-2.6691,-2.6691,-2.6691,-2.6691,-2.6691,-2.6691,0.0,0.0,0.0,0.0,0.0,0.0,0.0,0.0,-2.6691,-2.6691,-2.6793,-2.7418,0.0,0.0,0.0,0.0,0.0,-3.2423,-3.3724,-3.5204,-3.6755,-3.6823,-3.6576,0.0,0.0,0.0,0.0,0.0,0.0,0.0,0.0,0.0,0.0,0.0,0.0,0.0,0.0,0.0,0.0,-7.1431,0.0,-7.6067,-7.5083,-7.4647,-7.551,-7.5472,-7.5084,-7.4348,-7.4154,-7.3368,-7.186,-7.09,-7.0687,-7.111,-7.0096,-6.992,-7.0523,-6.9105,-6.8327,-6.8187,-6.8187,-6.7266,-6.5645,-6.561,-6.5113,-6.4208,-6.3497,-6.3531,-6.3903,-6.1907,-6.1873,-6.2753,-6.0825,-6.052,-6.0994,0.0,0.0,0.0,0.0,0.0,0.0,0.0,0.0,0.0,0.0,0.0,0.0,0.0,0.0,0.0,0.0,0.0,0.0,0.0,0.0,0.0,0.0,-2.1322,-2.1764,-2.2299,-2.2313,-2.2651,-2.341,-2.4763,-2.6167,-2.7655,-2.9075,-2.9397,-2.8739,-2.7334,-2.6691,-2.6691,-2.6691,-2.6691,-2.6691,-2.6691,0.0,0.0,0.0,0.0,0.0,0.0,0.0,0.0,-2.6691,-2.6691,-2.6725,-2.6826,0.0,0.0,0.0,0.0,0.0,-3.302,-3.443,-3.5261,-3.4446,-3.5137,-3.6023,0.0,0.0,0.0,0.0,0.0,0.0,0.0,0.0,0.0,0.0,0.0,0.0,0.0,0.0,-6.7007,-6.8392,0.0,-7.3363,-7.1837,-7.3253,-7.4348,-7.4498,-7.3968,-7.3788,-7.4275,-7.2321,-7.1089,-7.0828,-6.9213,-6.783,-6.6671,-6.8069,-6.8822,-6.8928,-6.8006,-6.7165,-6.6408,-6.6408,-6.55,-6.3872,-6.3872,-6.3453,-6.2685,-6.1941,-6.1704,-6.1704,-6.0689,-6.0419,-6.0588,-6.0216,-6.0182,-6.0182,0.0,0.0,0.0,0.0,0.0,0.0,0.0,0.0,0.0,0.0,0.0,0.0,0.0,0.0,0.0,0.0,0.0,0.0,0.0,0.0,0.0,0.0,-2.163,-2.2075,-2.2313,-2.2699,-2.3241,-2.4,-2.5067,-2.659,-2.845,-2.9161,-2.9296,-2.8942,-2.7385,-2.6691,-2.6691,-2.6691,-2.6691,-2.6691,0.0,0.0,0.0,0.0,0.0,0.0,0.0,0.0,0.0,0.0,-2.6691,-2.6691,-2.6691,0.0,0.0,0.0,0.0,0.0,-3.2107,-3.3043,-3.3833,-3.4031,-3.5734,-3.7262,0.0,0.0,0.0,0.0,0.0,0.0,0.0,0.0,0.0,0.0,0.0,-5.7942,-6.1383,-6.4556,-6.7129,0.0,0.0,-7.1686,-7.2041,-7.2071,-7.2122,-7.2267,-7.1995,-7.1687,-7.1503,-7.0545,-6.9756,-6.9179,-6.7581,-6.6373,-6.5696,-6.5778,-6.6035,-6.6415,-6.5654,-6.5045,-6.462,-6.4209,-6.3597,-6.2854,-6.2009,-6.1738,-6.1738,-6.096,-6.0655,-6.0588,-5.981,-5.9742,-6.0047,-5.9674,-5.9268,-5.8863,0.0,0.0,0.0,0.0,0.0,0.0,0.0,0.0,0.0,0.0,0.0,0.0,0.0,0.0,0.0,0.0,0.0,0.0,0.0,0.0,-2.0991,-2.0991,-2.1842,-2.2381,-2.255,-2.3105,-2.3864,-2.4745,-2.5507,-2.6928,-2.901,-2.901,-2.8908,-2.8653,-2.73,-2.6691,-2.6691,-2.6691,-2.6691,-2.6691,0.0,0.0,0.0,0.0,0.0,0.0,0.0,0.0,0.0,0.0,0.0,0.0,0.0,0.0,0.0,-2.901,-3.0059,-3.1224,-3.1413,-3.2022,-3.2869,-3.4167,0.0,0.0,0.0,0.0,0.0,0.0,0.0,0.0,0.0,0.0,0.0,0.0,-5.7035,-6.0229,-6.2508,-6.488,-6.7117,-6.9148,-6.9253,-7.0004,-7.203,-7.0862,-6.9943,-6.9968,-6.9808,-6.9406,-6.8615,-6.8426,-6.8027,-6.743,-6.6102,-6.5358,-6.5189,-6.4072,-6.3802,-6.4343,-6.3429,-6.3091,-6.3226,-6.2482,-6.2245,-6.2313,-6.096,-6.0723,-6.1231,-6.025,-5.9844,-5.9776,-5.9032,-5.9099,-5.9505,-5.8964,-5.8389,-5.7881,0.0,0.0,0.0,0.0,0.0,0.0,0.0,0.0,0.0,0.0,0.0,0.0,0.0,0.0,0.0,0.0,0.0,0.0,0.0,0.0,-2.0991,-2.0991,-2.1842,-2.2632,-2.3308,-2.3376,-2.4086,-2.5541,-2.6251,-2.7453,-2.901,-2.901,-2.8586,-2.7858,-2.7063,-2.6691,-2.6691,-2.6691,-2.6691,-2.6691,-2.6691,0.0,0.0,0.0,0.0,0.0,0.0,0.0,0.0,0.0,0.0,0.0,0.0,0.0,-2.901,-2.901,-3.0059,-3.1326,-3.2022,-3.2747,-3.3525,-3.4303,0.0,0.0,0.0,0.0,0.0,0.0,0.0,0.0,0.0,0.0,0.0,0.0,-5.7664,-6.1798,-6.4115,0.0,-6.8108,-6.9024,-6.9151,-6.9175,-6.9406,-6.9233,-6.8885,-6.8158,-6.7481,-6.7032,-6.6981,-6.5711,-6.5237,-6.5831,-6.5087,-6.4343,-6.3666,-6.3565,-6.3531,-6.3565,-6.2144,-6.1806,-6.2448,-6.1704,-6.1738,-6.2347,-6.1569,-6.1264,-6.1197,-5.9708,-5.9099,-5.9032,-5.8254,-5.8017,-5.8051,-5.7983,-5.7949,-5.7881,0.0,0.0,0.0,0.0,0.0,0.0,0.0,0.0,0.0,0.0,0.0,0.0,0.0,0.0,0.0,0.0,0.0,0.0,0.0,0.0,-2.0991,-2.0991,-2.1842,-2.2665,-2.3376,-2.3864,-2.456,-2.5592,-2.73,-2.818,-2.8281,-2.8773,-2.8552,-2.7756,-2.7029,-2.6691,-2.6691,-2.6691,-2.6691,-2.6691,-2.6691,-2.6691,0.0,0.0,0.0,0.0,0.0,0.0,0.0,0.0,-2.6691,0.0,0.0,0.0,-2.901,-2.901,-3.0059,-3.1258,-3.1529,-3.2476,-3.3592,-3.4303,0.0,0.0,0.0,0.0,0.0,0.0,0.0,0.0,0.0,0.0,0.0,0.0,-5.9098,-6.2901,-6.5602,-6.7523,-6.8571,-6.8368,-6.8808,-6.8538,-6.7117,-6.7387,-6.7151,-6.5933,-6.5595,-6.5425,-6.5425,-6.4918,-6.4715,-6.5019,-6.3835,-6.3091,-6.2821,-6.1873,-6.14,-6.14,-6.1332,-6.1467,-6.167,-6.0452,-6.0283,-6.0892,-5.9708,-5.9438,-5.981,-5.8761,-5.8321,-5.8287,-5.8017,-5.7881,-5.7881,-5.7881,-5.7881,-5.7881,0.0,0.0,0.0,0.0,0.0,0.0,0.0,0.0,0.0,0.0,0.0,0.0,0.0,0.0,0.0,0.0,0.0,0.0,0.0,-2.0381,-2.0845,-2.0991,-2.169,-2.2502,-2.3376,-2.4135,-2.488,-2.5592,-2.7638,-2.8213,-2.7452,-2.8247,-2.8213,-2.7418,-2.6928,-2.6691,-2.6691,-2.6691,-2.6691,-2.6691,-2.6691,-2.6691,0.0,0.0,0.0,0.0,0.0,0.0,0.0,0.0,0.0,0.0,0.0,0.0,0.0,0.0,-3.0228,-3.119,-3.119,-3.1935,-3.2983,0.0,0.0,0.0,0.0,0.0,0.0,0.0,0.0,0.0,0.0,0.0,0.0,0.0,-5.9607,-6.2922,-6.5425,-6.688,-6.7489,-6.6914,-6.7354,-6.7083,-6.5493,-6.5797,-6.5595,-6.4343,-6.4038,-6.3903,-6.3903,-6.3429,-6.3294,-6.3565,-6.2313,-6.167,-6.167,-6.0622,-6.0114,-6.0114,-6.0419,-6.0723,-6.0892,-5.9607,-5.9404,-6.0047,-5.8795,-5.8524,-5.8964,-5.8186,-5.7881,-5.7881,-5.7881,-5.7881,-5.7881,-5.7881,-5.7881,-5.7881,0.0,0.0,0.0,0.0,0.0,0.0,0.0,0.0,0.0,0.0,0.0,0.0,0.0,0.0,0.0,0.0,0.0,0.0,0.0,-2.0072,-2.0532,-2.0975,-2.1384,-2.2156,-2.3376,-2.4135,-2.488,-2.5592,-2.708,-2.7418,-2.6725,-2.7452,-2.7418,-2.6691,-2.6725,-2.6725,-2.6691,-2.6691,-2.6708,-2.6691,-2.6691,-2.6691,-2.6691,0.0,0.0,0.0,0.0,0.0,0.0,0.0,0.0,0.0,0.0,0.0,0.0,0.0,-3.0615,-3.119,-3.119,-3.1224,0.0,0.0,0.0,0.0,0.0,0.0,0.0,0.0,0.0,0.0,-5.1116,0.0,0.0,-5.5243,-5.8863,-6.1806,-6.3294,-6.414,-6.4613,-6.458,-6.458,-6.458,-6.458,-6.458,-6.4275,-6.3531,-6.2787,-6.2381,-6.2381,-6.0926,-6.0452,-6.1264,-6.052,-6.008,-6.008,-6.008,-6.0047,-6.0047,-5.9336,-5.937,-6.0047,-5.9336,-5.9404,-6.0047,-5.9302,-5.8998,-5.893,-5.8186,-5.7881,-5.7881,-5.7881,-5.7881,-5.7881,-5.7881,-5.7881,-5.7881,0.0,0.0,0.0,0.0,0.0,0.0,0.0,0.0,0.0,0.0,0.0,0.0,0.0,0.0,0.0,0.0,0.0,0.0,0.0,-2.0072,-2.0532,-2.0975,-2.1102,-2.1637,-2.2617,-2.3864,-2.5117,-2.6353,-2.7317,-2.7418,-2.6725,-2.801,-2.8247,-2.7486,-2.8078,-2.801,-2.7452,-2.7452,-2.7165,-2.6691,-2.6691,-2.6691,-2.6691,0.0,0.0,0.0,0.0,0.0,0.0,0.0,0.0,0.0,0.0,0.0,0.0,0.0,-3.0615,-3.119,-3.119,0.0,0.0,0.0,0.0,0.0,0.0,0.0,0.0,0.0,0.0,0.0,-5.2773,0.0,0.0,-5.6156,-5.8727,-6.1163,-6.3226,-6.414,-6.441,-6.3903,-6.3835,-6.3429,-6.2381,-6.2279,-6.1941,-6.1163,-6.0892,-6.0791,-6.0791,-6.0351,-6.0216,-6.0452,-5.9742,-5.9099,-5.8558,-5.8051,-5.7509,-5.7002,-5.6799,-5.7611,-5.9302,-5.8558,-5.8355,-5.849,-5.778,-5.7476,-5.7408,-5.6664,-5.6664,-5.7137,-5.7137,-5.7137,-5.7171,-5.7712,-5.7881,-5.7814,0.0,0.0,0.0,0.0,0.0,0.0,0.0,0.0,0.0,0.0,0.0,0.0,0.0,0.0,0.0,0.0,0.0,0.0,0.0,0.0,-2.0261,-2.0715,-2.0894,-2.1693,-2.3158,-2.4034,-2.5218,-2.6691,-2.7165,-2.7131,-2.6725,-2.7943,-2.8281,-2.7858,0.0,-2.8552,-2.779,-2.779,-2.7553,-2.7131,-2.7131,-2.7334,-2.7588,0.0,0.0,0.0,0.0,0.0,0.0,0.0,0.0,0.0,0.0,0.0,0.0,0.0,-3.0852,-3.1258,-3.1582,0.0,0.0,0.0,0.0,0.0,0.0,0.0,0.0,0.0,0.0,0.0,-5.4668,-5.4702,0.0,-5.6934,-5.8592,-6.025,-6.1907,-6.255,-6.2651,-6.2212,-6.2178,-6.1806,-6.0926,-6.0554,-6.0317,-6.0114,-5.9573,-5.9471,-6.008,-5.9268,-5.9066,-5.9641,-5.8389,-5.7645,-5.7442,-5.6731,-5.6156,-5.5681,-5.5681,-5.6427,-5.7642,-5.7239,-5.7036,-5.7002,-5.6562,-5.6359,-5.6325,-5.5886,-5.5987,-5.6359,-5.6359,-5.6359,-5.6427,-5.6867,-5.7036,-5.6968,0.0,0.0,0.0,0.0,0.0,0.0,0.0,0.0,0.0,0.0,0.0,0.0,0.0,0.0,0.0,0.0,0.0,0.0,0.0,0.0,-1.9874,-2.0265,-2.0797,-2.21,-2.4316,-2.4477,-2.5218,-2.6691,-2.6691,-2.6691,-2.6725,0.0,-2.7891,-2.7959,0.0,-2.8721,-2.7891,-2.7891,-2.7858,-2.779,-2.779,-2.8281,-2.8908,-2.818,0.0,0.0,0.0,0.0,0.0,0.0,0.0,0.0,0.0,0.0,0.0,-3.0987,-3.1258,-3.1447,0.0,0.0,0.0,0.0,0.0,0.0,0.0,0.0,0.0,0.0,0.0,0.0,-5.6325,-5.5615,-5.5378,-5.7442,-5.8355,-5.9099,-5.9877,-6.0013,-6.0013,-6.008,-5.9979,-5.9911,-5.9911,-5.9167,-5.8998,-5.9641,-5.8457,-5.8287,-5.9641,-5.778,-5.7306,-5.866,-5.6765,-5.6021,-5.6596,-5.5953,-5.5581,-5.5513,-5.5513,-5.5513,-5.5513,-5.5649,-5.5647,-5.5615,-5.5615,-5.5615,-5.5615,-5.5547,-5.5547,-5.5615,-5.5615,-5.5615,-5.5615,-5.5683,-5.5681,-5.5716,0.0,0.0,0.0,0.0,0.0,0.0,0.0,0.0,0.0,0.0,0.0,0.0,0.0,0.0,0.0,0.0,0.0,0.0,0.0,0.0,-1.9874,-2.0265,-2.1038,-2.2116,-2.3469,-2.416,-2.5218,-2.6691,-2.6691,-2.6691,0.0,0.0,0.0,-2.8807,0.0,-2.9991,-2.8739,-2.8739,-2.8383,-2.779,-2.779,-2.8281,-2.8976,-2.8807,-2.8739,0.0,0.0,0.0,0.0,0.0,0.0,0.0,0.0,-3.0108,-3.0243,-3.0987,-3.1616,0.0,0.0,0.0,0.0,0.0,0.0,0.0,0.0,0.0,0.0,0.0,0.0,-5.5378,-5.5852,-5.5683,-5.5818,-5.6867,-5.7171,-5.7746,-5.9066,-5.9268,-5.9471,-6.0047,-5.9066,-5.8355,-5.8355,-5.7171,-5.6494,-5.663,-5.6359,-5.6325,-5.663,-5.6224,-5.6089,-5.6427,-5.5953,-5.5513,-5.5074,-5.4905,-5.4532,-5.3991,-5.3991,-5.3991,-5.4025,-5.5175,-5.5378,-5.4837,-5.4837,-5.4837,-5.4803,-5.4228,-5.4329,-5.4837,-5.4837,-5.4837,-5.4905,-5.5513,-5.5681,-5.5649,0.0,0.0,0.0,0.0,0.0,0.0,0.0,0.0,0.0,0.0,0.0,0.0,0.0,0.0,0.0,0.0,0.0,0.0,0.0,0.0,0.0,-2.0615,-2.0846,-2.1698,-2.3275,-2.3914,-2.4858,-2.6184,-2.6522,0.0,0.0,0.0,0.0,-2.9077,0.0,-3.0581,-2.9533,-2.9533,-2.9296,-2.8906,-2.8906,-2.9364,-3.0025,-2.9668,-2.9533,-2.9465,-2.9145,0.0,0.0,0.0,0.0,0.0,0.0,0.0,-3.0717,-3.1089,-3.1461,-3.1921,0.0,0.0,0.0,0.0,0.0,0.0,0.0,0.0,0.0,0.0,0.0,-5.5277,-5.5614,-5.5681,-5.5852,-5.6224,-5.6292,-5.6562,-5.7304,-5.7442,-5.7577,-5.7949,-5.7306,-5.6867,-5.6867,-5.5818,-5.5344,-5.5683,-5.5378,-5.5344,-5.5647,-5.5378,-5.5344,-5.5716,-5.504,-5.4634,-5.46,-5.4262,-5.389,-5.3518,-5.3518,-5.3518,-5.3551,-5.4296,-5.4431,-5.4059,-5.4059,-5.4059,-5.4025,-5.3653,-5.3721,-5.4059,-5.4059,-5.4059,-5.4126,-5.4499,-5.4668,-5.46,0.0,0.0,0.0,0.0,0.0,0.0,0.0,0.0,0.0,0.0,0.0,0.0,0.0,0.0,0.0,0.0,0.0,0.0,0.0,0.0,0.0,0.0,-2.0482,-2.1244,-2.3335,-2.3701,-2.4513,-2.5778,0.0,0.0,0.0,0.0,0.0,-2.9247,0.0,-3.0784,-3.0108,-3.0108,-3.0108,-3.0108,-3.0108,-3.0548,-3.1123,-3.0514,-3.0311,-3.0209,-2.9619,-2.9382,-2.9484,-3.0074,0.0,0.0,0.0,0.0,-3.119,-3.119,-3.1292,-3.1664,0.0,0.0,0.0,0.0,0.0,0.0,0.0,0.0,0.0,0.0,0.0,-5.4397,-5.5006,-5.5243,-5.5309,-5.5309,-5.5309,-5.5378,-5.5513,-5.5513,-5.5581,-5.5647,-5.5615,-5.5513,-5.5513,-5.4837,-5.4668,-5.5277,-5.4769,-5.4668,-5.531,-5.46,-5.4465,-5.5108,-5.3822,-5.3416,-5.3991,-5.3416,-5.3112,-5.3112,-5.3247,-5.3281,-5.3315,-5.345,-5.3518,-5.3518,-5.3518,-5.3518,-5.3518,-5.3518,-5.3518,-5.3518,-5.3518,-5.3518,-5.3518,-5.3518,-5.3518,-5.3518,0.0,0.0,0.0,0.0,0.0,0.0,0.0,0.0,0.0,0.0,0.0,0.0,0.0,0.0,0.0,0.0,0.0,0.0,-1.9708,0.0,0.0,-1.9856,-2.0141,-2.123,-2.317,-2.3654,-2.478,-2.6556,0.0,0.0,0.0,0.0,0.0,-3.0006,0.0,0.0,-3.0108,-3.0108,-3.0108,-3.0108,-3.0108,-3.0548,-3.119,-3.1089,-3.1055,-3.1021,-3.092,-3.092,-3.092,-3.1021,-3.1055,0.0,0.0,0.0,-3.119,-3.119,-3.165,0.0,0.0,0.0,0.0,0.0,0.0,0.0,0.0,0.0,0.0,0.0,-5.1522,-5.2638,-5.2739,-5.3315,-5.3788,-5.3788,-5.3788,-5.4025,-5.4668,-5.4735,-5.4972,-5.5649,-5.5141,-5.4735,-5.4735,-5.4093,-5.3687,-5.3788,-5.3721,-5.3687,-5.3788,-5.3044,-5.2638,-5.2739,-5.1961,-5.1523,-5.1657,-5.1589,-5.1522,-5.1489,-5.2164,-5.2469,-5.2469,-5.3179,-5.3518,-5.3518,-5.3518,-5.3518,-5.3518,-5.3518,-5.3518,-5.3518,-5.3518,-5.3518,-5.3518,-5.3518,-5.3518,-5.3518,0.0,0.0,0.0,0.0,0.0,0.0,0.0,0.0,0.0,0.0,0.0,0.0,0.0,0.0,0.0,-1.9708,-1.9708,-1.9708,-1.9708,-1.9708,-1.9785,-2.0019,-2.0345,-2.1144,-2.2512,-2.3541,-2.4588,0.0,0.0,0.0,0.0,-2.9856,-3.0852,0.0,0.0,0.0,0.0,-3.1055,-3.0717,-3.0717,-3.0717,-3.092,-3.119,-3.119,-3.1481,-3.1819,-3.1819,-3.207,-3.2442,-3.2442,-3.2442,-3.2374,-3.1955,0.0,0.0,0.0,-3.1427,0.0,0.0,0.0,0.0,0.0,0.0,0.0,0.0,0.0,0.0,0.0,-4.9424,-5.071,-5.1522,-5.1995,-5.2367,-5.2773,-5.2841,-5.3112,-5.3856,-5.3991,-5.4093,-5.4431,-5.4194,-5.3991,-5.3991,-5.3281,-5.2841,-5.2841,-5.2435,-5.2232,-5.2232,-5.1894,-5.1691,-5.1691,-5.1386,-5.1185,-5.1185,-5.1185,-5.1185,-5.1185,-5.1555,-5.1691,-5.1725,-5.2063,-5.2706,-5.3518,-5.3518,-5.3518,-5.3518,-5.3518,-5.3518,-5.3518,-5.3518,-5.3518,-5.3518,-5.3518,-5.3518,-5.3518,0.0,0.0,0.0,0.0,0.0,0.0,0.0,0.0,0.0,0.0,0.0,0.0,0.0,0.0,0.0,0.0,-1.9708,-1.9708,-1.9708,-1.9708,-1.9911,-2.0369,-2.0575,-2.1277,-2.2524,-2.3651,0.0,0.0,0.0,0.0,-2.9314,-3.0987,-3.2442,0.0,-3.3694,-3.3457,0.0,0.0,0.0,-3.1481,-3.1258,-3.119,-3.1224,-3.1413,-3.1819,-3.2327,-3.253,-3.2916,-3.3423,-3.3423,-3.3423,-3.3322,-3.2747,-3.2598,0.0,0.0,0.0,0.0,0.0,0.0,0.0,0.0,0.0,0.0,0.0,0.0,0.0,0.0,-4.7259,-4.8545,-4.9864,-5.071,-5.1386,-5.1928,-5.2029,-5.2232,-5.2841,-5.2942,-5.2942,-5.2942,-5.2942,-5.2942,-5.2942,-5.2367,-5.2029,-5.2029,-5.1522,-5.1185,-5.1185,-5.0813,-5.0744,-5.0913,-5.0371,-5.027,-5.0642,-5.0642,-5.0642,-5.0642,-5.0845,-5.0913,-5.0947,-5.1083,-5.1826,-5.2942,-5.3112,-5.3213,-5.3213,-5.3416,-5.3518,-5.3518,-5.3518,-5.3518,-5.3518,-5.3518,-5.3518,-5.3518,0.0,0.0,0.0,0.0,0.0,0.0,0.0,0.0,0.0,0.0,0.0,0.0,-1.9708,-1.9708,-1.9708,-1.9708,-1.9708,-1.9708,-1.9708,-1.9708,-1.9977,-2.0636,-2.0707,0.0,-2.4035,-2.415,0.0,0.0,0.0,0.0,-3.0108,-3.2273,-3.3694,-3.4438,-3.4438,-3.3681,-3.2395,0.0,0.0,0.0,0.0,-3.119,-3.1258,-3.1989,-3.2259,-3.2395,-3.3085,-3.3389,-3.3423,-3.3423,-3.3423,-3.3389,-3.3355,-3.3355,-3.3186,0.0,0.0,0.0,0.0,0.0,0.0,0.0,0.0,0.0,0.0,0.0,0.0,0.0,-4.5331,-4.6109,-4.6887,-4.9323,-5.1185,-5.1219,-5.1285,-5.1252,-5.1319,-5.132,-5.132,-5.132,-5.132,-5.132,-5.132,-5.1252,-5.1285,-5.1285,-5.1219,-5.1185,-5.1185,-4.9898,-4.9424,-5.0135,-4.8105,-4.7699,-4.912,-4.912,-4.912,-4.912,-4.983,-5.0135,-5.0168,-5.0879,-5.1251,-5.1386,-5.2063,-5.2367,-5.2435,-5.3179,-5.3518,-5.3518,-5.3518,-5.3518,-5.3518,-5.3518,-5.3518,-5.3518,0.0,0.0,0.0,0.0,0.0,0.0,0.0,0.0,0.0,0.0,0.0,0.0,0.0,-1.9708,-1.9708,-1.9708,-1.9708,-1.9708,-1.9708,-2.0109,-2.0468,-2.0688,-2.1515,-2.2375,-2.3231,-2.3939,0.0,0.0,0.0,-2.7825,-2.8929,-3.0649,-3.1783,-3.2408,-3.3355,-3.3491,-3.2949,-3.2273,0.0,0.0,0.0,-3.1921,-3.1989,-3.2713,-3.3288,-3.3749,-3.3998,-3.4404,-3.4788,-3.4788,-3.4788,-3.4721,-3.4269,-3.41,-3.3863,-3.2666,-3.2124,-3.1955,-3.2226,0.0,0.0,0.0,0.0,0.0,0.0,0.0,0.0,-4.2185,-4.3403,-4.4288,-4.4587,-4.6684,-4.868,-4.9627,-4.9796,-5.0135,-5.1082,-5.1185,-5.1185,-5.1185,-5.1185,-5.1185,-5.1185,-5.0777,-5.0473,-5.0473,-4.9627,-4.9055,-4.9055,-4.8139,-4.7699,-4.797,-4.7192,-4.7056,-4.7564,-4.7597,-4.7597,-4.7597,-4.8342,-4.8714,-4.8714,-4.9458,-4.9796,-4.983,-5.0574,-5.115,-5.1623,-5.1928,-5.23,-5.2739,-5.2739,-5.3044,-5.3518,-5.3518,-5.3518,-5.3518,0.0,0.0,0.0,0.0,0.0,0.0,0.0,0.0,0.0,0.0,0.0,0.0,0.0,0.0,-2.0127,-2.0367,-2.0367,-2.0367,-2.0367,-2.0797,-2.1156,-2.1365,-2.2224,-2.2876,-2.3243,-2.401,0.0,0.0,0.0,0.0,0.0,-2.9377,-3.0255,-3.0647,-3.1632,-3.2412,0.0,0.0,0.0,-3.1968,-3.2192,-3.2462,-3.2801,-3.3761,-3.4438,-3.4945,-3.5453,-3.596,-3.6377,-3.6377,-3.6231,-3.5926,-3.5419,-3.4912,-3.4303,-3.3343,-3.2699,-3.2293,-3.2293,0.0,0.0,0.0,0.0,0.0,0.0,0.0,0.0,-4.0189,-4.1441,-4.2361,-4.2598,-4.4113,-4.5838,-4.7597,-4.8105,-4.8612,-4.9593,-4.9729,-4.9729,-4.9729,-4.9729,-4.9729,-4.9729,-4.9289,-4.8984,-4.8984,-4.8071,-4.753,-4.753,-4.6819,-4.6312,-4.6041,-4.6278,-4.6413,-4.6413,-4.6413,-4.6549,-4.6786,-4.7293,-4.753,-4.7564,-4.8037,-4.8409,-4.868,-4.9154,-4.9932,-5.0845,-5.1083,-5.1488,-5.1961,-5.2198,-5.2469,-5.2807,-5.3315,-5.3348,-5.3145,0.0,0.0,0.0,0.0,0.0,0.0,0.0,0.0,0.0,0.0,0.0,0.0,0.0,0.0,0.0,-2.1635,-2.1695,-2.1695,-2.1695,-2.1724,-2.2024,-2.2673,-2.2733,-2.3222,-2.4369,-2.4369,0.0,0.0,0.0,0.0,0.0,0.0,-2.9352,-2.9406,-2.9384,-3.0435,-3.2212,0.0,-3.2773,-3.3225,-3.2611,-3.276,-3.3562,-3.5036,-3.5588,-3.5791,-3.7334,-3.7841,-3.7865,-3.7865,-3.7415,-3.6795,-3.6761,-3.5746,-3.4539,-3.4506,-3.3512,-3.2361,0.0,0.0,0.0,0.0,0.0,0.0,0.0,0.0,-3.6242,-3.8464,-3.9512,-4.0231,-4.0967,-4.1711,-4.2963,-4.5196,-4.6177,-4.6718,-4.6718,-4.6752,-4.6752,-4.6752,-4.6786,-4.6786,-4.6786,-4.6786,-4.6786,-4.6786,-4.6786,-4.6752,-4.6718,-4.6007,-4.5263,-4.4547,-4.5229,-4.5602,-4.5602,-4.5602,-4.5974,-4.6684,-4.6718,-4.6752,-4.6752,-4.6786,-4.7192,-4.7872,-4.7872,-4.8714,-5.0067,-5.0845,-5.1151,-5.1251,-5.1961,-5.1826,-5.1386,-5.2909,-5.2976,-5.2401,0.0,0.0,0.0,0.0,0.0,0.0,0.0,0.0,0.0,0.0,0.0,0.0,-2.0438,-2.1036,-2.1485,-2.1665,-2.1695,-2.1695,-2.1695,-2.2164,-2.2493,-2.2673,-2.3122,-2.3516,-2.3815,-2.3815,0.0,0.0,0.0,0.0,0.0,0.0,0.0,0.0,-2.8927,-2.9275,-3.0228,-3.0718,0.0,-3.1336,-3.2579,-3.3228,-3.3616,-3.5053,-3.5588,-3.5727,-3.6686,-3.7028,-3.7128,-3.772,-3.7415,-3.6694,-3.6129,-3.5656,-3.5216,-3.4641,-3.4201,-3.3761,-3.3254,0.0,0.0,0.0,0.0,0.0,0.0,0.0,0.0,-3.7303,-3.799,-3.8565,-3.8802,-3.9851,-4.0925,-4.1568,-4.3166,-4.4553,-4.5156,-4.5669,-4.6007,-4.6007,-4.6481,-4.6786,-4.6786,-4.6786,-4.6786,-4.6786,-4.6312,-4.5771,-4.5258,-4.3944,-4.3132,-4.2956,-4.3132,-4.3234,-4.3234,-4.3234,-4.3606,-4.435,-4.4925,-4.5466,-4.6007,-4.6549,-4.6921,-4.709,-4.709,-4.7631,-4.8578,-4.9323,-4.9932,-5.0405,-5.0608,-5.0913,-5.1319,-5.23,-5.2164,-5.1725,0.0,0.0,0.0,0.0,0.0,0.0,0.0,0.0,0.0,0.0,0.0,0.0,-2.1485,-2.1874,-2.2224,-2.2473,-2.2503,-2.2503,-2.2503,-2.2882,-2.3092,-2.3092,-2.367,-2.4007,-2.4007,-2.4298,0.0,0.0,0.0,0.0,0.0,0.0,0.0,0.0,0.0,0.0,0.0,0.0,-3.0307,-3.0957,-3.2118,-3.3142,-3.4084,-3.5208,-3.5846,-3.6162,-3.6891,-3.7365,-3.763,-3.7793,-3.7361,-3.6573,-3.5502,-3.5362,-3.5532,-3.5081,-3.4742,-3.4404,-3.3964,-3.3626,-3.3592,-3.4303,0.0,0.0,-3.5363,-3.5723,-3.5949,-3.6231,-3.6907,-3.7449,-3.7449,-3.8396,-3.9174,-3.9174,-4.0527,-4.2049,-4.3436,-4.4012,-4.4282,-4.4282,-4.4654,-4.4925,-4.4925,-4.4925,-4.4925,-4.4925,-4.4519,-4.4079,-4.3667,-4.2794,-4.2286,-4.2286,-4.1982,-4.1982,-4.2286,-4.1982,-4.2219,-4.2963,-4.3741,-4.4316,-4.479,-4.5534,-4.6041,-4.6346,-4.6346,-4.6752,-4.7496,-4.824,-4.8984,-4.9661,-4.9965,-5.0168,-5.0405,-5.1454,-5.1386,-5.098,0.0,0.0,0.0,0.0,0.0,0.0,0.0,0.0,0.0,0.0,0.0,0.0,-2.2823,-2.2912,-2.3152,-2.3759,-2.3819,-2.3819,-2.3819,-2.3819,-2.3819,-2.3819,-2.4395,-2.4724,-2.4724,-2.5292,0.0,0.0,0.0,0.0,0.0,0.0,0.0,0.0,0.0,0.0,0.0,0.0,-3.0129,-3.1317,-3.1502,-3.2761,-3.4546,-3.5291,-3.5995,-3.6673,-3.7393,-3.8076,-3.8547,-3.7898,-3.7307,-3.6584,-3.5251,-3.5252,-3.5735,-3.5735,-3.5216,-3.4607,-3.4607,-3.4134,-3.3795,-3.4472,-3.4201,0.0,-3.5329,-3.5148,-3.4878,-3.5363,-3.6062,-3.6524,-3.6457,-3.7077,-3.7628,-3.7628,-3.8328,-3.958,-4.1644,-4.2049,-4.2185,-4.2185,-4.2252,-4.2286,-4.2286,-4.2286,-4.2286,-4.2286,-4.2219,-4.2185,-4.2185,-4.2083,-4.2049,-4.2049,-4.1407,-4.1373,-4.2049,-4.1407,-4.1441,-4.2185,-4.2861,-4.3172,-4.3274,-4.4079,-4.4823,-4.5466,-4.5534,-4.6007,-4.6718,-4.7496,-4.8206,-4.8951,-4.9695,-4.956,-4.9187,-5.0574,-5.0676,-5.0304,-1.7874,0.0,0.0,0.0,0.0,0.0,0.0,0.0,0.0,0.0,0.0,0.0,-2.4096,-2.4216,-2.4485,-2.5166,-2.5226,-2.5226,-2.5226,-2.5226,-2.5226,-2.5226,-2.5345,-2.5382,-2.5382,-2.5531,0.0,0.0,0.0,0.0,0.0,0.0,0.0,0.0,0.0,0.0,0.0,0.0,-2.9225,-3.0099,-3.1678,-3.2868,-3.3787,-3.4465,-3.5152,-3.5854,-3.6569,-3.6934,-3.705,-3.695,-3.7209,-3.7439,-3.6551,-3.6419,-3.6592,-3.6592,-3.5994,-3.5363,-3.5363,-3.5261,-3.5194,-3.5329,-3.5757,0.0,-3.5667,-3.5994,-3.6051,-3.4945,-3.4844,-3.4742,-3.4167,-3.5126,-3.6039,-3.6039,-3.7212,-3.8464,-3.9478,-4.0663,-4.1407,-4.1407,-4.1948,-4.2286,-4.2286,-4.2286,-4.2286,-4.2286,-4.1745,-4.1407,-4.1407,-4.0832,-4.0519,-4.0519,-4.0383,-4.0383,-4.0519,-4.0383,-4.0663,-4.1407,-4.1576,-4.1948,-4.2523,-4.3301,-4.3713,-4.3882,-4.4519,-4.5229,-4.5974,-4.6718,-4.7462,-4.8176,-4.8951,-4.912,-4.912,-4.9999,-5.0202,-5.0304,-1.7558,0.0,0.0,0.0,0.0,0.0,0.0,0.0,0.0,0.0,0.0,0.0,-2.5023,-2.5083,-2.5232,-2.5561,-2.5615,-2.5615,-2.5615,-2.5615,-2.5615,-2.5615,-2.5914,-2.6093,-2.6093,-2.6422,0.0,0.0,0.0,0.0,0.0,0.0,0.0,0.0,0.0,0.0,0.0,0.0,-2.9475,-3.0156,-3.1106,-3.2287,-3.3546,-3.3879,-3.4635,-3.5554,-3.5911,-3.607,-3.6073,-3.6123,-3.6649,-3.7048,-3.5957,-3.6434,-3.7199,-3.6439,-3.6212,-3.6129,-3.5701,-3.56,-3.5701,-3.6096,-3.6197,0.0,0.0,-3.6197,-3.5994,-3.5216,-3.4742,-3.437,-3.4032,-3.4539,-3.5047,-3.5047,-3.6332,-3.7483,-3.7845,-3.887,-3.9546,-3.9546,-3.9884,-4.0121,-4.0121,-4.0121,-4.0121,-4.0121,-4.0087,-4.0087,-4.0087,-4.0113,-4.0113,-4.0113,-4.0113,-4.0113,-4.0113,-4.0113,-4.0282,-4.0663,-4.1035,-4.1407,-4.1779,-4.2523,-4.2861,-4.2895,-4.3673,-4.4215,-4.4688,-4.6177,-4.7022,-4.7462,-4.8578,-4.9018,-4.9052,-4.9424,-4.956,-4.9695,-1.7529,0.0,0.0,0.0,0.0,0.0,0.0,0.0,0.0,0.0,0.0,0.0,-2.5974,-2.6093,-2.6333,-2.6697,-2.6368,-2.6303,-2.6542,-2.6333,-2.6123,-2.6004,-2.6752,-2.7076,-2.6806,-2.7465,-2.7735,0.0,0.0,0.0,0.0,0.0,0.0,0.0,0.0,0.0,0.0,0.0,0.0,-3.0522,-3.0642,-3.1749,-3.3335,-3.3455,-3.4262,-3.531,-3.5459,-3.5519,-3.5497,-3.5554,-3.618,-3.6692,-3.5348,-3.6271,-3.7608,-3.6241,-3.6164,-3.6407,-3.578,-3.5701,-3.596,-3.6434,-3.6299,-3.6163,0.0,0.0,0.0,-3.543,-3.4912,-3.4404,0.0,0.0,0.0,-3.4121,0.0,0.0,0.0,-3.6772,0.0,-3.7855,-3.7787,-3.7753,-3.7889,-3.7922,-3.7922,-3.7922,-3.8464,-3.8768,-3.8768,-3.9368,-3.974,-3.9876,-3.991,-3.9977,-4.0113,-4.0113,-4.0113,-4.0113,-4.0696,-4.1001,-4.1001,-4.1745,-4.2083,-4.2117,-4.3031,-4.3375,-4.3544,-4.5703,-4.6583,-4.6752,-4.8376,-4.9018,-4.9018,-4.9018,-4.9086,-4.9323,-1.8715,-1.9363,0.0,0.0,0.0,0.0,0.0,0.0,0.0,0.0,0.0,-2.6692,-2.7315,-2.7889,-2.8966,-3.0673,-2.9265,-2.8757,-2.9864,-2.8876,-2.7979,-2.7405,-2.8573,-2.8693,-2.7495,-2.8128,-2.8188,0.0,0.0,0.0,0.0,0.0,0.0,0.0,-2.8487,0.0,0.0,0.0,-3.0432,-3.0552,-3.1152,-3.1869,-3.2677,-3.3275,-3.3963,-3.4713,-3.528,-3.5519,-3.5489,-3.5497,-3.6476,-3.7517,-3.6625,-3.7032,-3.7642,-3.684,-3.6181,-3.5719,-3.5609,-3.6129,-3.6502,-3.587,-3.6705,-3.7313,-3.6005,0.0,-3.6288,-3.4912,0.0,-3.4121,-3.2801,0.0,0.0,-3.2666,-3.3783,-3.4539,-3.3897,-3.4404,-3.5622,-3.7652,-3.7313,-3.7178,-3.7855,-3.7922,-3.7922,-3.7922,-3.799,-3.8024,-3.8024,-3.8091,-3.8464,-3.9106,-3.9106,-3.9436,-4.0079,-4.0113,-4.0113,-4.0113,-4.018,-4.0214,-4.0248,-4.1001,-4.1339,-4.1407,-4.2828,-4.3375,-4.3511,-4.5162,-4.5838,-4.6041,-4.8173,-4.9018,-4.9018,-4.9018,-4.9424,-5.0067,-1.9019,-1.984,0.0,0.0,0.0,0.0,0.0,0.0,0.0,0.0,0.0,-2.8453,-2.8723,-2.9325,-3.0193,-3.1391,-3.0374,-2.9924,-3.0462,-2.9654,-2.9026,-2.8783,-2.9292,-2.9352,-2.8783,-2.9052,-2.9052,-2.8753,-2.8753,0.0,0.0,0.0,0.0,0.0,-2.9175,0.0,-3.0133,0.0,-3.0731,-3.1092,-3.1391,-3.166,-3.1989,-3.2677,-3.3335,-3.3993,-3.4681,-3.4921,-3.4981,-3.537,-3.6508,-3.7589,-3.6352,-3.7393,-3.8828,-3.7166,-3.6821,-3.6932,-3.6915,-3.6558,-3.6243,-3.6791,-3.6736,-3.651,-3.6342,-3.6197,-3.5926,-3.5284,0.0,0.0,0.0,0.0,0.0,0.0,-3.3829,-3.4235,0.0,0.0,-3.3728,-3.5115,-3.5013,-3.5115,-3.5859,-3.6332,-3.6546,-3.6546,-3.7009,-3.7246,-3.7246,-3.7686,-3.8227,-3.8971,-3.9005,-3.9368,-4.0079,-4.0113,-4.0113,-4.0113,-4.0113,-4.0113,-4.0113,-4.0417,-4.0561,-4.0629,-4.2117,-4.276,-4.2929,-4.4891,-4.5703,-4.5838,-4.7192,-4.797,-4.8409,-4.8849,-4.9187,-4.9492,-1.9751,0.0,0.0,0.0,0.0,0.0,0.0,0.0,0.0,-2.6926,-2.8483,-2.9714,-3.0073,-3.1001,-3.2018,-3.3035,-3.2347,-3.1869,-3.1869,-3.0941,-3.0133,-2.9621,-2.9924,-2.9953,-2.9621,-2.9771,-2.9771,0.0,0.0,0.0,0.0,0.0,0.0,0.0,0.0,-3.0193,-3.0763,0.0,-3.1062,-3.1511,-3.1511,-3.1511,-3.157,-3.2228,-3.2916,-3.3574,-3.4264,-3.4503,-3.4623,-3.528,-3.6383,-3.7265,-3.591,-3.7205,-3.8776,-3.693,-3.6767,-3.7293,-3.7501,-3.6896,-3.6422,-3.7343,-3.7053,-3.6505,-3.6453,-3.6189,-3.5866,-3.5622,-3.5161,0.0,0.0,0.0,-3.4124,-3.303,0.0,-3.382,-3.2706,-3.2394,-3.2564,-3.3322,-3.3423,-3.3626,-3.4134,-3.4675,-3.5059,-3.5261,-3.5825,-3.6254,-3.6468,-3.6975,-3.7719,-3.8667,-3.87,-3.914,-4.0079,-4.0113,-4.0113,-4.0113,-4.0113,-4.0113,-4.0113,-4.0113,-4.0113,-4.018,-4.167,-4.2286,-4.2455,-4.4553,-4.5399,-4.5466,-4.621,-4.6955,-4.7699,-4.8443,-4.8849,-4.9052,-2.1407,-2.161,0.0,0.0,0.0,0.0,0.0,-2.6183,-2.6866,-2.7495,-2.8753,-3.0073,-3.1301,-3.3185,-3.513,-3.7045,-3.6058,-3.534,-3.534,-3.3514,-3.1569,-2.9681,-3.0763,-3.0853,-2.9621,-3.0163,-3.0193,-2.9621,0.0,0.0,0.0,0.0,0.0,0.0,0.0,-3.0823,-3.1481,-3.1481,-3.1481,-3.1511,-3.1511,-3.1511,-3.157,-3.2228,-3.2916,-3.3574,-3.4264,-3.4503,-3.4623,-3.528,-3.6006,-3.6508,-3.5718,-3.607,-3.6567,-3.5795,-3.5548,-3.5745,-3.6541,-3.7209,-3.7571,-3.6906,-3.7811,-3.8336,-3.6142,-3.6156,-3.6456,-3.5733,-3.5571,-3.5364,-3.4633,-3.4506,-3.3847,-3.1802,-3.2579,0.0,0.0,-3.1495,-3.2564,-3.3322,-3.3423,-3.3423,-3.3423,-3.3457,-3.3761,-3.4472,-3.4539,-3.4878,-3.56,-3.5667,-3.6377,-3.7889,-3.7956,-3.8633,-4.0079,-4.0113,-4.0113,-4.0113,-4.0113,-4.0113,-4.0113,-4.0113,-4.0113,-4.018,-4.167,-4.2286,-4.2422,-4.4005,-4.4649,-4.4716,-4.5466,-4.6177,-4.6921,-4.7665,-4.8409,-4.912,0.0,0.0,0.0,0.0,0.0,-2.4916,-2.6081,-2.756,-2.8966,-3.0043,-3.1719,-3.3484,-3.522,-3.6417,-3.7524,-3.8631,-3.7913,-3.7225,-3.6806,-3.534,-3.3993,-3.2916,-3.2826,-3.2407,-3.1539,-3.1719,-3.1509,-3.0853,0.0,0.0,0.0,0.0,0.0,0.0,0.0,-3.1301,0.0,0.0,0.0,0.0,0.0,-3.178,-3.2138,-3.1929,-3.1959,-3.2258,-3.2946,-3.3185,-3.3335,-3.4442,-3.5337,-3.589,-3.5597,-3.6352,-3.7231,-3.6473,-3.6247,-3.6457,-3.7219,-3.6869,-3.6331,-3.664,-3.7097,-3.7273,-3.6474,-3.6937,-3.7263,-3.6557,-3.6384,-3.6155,-3.5374,-3.4868,-3.4024,-3.2408,-3.2151,-3.1587,0.0,-3.0087,-3.0479,-3.0707,-3.1871,-3.2645,-3.2645,-3.3119,-3.3525,-3.3761,-3.4201,-3.4607,-3.4878,-3.5329,-3.6073,-3.7144,-3.7652,-3.8362,-3.9343,-3.9876,-4.0113,-4.0113,-4.0113,-4.0113,-4.0113,-4.0113,-4.0113,-4.018,-4.167,-4.2286,-4.2422,-4.3972,-4.4615,-4.4615,-4.4886,-4.5703,-4.6887,-4.7631,-4.8376,-4.9187,-2.1769,-2.2875,-2.3983,-2.4436,-2.5312,-2.6256,-2.7181,-2.9205,-3.1001,-3.2049,-3.4143,-3.6088,-3.7584,-3.899,-3.9978,-4.0427,-4.0277,-3.9559,-3.8212,-3.7345,-3.6178,-3.4563,-3.4292,-3.3784,-3.2886,-3.2856,-3.2407,-3.1511,-3.175,-3.172,0.0,0.0,0.0,0.0,0.0,-3.1511,-3.1511,-3.1511,-3.1511,0.0,0.0,-3.175,-3.2079,-3.166,-3.166,-3.1899,-3.2318,-3.2527,-3.2706,-3.4023,-3.4817,-3.5248,-3.5441,-3.6164,-3.6874,-3.6384,-3.6229,-3.6432,-3.7168,-3.6651,-3.604,-3.6542,-3.689,-3.6926,-3.6414,-3.6852,-3.7242,-3.6539,-3.6183,-3.5918,-3.5653,-3.4857,-3.3811,-3.2401,-3.179,-3.0998,0.0,-2.9406,-2.9406,-2.9406,-3.0511,-3.1341,-3.1582,-3.2039,-3.2606,-3.3334,-3.3829,-3.4336,-3.4878,-3.5329,-3.596,-3.6761,-3.7516,-3.8261,-3.8971,-3.974,-4.0113,-4.0113,-4.0113,-4.0113,-4.0113,-4.0113,-4.0113,-4.018,-4.167,-4.2286,-4.2422,-4.3972,-4.4615,-4.4649,-4.4886,-4.5737,-4.6853,-4.7327,-4.8139,-4.9187,-2.2347,-2.3447,-2.4461,-2.4666,-2.6854,-2.8607,-2.8637,-3.0881,-3.2826,-3.3574,-3.5968,-3.7883,-3.8661,-4.1033,-4.253,-4.253,-4.303,-4.2273,-3.9732,-3.9523,-3.8093,-3.4893,-3.528,-3.4981,-3.3634,-3.3514,-3.2856,-3.154,-3.2138,0.0,0.0,0.0,0.0,0.0,-3.1511,0.0,-3.1511,-3.1511,-3.1511,-3.1511,-3.1511,-3.154,-3.154,-3.1511,-3.1899,-3.2527,-3.2437,-3.2437,-3.2647,-3.3933,-3.4414,-3.4533,-3.522,-3.5459,-3.5459,-3.5489,-3.5519,-3.5651,-3.6353,-3.6538,-3.6538,-3.6538,-3.7144,-3.734,-3.5915,-3.6135,-3.6469,-3.5784,-3.5071,-3.4756,-3.5431,-3.4447,-3.3117,-3.1804,-3.1495,-3.0935,-2.9603,-2.9389,-2.9389,-2.9389,-2.938,-2.9595,-3.0204,-3.0288,-3.1103,-3.3102,-3.3334,-3.4032,0.0,-3.5566,-3.596,-3.6761,-3.7516,-3.8261,-3.8971,-3.974,-4.0113,-4.0113,-4.0113,-4.0113,-4.0113,-4.0113,-4.0113,-4.018,-4.161,-4.2252,-4.2422,-4.3938,-4.4581,-4.4682,-4.5365,-4.6109,-4.6819,-4.6887,-4.78,-4.912,-2.2895,-2.4487,-2.6157,-2.7145,-2.8025,-2.8757,-2.9292,-3.1539,-3.3993,-3.6118,-3.8721,-4.1175,-4.3299,-4.4137,-4.4556,-4.4556,-4.4257,-4.3569,-4.2363,-4.1414,-4.0068,-3.8242,-3.7375,-3.6327,-3.5011,-3.3993,-3.3095,-3.2228,-3.1899,0.0,-3.1511,0.0,0.0,0.0,0.0,0.0,-3.1511,-3.1511,-3.1511,-3.1511,-3.1511,-3.1809,-3.2168,-3.169,-3.1899,-3.2407,-3.1929,-3.175,-3.1899,-3.2736,-3.3006,-3.3215,-3.4382,-3.4773,-3.4831,-3.534,-3.5519,-3.5522,-3.5718,-3.5782,-3.5782,-3.5782,-3.6352,-3.6812,-3.6383,-3.6929,-3.7306,-3.6557,-3.5868,-3.5272,-3.4925,-3.3756,-3.2596,-3.1756,-3.076,-2.9972,-2.9611,-2.955,-2.955,-2.955,-2.9124,-2.902,-2.9582,-3.0021,-3.0504,-3.1049,-3.2517,-3.3592,-3.3943,-3.4991,-3.596,-3.6761,-3.7516,-3.8261,-3.8971,-3.974,-4.0113,-4.0113,-4.0113,-4.0113,-4.0113,-4.0113,-4.0113,-4.0146,-4.1068,-4.1779,-4.2354,-4.3335,-4.4045,-4.4615,-4.4818,-4.5669,-4.6921,-4.8037,-4.868,-4.912,-2.3471,-2.5488,-2.7586,-2.8854,-3.0484,-3.1629,-3.1748,-3.3215,-3.531,-3.7943,-4.0576,-4.2701,-4.3868,-4.5304,-4.6052,-4.5753,-4.5125,-4.4347,-4.3349,-4.2641,-4.1384,-3.9463,-3.896,-3.7853,-3.5968,-3.4921,-3.3754,-3.2527,-3.2108,0.0,-3.1511,0.0,0.0,0.0,0.0,-3.1511,-3.1511,-3.1511,-3.1511,-3.1511,-3.1511,-3.172,0.0,-3.163,-3.1899,-3.2437,-3.2079,-3.175,-3.16,-3.2258,-3.2527,-3.2736,-3.4084,-3.4503,-3.4653,-3.531,-3.5519,-3.5519,-3.5519,-3.5519,-3.5519,-3.5519,-3.5814,-3.6102,-3.6102,-3.6477,-3.666,-3.6286,-3.5416,-3.4698,-3.4607,-3.3213,-3.1891,-3.1247,-3.0256,-2.9621,-2.9621,-2.9621,-2.9621,-2.9621,-2.9292,-2.904,-2.9031,-2.9576,-3.0152,-3.077,-3.2144,-3.325,-3.3874,-3.471,-3.5652,-3.6795,-3.7516,-3.8261,-3.8971,-3.974,-4.0113,-4.0113,-4.0113,-4.0113,-4.0113,-4.0113,-4.0113,-4.0146,-4.0865,-4.161,-4.2354,-4.3098,-4.3876,-4.4649,-4.4925,-4.5974,-4.7394,-4.8206,-4.8714,-4.9052,-2.4305,-2.6458,-2.8629,-2.9872,-3.303,-3.5389,-3.528,-3.5908,-3.7255,-3.9582,-4.2124,-4.3539,-4.3099,-4.5514,-4.695,-4.6339,-4.5603,-4.4676,-4.3499,-4.326,-4.2162,-3.9732,-3.9978,-3.902,-3.6656,-3.5699,-3.4382,-3.2647,-3.2467,0.0,0.0,0.0,0.0,0.0,0.0,0.0,0.0,-3.1511,-3.1511,-3.1511,-3.1511,-3.1511,-3.1511,-3.16,-3.1989,-3.2497,-3.2617,-3.2258,-3.1839,-3.2318,-3.2587,-3.2826,-3.3993,-3.4444,-3.4653,-3.531,-3.5519,-3.5519,-3.5519,-3.5519,-3.5519,-3.5519,-3.5519,-3.5519,-3.5519,-3.5519,-3.5519,-3.5519,-3.4502,-3.3784,-3.4294,-3.2796,-3.1301,-3.0731,-3.0193,-2.9834,-2.9834,-2.9834,-2.9834,-2.9834,-2.9771,0.0,-2.8906,-2.9197,-2.9931,-3.1166,-3.188,-3.2928,-3.4362,-3.455,-3.53,-3.6907,-3.7584,-3.8294,-3.914,-3.9774,-4.0113,-4.0113,-4.0113,-4.0113,-4.0113,-4.0113,-4.0113,-4.0146,-4.0764,-4.1542,-4.2354,-4.2997,-4.3775,-4.4682,-4.5297,-4.6481,-4.7736,-4.7736,-4.8274,-4.9018,-2.5971,-2.7348,-2.8765,-2.985,-3.282,-3.6038,-3.8943,-4.0434,-4.1504,-4.2482,-4.4456,-4.5963,-4.6381,-4.6471,-4.6441,-4.6279,-4.5185,-4.4377,-4.4167,-4.312,-4.2141,-4.1085,-3.9559,-3.8272,-3.7255,-3.5011,-3.3664,-3.3335,-3.2198,0.0,0.0,0.0,0.0,0.0,0.0,0.0,-3.1511,-3.1511,0.0,-3.1511,-3.1511,-3.1511,-3.157,-3.2108,-3.2378,-3.2557,-3.3125,-3.3245,-3.3095,-3.2647,-3.2886,-3.3365,-3.3604,-3.4023,-3.4653,-3.531,-3.5519,-3.5519,-3.5519,-3.5519,-3.5519,-3.5519,-3.5519,-3.5519,-3.5519,-3.5519,-3.5519,-3.5519,-3.4861,-3.4204,-3.3754,-3.2467,-3.1481,-3.1331,-3.1241,-3.1152,-3.1152,-3.1152,-3.1152,-3.1152,-3.0702,-3.0313,-3.0193,-2.9761,-2.9588,-2.9837,-3.0974,-3.2246,-3.3623,-3.4263,-3.5533,-3.7628,-3.7855,-3.8531,-3.991,-4.0045,-4.0113,-4.0113,-4.0113,-4.0113,-4.0113,-4.0113,-4.0113,-4.0113,-4.0248,-4.106,-4.2286,-4.2422,-4.3335,-4.4615,-4.475,-4.5669,-4.6989,-4.6989,-4.7834,-4.9018,-2.7971,-2.866,-2.9609,-3.1485,-3.4195,-3.7024,-3.9567,-4.2208,-4.3926,-4.3847,-4.4635,-4.5274,-4.5244,-4.5903,-4.6172,-4.5813,-4.4885,-4.4167,-4.3798,-4.291,-4.1961,-4.0905,-3.9619,-3.8452,-3.7434,-3.516,-3.3844,-3.3484,-3.2138,-3.1511,0.0,0.0,0.0,0.0,0.0,-3.1511,0.0,0.0,-3.1511,-3.1511,-3.1511,-3.1511,-3.157,-3.2228,-3.2736,-3.3125,-3.3754,-3.4233,-3.4382,-3.3365,-3.3245,-3.3544,-3.3903,-3.4264,-3.4653,-3.531,-3.5519,-3.5519,-3.5519,-3.5519,-3.5519,-3.5519,-3.5519,-3.5519,-3.5519,-3.5519,-3.5519,-3.5519,-3.4951,-3.4204,-3.3185,-3.2736,-3.2288,-3.16,-3.178,-3.1899,-3.154,-3.1511,-3.1511,-3.1511,-3.1212,-3.0881,-3.0522,-3.0223,-3.0015,-3.0015,-3.0913,-3.2069,-3.3477,-3.3558,-3.4702,-3.7195,-3.6927,-3.7465,-3.8881,-3.8914,-3.8914,-3.8914,-3.9289,-3.9506,-3.9473,-3.9901,-3.9876,-3.948,-3.9854,-4.0398,-4.1148,-4.2314,-4.3541,-4.4615,-4.4615,-4.5495,-4.6786,-4.6786,-4.7733,-4.9018,-2.9854,-3.0227,-3.1052,-3.3471,-3.5936,-3.8184,-3.9873,-4.2874,-4.4857,-4.4376,-4.4571,-4.4496,-4.3798,-4.4994,-4.5663,-4.5125,-4.4347,-4.3688,-4.311,-4.2252,-4.1265,-4.0247,-3.929,-3.8302,-3.7225,-3.5429,-3.4174,-3.3484,-3.2288,-3.163,0.0,0.0,0.0,0.0,0.0,0.0,-3.172,-3.1869,-3.1929,-3.1929,-3.1929,-3.1929,-3.1989,-3.2677,-3.3245,-3.3784,-3.4474,-3.504,-3.534,-3.4292,-3.3933,-3.3993,-3.4384,-3.4623,-3.4833,-3.534,-3.5519,-3.5519,-3.5519,-3.5519,-3.5519,-3.5519,-3.5519,-3.5519,-3.5519,-3.5519,-3.5519,-3.5519,-3.4951,-3.4204,-3.3125,-3.3245,-3.3155,-3.2079,-3.2228,-3.2318,-3.178,-3.16,-3.1511,-3.1511,-3.1511,-3.1301,-3.0733,-3.0731,-3.0731,-3.0731,-3.1022,-3.1849,-3.3308,-3.2895,-3.3792,-3.6417,-3.598,-3.6382,-3.779,-3.7793,-3.7793,-3.7822,-3.8386,-3.8663,-3.869,-3.9455,-3.9468,-3.8925,-3.9588,-3.9959,-4.0283,-4.2217,-4.341,-4.4064,-4.4236,-4.5235,-4.6544,-4.6727,-4.7733,-4.9018,-3.111,-3.2072,-3.3242,-3.4878,-3.7228,-3.9618,-4.1795,-4.302,-4.3864,-4.4336,-4.54,-4.5873,-4.5185,-4.4736,-4.4466,-4.4407,-4.3269,-4.256,-4.25,-4.0726,-3.9649,-3.9529,-3.7734,-3.6686,-3.6567,-3.5222,-3.4174,-3.3484,-3.2766,-3.2079,-3.1511,0.0,0.0,0.0,0.0,-3.2407,-3.2437,-3.3066,-3.3305,-3.3305,-3.3305,-3.3305,-3.3395,-3.4053,-3.4354,-3.4503,-3.516,-3.5459,-3.5489,-3.537,-3.531,-3.522,-3.4651,-3.4921,-3.5429,-3.5489,-3.5519,-3.5519,-3.5519,-3.5519,-3.5519,-3.5519,-3.5519,-3.5519,-3.5519,-3.5519,-3.5519,-3.5519,-3.4951,-3.4474,-3.4354,-3.3844,-3.3455,-3.3335,-3.2856,-3.2497,-3.2437,-3.1869,-3.1511,-3.1511,-3.1511,-3.1481,-3.1421,-3.1421,-3.1421,-3.1421,-3.0908,-3.118,-3.2621,-3.2656,-3.3576,-3.5727,-3.5737,-3.6382,-3.779,-3.7793,-3.7793,-3.7793,-3.7879,-3.7908,-3.7908,-3.8608,-3.8868,-3.8873,-3.9516,-4.0191,-4.0863,-4.1757,-4.2173,-4.23,-4.3108,-4.4332,-4.5713,-4.6514,-4.7733,-4.9018,-3.3771,-3.3721,-3.4281,-3.6518,-3.7262,-3.8204,-4.042,-4.1405,-4.2073,-4.2579,-4.4119,-4.5183,-4.5281,-4.4706,-4.4167,-4.3708,-4.288,-4.2231,-4.1841,-4.0277,-3.923,-3.8811,-3.7315,-3.6477,-3.6477,-3.5192,-3.4384,-3.4114,-3.3036,-3.2348,-3.2079,-3.2079,-3.2288,-3.2706,-3.2976,-3.3095,-3.3125,-3.3395,-3.3484,-3.3484,-3.3484,-3.3484,-3.3574,-3.4233,-3.4503,-3.4593,-3.525,-3.5519,-3.5519,-3.5519,-3.5519,-3.5459,-3.519,-3.528,-3.5519,-3.5519,-3.5519,-3.5519,-3.5519,-3.5519,-3.5519,-3.5519,-3.5519,-3.5519,-3.5519,-3.5519,-3.5519,-3.5519,-3.528,-3.4981,-3.4593,-3.4592,-3.4442,-3.3634,-3.3275,-3.2976,-3.2587,-3.1929,-3.1511,-3.1511,-3.1511,-3.1511,-3.1511,-3.1511,-3.166,-3.2079,-3.1481,-3.1522,-3.2544,-3.2558,-3.3284,-3.4924,-3.4988,-3.546,-3.6415,-3.6445,-3.6445,-3.6415,-3.6874,-3.7084,-3.7115,-3.7875,-3.8358,-3.8685,-3.8888,-3.9668,-4.0788,-4.1103,-4.1528,-4.2078,-4.2815,-4.3751,-4.4756,-4.5506,-4.6421,-4.7306,-3.5884,-3.5529,-3.583,-3.809,-3.7864,-3.7961,-3.9753,-4.015,-4.0584,-4.1462,-4.2311,-4.3281,-4.456,-4.4317,-4.3838,-4.3319,-4.2551,-4.1841,-4.1145,-3.9679,-3.8542,-3.7853,-3.6776,-3.6207,-3.6207,-3.528,-3.4713,-3.4503,-3.3544,-3.3006,-3.2796,-3.2796,-3.3066,-3.3514,-3.3694,-3.3784,-3.3814,-3.3993,-3.4083,-3.4083,-3.4083,-3.4083,-3.4143,-3.4592,-3.4771,-3.4831,-3.534,-3.5519,-3.5519,-3.5519,-3.5519,-3.5519,-3.5519,-3.5519,-3.5519,-3.5519,-3.5519,-3.5519,-3.5519,-3.5519,-3.5519,-3.5519,-3.5519,-3.5519,-3.5519,-3.5519,-3.5519,-3.5519,-3.5519,-3.537,-3.4861,-3.519,-3.519,-3.4233,-3.3754,-3.3335,-3.2856,-3.2049,-3.1511,-3.1511,-3.1511,-3.1511,-3.1511,-3.1511,-3.169,-3.2168,-3.178,-3.1801,-3.252,-3.2551,-3.3035,-3.4176,-3.4423,-3.4801,-3.5489,-3.5519,-3.5519,-3.5519,-3.6038,-3.6382,-3.6628,-3.7561,-3.8308,-3.8828,-3.8762,-3.932,-4.0309,-4.0309,-4.0656,-4.1325,-4.2252,-4.3083,-4.3815,-4.4756,-4.5562,-4.6208,-3.7061,-3.7588,-3.8316,-3.9471,-3.9672,-3.9906,-4.068,-3.9719,-3.9586,-4.1553,-4.0156,-4.0059,-4.2989,-4.3319,-4.329,-4.329,-4.2132,-4.1115,-4.0457,-3.8542,-3.7165,-3.6537,-3.5878,-3.5519,-3.5519,-3.5519,-3.516,-3.4503,-3.4503,-3.4144,-3.3484,-3.3484,-3.3484,-3.3514,-3.4204,-3.4503,-3.4533,-3.519,-3.5489,-3.5489,-3.5489,-3.5489,-3.5489,-3.5489,-3.5489,-3.5489,-3.5519,-3.5519,-3.5519,-3.5519,-3.5519,-3.5519,-3.5519,-3.5519,-3.5519,-3.5519,-3.5519,-3.5519,-3.5519,-3.5519,-3.5519,-3.5519,-3.5519,-3.5519,-3.5519,-3.5519,-3.5519,-3.5519,-3.5519,-3.5519,-3.5489,-3.5489,-3.5489,-3.5489,-3.4352,-3.3484,-3.3484,-3.2318,-3.1511,-3.1511,-3.1511,-3.1511,-3.1511,-3.1511,-3.1511,-3.1511,-3.1511,-3.178,-3.2467,-3.2497,-3.2826,-3.3515,-3.4144,-3.4801,-3.5489,-3.5519,-3.5519,-3.5519,-3.5519,-3.5848,-3.654,-3.7798,-3.8756,-3.9379,-3.9409,-3.9409,-3.9409,-3.9409,-3.9409,-3.9577,-4.1111,-4.2182,-4.2976,-4.4548,-4.5562,-4.6208,-3.8868,-3.9044,-3.927,-3.9647,-3.9697,-3.965,-3.9522,-3.8817,-3.8679,-3.9694,-3.8971,-3.9016,-4.0774,-4.1699,-4.2291,-4.2662,-4.1893,-4.1115,-4.0457,-3.8931,-3.7793,-3.7135,-3.6507,-3.5968,-3.5519,-3.5519,-3.54,-3.519,-3.4743,-3.4384,-3.4173,-3.4173,-3.4412,-3.4861,-3.51,-3.519,-3.519,-3.54,-3.5519,-3.5519,-3.5519,-3.5519,-3.5519,-3.5519,-3.5519,-3.5519,-3.5519,-3.5519,-3.5519,-3.5519,-3.5519,-3.5519,-3.5519,-3.5519,-3.5519,-3.5519,-3.5519,-3.5519,-3.5519,-3.5519,-3.5519,-3.5519,-3.5519,-3.5519,-3.5519,-3.5519,-3.5519,-3.5519,-3.5519,-3.5519,-3.5519,-3.513,-3.4801,-3.4801,-3.3694,-3.2826,-3.2826,-3.2049,-3.1511,-3.1511,-3.1511,-3.1511,-3.1511,-3.1511,-3.169,-3.2138,-3.175,-3.16,-3.1809,-3.2706,-3.3275,-3.3484,-3.4592,-3.528,-3.5519,-3.5519,-3.5519,-3.5519,-3.5968,-3.6507,-3.7135,-3.8003,-3.8512,-3.8751,-3.92,-3.9373,-3.9373,-3.9373,-3.9679,-4.0194,-4.112,-4.1933,-4.2644,-4.351,-4.4022,-4.4213,-3.9697,-3.9697,-3.9622,-3.9421,-3.9371,-3.912,-3.8366,-3.7939,-3.7779,-3.7929,-3.7681,-3.7906,-3.9094,-3.9664,-4.0294,-4.1058,-4.0871,-4.033,-3.9483,-3.8775,-3.8003,-3.7105,-3.6686,-3.6178,-3.5519,-3.5519,-3.5519,-3.5519,-3.507,-3.4861,-3.4861,-3.4861,-3.51,-3.5519,-3.5519,-3.5519,-3.5519,-3.5519,-3.5519,-3.5519,-3.5519,-3.5519,-3.5519,-3.5519,-3.5519,-3.5519,-3.5519,-3.5519,-3.5519,-3.5519,-3.5519,-3.5519,-3.5519,-3.5519,-3.5519,-3.5519,-3.5519,-3.5519,-3.5519,-3.5519,-3.5519,-3.5519,-3.5519,-3.5519,-3.5519,-3.5519,-3.5519,-3.5519,-3.5519,-3.5519,-3.5519,-3.4951,-3.4503,-3.4503,-3.3365,-3.2527,-3.2527,-3.1929,-3.1511,-3.1511,-3.1511,-3.1511,-3.1511,-3.172,-3.1929,-3.2108,-3.2198,-3.2138,-3.1899,-3.2916,-3.3484,-3.3484,-3.4801,-3.5519,-3.5519,-3.5759,-3.5878,-3.5878,-3.6776,-3.7404,-3.7793,-3.8482,-3.8781,-3.8811,-3.923,-3.9373,-3.9373,-3.9373,-3.9679,-4.0127,-4.1025,-4.1662,-4.2141,-4.3,-4.329,-4.329,-3.9697,-3.9697,-3.9521,-3.8969,-3.8919,-3.8542,-3.7362,-3.7186,-3.6985,-3.648,-3.6405,-3.6803,-3.7861,-3.7516,-3.7563,-3.8593,-3.9125,-3.8914,-3.7749,-3.8105,-3.7779,-3.6496,-3.6533,-3.6237,-3.5519,-3.5519,-3.5519,-3.5519,-3.5519,-3.5519,-3.5519,-3.5519,-3.5519,-3.5519,-3.5519,-3.5519,-3.5519,-3.5519,-3.5519,-3.5519,-3.5519,-3.5519,-3.5519,-3.5519,-3.5519,-3.5519,-3.5519,-3.5519,-3.5519,-3.5519,-3.5519,-3.5519,-3.5519,-3.5519,-3.5519,-3.5519,-3.5519,-3.5519,-3.5519,-3.5519,-3.5519,-3.5519,-3.5519,-3.5519,-3.5519,-3.5519,-3.5519,-3.5519,-3.5519,-3.5519,-3.5519,-3.4891,-3.4444,-3.4444,-3.3305,-3.2437,-3.2437,-3.1899,-3.1511,-3.1511,-3.154,-3.157,-3.157,-3.2138,-3.2258,-3.169,-3.2766,-3.3185,-3.2617,-3.3215,-3.3574,-3.3574,-3.4831,-3.5519,-3.5519,-3.6148,-3.6537,-3.6626,-3.7793,-3.8362,-3.8482,-3.914,-3.9373,-3.9373,-3.9373,-3.9373,-3.9373,-3.9373,-3.9439,-3.9619,-4.0816,-4.1354,-4.1534,-4.2761,-4.32,-4.323,-3.9697,-3.9697,-3.9521,-3.8969,-3.8919,-3.8542,-3.7362,-3.7186,-3.6985,-3.648,-3.6405,-3.6499,-3.6756,-3.6248,-3.5876,-3.5711,-3.6983,-3.7442,-3.6621,-3.7415,-3.7397,-3.6083,-3.6788,-3.6656,-3.5519,-3.5519,-3.5519,-3.5519,-3.5519,-3.5519,-3.5519,-3.5519,-3.5519,-3.5519,-3.5519,-3.5519,-3.5519,-3.5519,-3.5519,-3.5519,-3.5519,-3.5519,-3.5519,-3.5519,-3.5519,-3.5519,-3.5519,-3.5519,-3.5519,-3.5519,-3.5519,-3.5519,-3.5519,-3.5519,-3.5519,-3.5519,-3.5519,-3.5519,-3.5519,-3.5519,-3.5519,-3.5519,-3.5519,-3.5519,-3.5519,-3.5519,-3.5519,-3.5519,-3.5519,-3.5519,-3.5519,-3.4532,-3.3724,-3.3724,-3.2617,-3.175,-3.175,-3.16,-3.1511,-3.1511,-3.1959,-3.2258,-3.2258,-3.2407,-3.2647,-3.3006,-3.2856,-3.2886,-3.3245,-3.3873,-3.4264,-3.4264,-3.507,-3.5519,-3.5519,-3.6148,-3.6985,-3.7943,-3.7734,-3.8182,-3.917,-3.9349,-3.9373,-3.9373,-3.9373,-3.9373,-3.9373,-3.9373,-3.9709,-4.0187,-4.0516,-4.0935,-4.1452,-4.1713,-4.2162,-4.262,-3.9371,-3.932,-3.9069,-3.8241,-3.809,-3.7814,-3.6983,-3.6857,-3.6757,-3.6455,-3.6405,-3.6405,-3.6405,-3.5881,-3.5282,-3.4731,-3.5736,-3.617,-3.5548,-3.6515,-3.6495,-3.528,-3.5733,-3.5654,-3.4835,-3.4806,-3.5034,-3.5519,-3.5519,-3.5519,-3.5519,-3.5519,-3.5519,-3.5519,-3.5519,-3.5519,-3.5519,-3.5519,-3.5519,-3.5519,-3.5519,-3.5519,-3.5519,-3.5519,-3.5519,-3.5519,-3.5519,-3.5519,-3.5519,-3.5519,-3.5519,-3.5519,-3.5519,-3.5519,-3.5519,-3.5519,-3.5519,-3.5519,-3.5519,-3.5519,-3.5519,-3.5519,-3.5519,-3.5519,-3.5519,-3.5519,-3.5519,-3.5519,-3.5519,-3.5519,-3.5519,-3.4412,-3.3484,-3.3484,-3.2348,-3.1511,-3.1511,-3.1511,-3.16,-3.1929,-3.2258,-3.2647,-3.2946,-3.3245,-3.3425,-3.3484,-3.3724,-3.3903,-3.3933,-3.4592,-3.4833,-3.4503,-3.516,-3.5519,-3.5519,-3.6447,-3.7404,-3.8392,-3.8332,-3.8721,-3.9373,-3.9373,-3.9373,-3.9373,-3.9373,-3.9373,-3.9373,-3.9373,-3.9619,-3.9978,-4.0277,-4.0606,-4.0965,-4.1265,-4.1841,-4.241,-3.8818,-3.8743,-3.8417,-3.7362,-3.7186,-3.6985,-3.648,-3.6405,-3.6405,-3.6405,-3.6405,-3.6405,-3.6405,-3.5805,-3.5182,-3.4731,-3.495,-3.4952,-3.4496,-3.54,-3.5425,-3.4218,-3.4313,-3.4203,-3.3802,-3.3774,-3.4279,-3.5294,-3.5294,-3.5359,-3.5519,-3.5519,-3.5519,-3.5519,-3.5519,-3.5519,-3.5519,-3.5519,-3.5519,-3.5519,-3.5519,-3.5519,-3.5519,-3.5519,-3.5519,-3.5519,-3.5519,-3.5519,-3.5519,-3.5519,-3.5519,-3.5519,-3.5519,-3.5519,-3.5519,-3.5519,-3.5519,-3.5519,-3.5519,-3.5519,-3.5519,-3.5519,-3.5519,-3.5519,-3.5519,-3.5519,-3.5519,-3.5519,-3.5519,-3.5519,-3.5519,-3.4412,-3.3484,-3.3484,-3.2348,-3.1511,-3.1511,-3.16,-3.1869,-3.2407,-3.2677,-3.3036,-3.3604,-3.4174,-3.4324,-3.3844,-3.4771,-3.513,-3.4683,-3.519,-3.528,-3.4833,-3.534,-3.5759,-3.5938,-3.6926,-3.7793,-3.8542,-3.902,-3.932,-3.9373,-3.9373,-3.9373,-3.9373,-3.9373,-3.9373,-3.9373,-3.9373,-3.9373,-3.9433,-4.0038,-4.0247,-4.0307,-4.0876,-4.1542,-4.2111,-3.8165,-3.814,-3.7939,-3.7287,-3.7186,-3.6985,-3.648,-3.6405,-3.6405,-3.6405,-3.6405,-3.6405,-3.6405,-3.5454,-3.4781,-3.4726,-3.3947,-3.3444,-3.3368,-3.4345,-3.4365,-3.3091,-3.3925,-3.391,-3.2834,-3.2806,-3.329,-3.4245,-3.4245,-3.4643,-3.5519,-3.5519,-3.5519,-3.5519,-3.5519,-3.5519,-3.5519,-3.5519,-3.5519,-3.5519,-3.5519,-3.5519,-3.5519,-3.5519,-3.5519,-3.5519,-3.5519,-3.5519,-3.5519,-3.5519,-3.5519,-3.5519,-3.5519,-3.5519,-3.5519,-3.5519,-3.5519,-3.5519,-3.5519,-3.5519,-3.5519,-3.5519,-3.5519,-3.5519,-3.5519,-3.5519,-3.5519,-3.5519,-3.5519,-3.5519,-3.5519,-3.4412,-3.3484,-3.3484,-3.2348,-3.1511,-3.1511,-3.1989,-3.2378,-3.2497,-3.3484,-3.4234,-3.4354,-3.4444,-3.4681,-3.516,-3.4861,-3.4831,-3.531,-3.5459,-3.5699,-3.6148,-3.6267,-3.6836,-3.7943,-3.7584,-3.8033,-3.926,-3.8781,-3.8841,-3.9373,-3.9373,-3.9373,-3.9373,-3.9373,-3.9373,-3.9373,-3.9373,-3.9373,-3.9403,-3.9493,-3.9559,-3.9589,-3.9679,-4.0127,-4.0786,-3.7613,-3.7563,-3.7387,-3.6835,-3.6782,-3.6707,-3.6455,-3.6405,-3.6405,-3.6405,-3.6107,-3.5931,-3.5931,-3.5203,-3.46,-3.4299,-3.3822,-3.3395,-3.3136,-3.3556,-3.3312,-3.2074,-3.2515,-3.2508,-3.1865,-3.2343,-3.2806,-3.3227,-3.3227,-3.3498,-3.3939,-3.3939,-3.3939,-3.3939,-3.4476,-3.4677,-3.4739,-3.5294,-3.5519,-3.5519,-3.5519,-3.5519,-3.5519,-3.5519,-3.5519,-3.5519,-3.5519,-3.5519,-3.5519,-3.5519,-3.5519,-3.5519,-3.5519,-3.5519,-3.5519,-3.5519,-3.5519,-3.5519,-3.5519,-3.5519,-3.5519,-3.5519,-3.5519,-3.5519,-3.5519,-3.5519,-3.5519,-3.5519,-3.5519,-3.5519,-3.5519,-3.4412,-3.3604,-3.3994,-3.2916,-3.2138,-3.2527,-3.2856,-3.3185,-3.3514,-3.4113,-3.4653,-3.4981,-3.504,-3.516,-3.5489,-3.5549,-3.5699,-3.6028,-3.6357,-3.6686,-3.6985,-3.6985,-3.7255,-3.7853,-3.7913,-3.8242,-3.8871,-3.8901,-3.911,-3.9373,-3.9373,-3.9373,-3.9373,-3.9373,-3.9373,-3.9373,-3.9373,-3.9373,-3.9373,-3.9373,-3.9373,-3.9433,-3.9828,-4.0127,-4.0546,-3.7086,-3.6985,-3.686,-3.648,-3.6405,-3.6405,-3.6405,-3.6405,-3.6405,-3.6405,-3.5881,-3.5508,-3.5508,-3.4881,-3.4349,-3.3947,-3.3796,-3.352,-3.3136,-3.3111,-3.2566,-3.1436,-3.116,-3.1004,-3.0884,-3.1573,-3.2083,-3.2272,-3.2272,-3.2379,-3.2593,-3.2593,-3.2593,-3.2629,-3.3359,-3.3671,-3.3739,-3.4476,-3.4806,-3.4839,-3.5067,-3.5133,-3.5166,-3.5392,-3.5519,-3.5519,-3.5519,-3.5519,-3.5519,-3.5519,-3.5519,-3.5457,-3.5228,-3.5326,-3.5457,-3.5198,-3.5326,-3.5519,-3.5519,-3.5519,-3.5519,-3.5519,-3.5519,-3.5519,-3.5519,-3.5519,-3.5519,-3.5519,-3.5519,-3.5519,-3.5519,-3.4532,-3.3873,-3.4414,-3.3514,-3.2916,-3.3425,-3.3634,-3.3903,-3.4444,-3.4653,-3.4921,-3.5459,-3.5639,-3.5729,-3.5729,-3.6327,-3.6716,-3.6716,-3.7165,-3.7494,-3.7644,-3.7644,-3.7704,-3.7883,-3.8392,-3.8631,-3.8631,-3.917,-3.9373,-3.9373,-3.9373,-3.9373,-3.9373,-3.9373,-3.9373,-3.9373,-3.9373,-3.9373,-3.9373,-3.9373,-3.9529,-3.9709,-4.0217,-4.0487,-4.0786,-3.648,-3.6455,-3.6455,-3.6405,-3.6405,-3.6405,-3.6405,-3.6405,-3.6405,-3.6405,-3.5881,-3.5508,-3.5508,-3.46,-3.3947,-3.3897,-3.3445,-3.3162,-3.3111,-3.3111,-3.2566,-3.1436,-3.0432,-2.9918,-2.9895,-2.9972,-3.0419,-3.1278,-3.1278,-3.1756,-3.2593,-3.2593,-3.2593,-3.2593,-3.2664,-3.27,-3.27,-3.277,-3.2806,-3.2876,-3.3739,-3.4109,-3.4211,-3.5133,-3.5519,-3.5519,-3.5519,-3.5519,-3.5519,-3.5519,-3.5519,-3.5359,-3.438,-3.4773,-3.5326,-3.438,-3.4773,-3.5519,-3.5519,-3.5519,-3.5519,-3.5519,-3.5519,-3.5519,-3.5519,-3.5519,-3.5519,-3.5519,-3.5519,-3.5519,-3.5519,-3.4891,-3.4444,-3.4503,-3.3873,-3.3425,-3.3484,-3.4023,-3.4444,-3.4503,-3.504,-3.5459,-3.5519,-3.6058,-3.6417,-3.6417,-3.6985,-3.7345,-3.7345,-3.7375,-3.7674,-3.8302,-3.8332,-3.8631,-3.926,-3.932,-3.9349,-3.9349,-3.9409,-3.9373,-3.9373,-3.9373,-3.9373,-3.9373,-3.9373,-3.9373,-3.9373,-3.9373,-3.9373,-3.9373,-3.9373,-3.9798,-4.0337,-4.0397,-4.0786,-4.1452,-3.6405,-3.6405,-3.6405,-3.6405,-3.6405,-3.6405,-3.6405,-3.6405,-3.6279,-3.5906,-3.5332,-3.4856,-3.453,-3.3847,-3.3395,-3.3395,-3.3194,-3.3111,-3.3111,-3.2742,-3.219,-3.1411,-3.0357,-2.9804,-2.9804,-2.9804,-2.9972,-3.0305,-3.0305,-3.0533,-3.0846,-3.0846,-3.0846,-3.0884,-3.1462,-3.1756,-3.1792,-3.2343,-3.2593,-3.2629,-3.2982,-3.3122,-3.3157,-3.3567,-3.3699,-3.3699,-3.3699,-3.3699,-3.3699,-3.3699,-3.3699,-3.3636,-3.3255,-3.3394,-3.3739,-3.3945,-3.4739,-3.5519,-3.5519,-3.5519,-3.5519,-3.5519,-3.5519,-3.5519,-3.5519,-3.5519,-3.5519,-3.5519,-3.5519,-3.5519,-3.5519,-3.4951,-3.4653,-3.504,-3.4532,-3.4262,-3.4681,-3.4951,-3.513,-3.513,-3.534,-3.5669,-3.6058,-3.6327,-3.6656,-3.7015,-3.7644,-3.8033,-3.8033,-3.8422,-3.8781,-3.902,-3.902,-3.914,-3.9373,-3.9373,-3.9373,-3.9373,-3.9373,-3.9373,-3.9373,-3.9373,-3.9373,-3.9373,-3.9373,-3.9649,-4.0008,-3.9553,-3.9679,-3.9978,-3.9589,-3.9828,-4.0457,-4.0846,-4.1175,-4.1534,-3.6405,-3.6405,-3.6405,-3.6405,-3.6405,-3.6405,-3.6405,-3.6405,-3.6279,-3.5855,-3.5282,-3.4781,-3.4449,-3.3771,-3.3345,-3.3345,-3.3212,-3.3111,-3.3111,-3.2365,-3.1712,-3.116,-3.0281,-2.9804,-2.9804,-2.9804,-2.9804,-2.9804,-2.9804,-2.9804,-2.9804,-2.9804,-2.9804,-2.9818,-3.0495,-3.0771,-3.0809,-3.1452,-3.1719,-3.1756,-3.2046,-3.2164,-3.2164,-3.2486,-3.2593,-3.2593,-3.2593,-3.2593,-3.2593,-3.2593,-3.2593,-3.2558,-3.2236,-3.2164,-3.2343,-3.329,-3.4041,-3.4635,-3.4806,-3.5066,-3.5366,-3.5484,-3.5519,-3.5519,-3.5519,-3.5519,-3.5519,-3.5519,-3.5519,-3.5519,-3.5519,-3.513,-3.4951,-3.5429,-3.51,-3.504,-3.5729,-3.5818,-3.5878,-3.6088,-3.6118,-3.6297,-3.6746,-3.6956,-3.7255,-3.7674,-3.8332,-3.8721,-3.8721,-3.917,-3.9373,-3.9373,-3.9373,-3.9373,-3.9373,-3.9373,-3.9373,-3.9373,-3.9373,-3.9373,-3.9373,-3.9373,-3.9493,-3.9738,-3.9738,-4.0098,-4.0666,-4.0217,-4.0307,-4.0666,-4.0217,-4.0427,-4.1055,-4.1534,-4.1803,-4.2132,-3.6405,-3.6405,-3.6405,-3.6405,-3.6405,-3.6405,-3.6405,-3.6405,-3.6405,-3.6405,-3.5881,-3.5508,-3.5483,-3.455,-3.3897,-3.3897,-3.3395,-3.3111,-3.3111,-3.2014,-3.116,-3.0633,-3.008,-2.9804,-2.9804,-2.9804,-2.9804,-2.9804,-2.9804,-2.9804,-2.9804,-2.9804,-2.9804,-2.9804,-2.9804,-2.9804,-2.9804,-2.9804,-2.9804,-2.9895,-3.0782,-3.1167,-3.1278,-3.22,-3.2558,-3.2558,-3.2558,-3.2558,-3.2558,-3.2558,-3.2558,-3.2415,-3.1499,-3.1167,-3.1389,-3.2307,-3.2593,-3.2731,-3.3266,-3.4192,-3.5091,-3.541,-3.5519,-3.5519,-3.5519,-3.5519,-3.5519,-3.5519,-3.5519,-3.5519,-3.5519,-3.5519,-3.5519,-3.5519,-3.5519,-3.5759,-3.6387,-3.6507,-3.6716,-3.7345,-3.7404,-3.7404,-3.7434,-3.8003,-3.8392,-3.8392,-3.902,-3.9373,-3.9373,-3.9373,-3.9373,-3.9373,-3.9373,-3.9373,-3.9373,-3.9373,-3.9373,-3.9373,-3.9373,-3.9373,-3.9403,-3.9403,-3.9798,-4.0397,-4.0397,-4.0786,-4.1384,-4.1422,-4.1422,-4.1384,-4.1422,-4.1811,-4.241,-4.241,-4.2761,-4.329,-3.6405,-3.6405,-3.6405,-3.6405,-3.6405,-3.6405,-3.6405,-3.6405,-3.6279,-3.583,-3.5608,-3.5357,-3.4956,-3.4324,-3.3897,-3.3897,-3.3395,-3.2893,-3.2491,-3.2164,-3.1562,-3.0658,-3.008,-2.9804,-2.9804,-2.9804,-2.9804,-2.9804,-2.9804,-2.9804,-2.9804,-2.9804,-2.9804,-2.9804,-2.9804,-2.9804,-2.9804,-2.9804,-2.9804,-2.9818,-3.0101,-3.0216,-3.0254,-3.0533,-3.0646,-3.0646,-3.0646,-3.0646,-3.0646,-3.0646,-3.0646,-3.0608,-3.033,-3.0658,-3.1241,-3.1536,-3.2354,-3.3211,-3.334,-3.3651,-3.4092,-3.4894,-3.5647,-3.6058,-3.5609,-3.5519,-3.5639,-3.6088,-3.6178,-3.6327,-3.6776,-3.6836,-3.6836,-3.6836,-3.6836,-3.6896,-3.7105,-3.7135,-3.7195,-3.7375,-3.7404,-3.7584,-3.8063,-3.8272,-3.8601,-3.908,-3.932,-3.9373,-3.9373,-3.9373,-3.9373,-3.9373,-3.9373,-3.9373,-3.9373,-3.9373,-3.9373,-3.9373,-3.9373,-3.9679,-4.0098,-4.0098,-4.0457,-4.1085,-4.1085,-4.1474,-4.2081,-4.1564,-4.1692,-4.2051,-4.1602,-4.1811,-4.241,-4.241,-4.2761,-4.329,-3.6405,-3.6405,-3.6405,-3.6405,-3.6405,-3.6405,-3.6405,-3.6405,-3.6279,-3.5906,-3.5881,-3.573,-3.5403,-3.4675,-3.4223,-3.4223,-3.352,-3.2943,-3.2566,-3.234,-3.1838,-3.0959,-3.0407,-3.0005,-2.9804,-2.9804,-2.9804,-2.9804,-2.9804,-2.9804,-2.9804,-2.9804,-2.9804,-2.9804,-2.9804,-2.9804,-2.9804,-2.9804,-2.9804,-2.9804,-2.9804,-2.9804,-2.9804,-2.9804,-2.9804,-2.9804,-2.9804,-2.9804,-2.9804,-2.9804,-2.9804,-2.9804,-2.9804,-3.0177,-3.0658,-3.0658,-3.1427,-3.2319,-3.2532,-3.3078,-3.3696,-3.4288,-3.4704,-3.503,-3.5251,-3.5288,-3.5596,-3.6649,-3.6866,-3.6956,-3.7345,-3.7404,-3.7404,-3.7404,-3.7404,-3.7494,-3.7764,-3.7793,-3.7883,-3.8182,-3.8212,-3.8362,-3.8751,-3.905,-3.9349,-3.9768,-4.0038,-3.9978,-3.9439,-3.9918,-4.0068,-3.9798,-4.0068,-4.0187,-4.0187,-4.0187,-4.0068,-3.9798,-4.0068,-4.0397,-4.0786,-4.0786,-4.1145,-4.1811,-4.1811,-4.2132,-4.2701,-4.2312,-4.2372,-4.2701,-4.2312,-4.2402,-4.2761,-4.2761,-4.3,-4.329,-3.6405,-3.6405,-3.6405,-3.6405,-3.6405,-3.6405,-3.6405,-3.6405,-3.6405,-3.6405,-3.6405,-3.638,-3.6355,-3.5353,-3.4655,-3.4605,-3.3696,-3.3111,-3.3111,-3.2591,-3.2014,-3.1411,-3.0934,-3.0407,-2.9804,-2.9804,-2.9804,-2.9804,-2.9804,-2.9804,-2.9804,-2.9804,-2.9804,-2.9804,-2.9804,-2.9804,-2.9804,-2.9804,-2.9804,-2.9804,-2.9804,-2.9804,-2.9804,-2.9804,-2.9804,-2.9804,-2.9804,-2.9804,-2.9804,-2.9804,-2.9804,-2.9804,-2.9804,-2.9804,-2.9804,-2.9804,-3.0206,-3.0783,-3.126,-3.2515,-3.3659,-3.3604,-3.3039,-3.2897,-3.4554,-3.5014,-3.5532,-3.7035,-3.7425,-3.7524,-3.7584,-3.7584,-3.7584,-3.7584,-3.7584,-3.7793,-3.8392,-3.8482,-3.8721,-3.9349,-3.9373,-3.9403,-3.9463,-4.0098,-4.0487,-4.0487,-4.1025,-4.0846,-3.9612,-4.0726,-4.1115,-4.0516,-4.1055,-4.1422,-4.1422,-4.1482,-4.1145,-4.0487,-4.1085,-4.1414,-4.1512,-4.1512,-4.1871,-4.25,-4.25,-4.2791,-4.329,-4.329,-4.329,-4.329,-4.329,-4.329,-4.329,-4.329,-4.329,-4.329,-3.6405,-3.6405,-3.6405,-3.6405,-3.6405,-3.6405,-3.6405,-3.6405,-3.6405,-3.6405,-3.6405,-3.6207,-3.578,-3.5082,-3.455,-3.4123,-3.347,-3.3111,-3.3111,-3.3011,-3.2441,-3.1436,-3.1286,-3.0783,-2.9804,-2.9804,-2.9804,-2.9804,-2.9804,-2.9804,-2.9804,-2.9804,-2.9804,-2.9804,-2.9804,-2.9804,-2.9804,-2.9804,-2.9804,-2.9804,-2.9804,-2.9804,-2.9804,-2.9804,-2.9804,-2.9804,-2.9804,-2.9804,-2.9804,-2.9804,-2.9804,-2.9804,-2.9804,-2.9804,-2.9804,-2.9804,-3.0482,-3.1235,-3.1361,-3.1953,-3.2523,-3.2523,-3.2077,-3.2163,-3.4036,-3.5099,-3.5949,-3.6736,-3.7594,-3.8332,-3.8871,-3.899,-3.899,-3.899,-3.899,-3.902,-3.917,-3.92,-3.926,-3.9409,-3.9373,-3.9619,-4.0127,-4.0786,-4.1175,-4.1175,-4.1332,-4.1265,-4.0965,-4.1235,-4.1324,-4.1175,-4.1294,-4.1422,-4.1422,-4.1931,-4.1871,-4.1175,-4.1362,-4.1692,-4.2201,-4.2201,-4.2491,-4.312,-4.312,-4.317,-4.329,-4.329,-4.329,-4.329,-4.329,-4.329,-4.329,-4.329,-4.329,-4.329,-3.6405,-3.6405,-3.6405,-3.6405,-3.6405,-3.6405,-3.6405,-3.6405,-3.6405,-3.6405,-3.6405,-3.6304,-3.5956,-3.5408,-3.4731,-3.3972,-3.3395,-3.3111,-3.3111,-3.3111,-3.2692,-3.1813,-3.1537,-3.1135,-3.0557,-3.0055,-2.9804,-2.9804,-2.9804,-2.9804,-2.9804,-2.9804,-2.9804,-2.9804,-2.9804,-2.9804,-2.9804,-2.9804,-2.9804,-2.9804,-2.9804,-2.9804,-2.9804,-2.9804,-2.9804,-2.9804,-2.9804,-2.9804,-2.9804,-2.9804,-2.9955,-3.0181,-3.0181,-3.0357,-3.0557,-3.0557,-3.1135,-3.1788,-3.1788,-3.219,-3.2616,-3.2616,-3.2416,-3.2546,-3.3779,-3.4896,-3.6042,-3.7442,-3.8598,-3.9559,-4.0217,-4.0337,-4.0337,-4.0337,-4.0337,-4.0337,-4.0337,-4.0337,-4.0337,-4.0337,-4.0337,-4.0606,-4.1265,-4.1692,-4.1901,-4.1901,-4.2132,-4.2043,-4.1414,-4.1983,-4.2162,-4.1901,-4.2162,-4.2312,-4.2312,-4.2641,-4.2641,-4.2312,-4.2312,-4.2491,-4.2821,-4.2821,-4.3,-4.329,-4.329,-4.329,-4.329,-4.329,-4.329,-4.329,-4.329,-4.329,-4.329,-4.329,-4.329,-4.329,-3.6405,-3.6405,-3.6405,-3.6405,-3.6405,-3.6405,-3.6405,-3.6405,-3.6405,-3.6405,-3.6405,-3.638,-3.6279,-3.5655,-3.4856,-3.3972,-3.3395,-3.3111,-3.3111,-3.3111,-3.2817,-3.224,-3.1763,-3.1486,-3.1386,-3.0532,-3.003,-2.993,-2.9829,-2.9804,-2.9804,-2.9804,-2.9804,-2.9804,-2.9804,-2.9804,-2.9804,-2.9804,-2.9804,-2.9804,-2.9804,-2.9804,-2.9804,-2.9804,-2.9804,-2.9804,-2.9804,-2.9804,-2.9804,-2.9905,-3.0231,-3.0633,-3.0708,-3.1035,-3.1386,-3.1386,-3.1788,-3.2215,-3.2215,-3.2692,-3.3262,-3.3262,-3.3262,-3.3351,-3.384,-3.4647,-3.5864,-3.7805,-3.9102,-4.0022,-4.0672,-4.079,-4.079,-4.079,-4.0973,-4.1088,-4.1088,-4.1241,-4.1422,-4.1422,-4.1512,-4.1811,-4.2351,-4.25,-4.256,-4.256,-4.303,-4.2811,-4.1773,-4.2761,-4.309,-4.259,-4.306,-4.329,-4.329,-4.329,-4.329,-4.329,-4.329,-4.329,-4.329,-4.329,-4.329,-4.329,-4.329,-4.329,-4.329,-4.329,-4.329,-4.329,-4.329,-4.329,-4.329,-4.329,-4.329,-4.329,-3.6405,-3.6405,-3.6405,-3.6405,-3.6405,-3.6405,-3.6405,-3.6405,-3.6405,-3.6405,-3.6405,-3.6182,-3.5658,-3.4726,-3.4073,-3.3922,-3.3395,-3.3111,-3.3111,-3.3111,-3.2817,-3.224,-3.2139,-3.1863,-3.1411,-3.126,-3.0959,-3.0507,-3.003,-2.9804,-2.9804,-2.9804,-2.9804,-2.9804,-2.9804,-2.9804,-2.9804,-2.9804,-2.9804,-2.9804,-2.9804,-2.9804,-2.9804,-2.9804,-2.9804,-2.9804,-2.9804,-2.9804,-2.9854,-3.0357,-3.0557,-3.0683,-3.1135,-3.1336,-3.1386,-3.1386,-3.1788,-3.2215,-3.2215,-3.2993,-3.3796,-3.3796,-3.3796,-3.3941,-3.4451,-3.4692,-3.5018,-3.5808,-3.6784,-3.7709,-3.8281,-3.8393,-3.8393,-3.8393,-3.9207,-3.9834,-3.9834,-4.0752,-4.1422,-4.1422,-4.1931,-4.2291,-4.2381,-4.288,-4.317,-4.317,-4.323,-4.32,-4.305,-4.32,-4.326,-4.317,-4.326,-4.329,-4.329,-4.329,-4.329,-4.329,-4.329,-4.329,-4.329,-4.329,-4.329,-4.329,-4.329,-4.329,-4.329,-4.329,-4.329,-4.329,-4.329,-4.329,-4.329,-4.329,-4.329,-4.329,-3.6405,-3.6405,-3.6405,-3.6405,-3.6405,-3.6405,-3.6405,-3.6405,-3.6405,-3.6405,-3.6405,-3.6329,-3.6031,-3.5027,-3.4248,-3.3922,-3.3395,-3.3111,-3.3111,-3.3111,-3.2968,-3.2692,-3.239,-3.2265,-3.234,-3.1712,-3.1286,-3.106,-3.0507,-3.0105,-2.9804,-2.9804,-2.9804,-2.9804,-2.9804,-2.9804,-2.9804,-2.9804,-2.9804,-2.9804,-2.9804,-2.9804,-2.9804,-2.9804,-2.9804,-2.9804,-2.9804,-3.0181,-3.0683,-3.0633,-3.1009,-3.1562,-3.1763,-3.2064,-3.234,-3.234,-3.2516,-3.2692,-3.2692,-3.3294,-3.3897,-3.3897,-3.4123,-3.4424,-3.4675,-3.4724,-3.5063,-3.6262,-3.7373,-3.8297,-3.8889,-3.8999,-3.8999,-3.8999,-3.9424,-3.976,-3.976,-4.0247,-4.0576,-4.0576,-4.0805,-4.1225,-4.1906,-4.221,-4.2589,-4.325,-4.329,-4.329,-4.329,-4.329,-4.329,-4.329,-4.329,-4.329,-4.329,-4.329,-4.329,-4.329,-4.329,-4.329,-4.329,-4.329,-4.329,-4.329,-4.329,-4.329,-4.329,-4.329,-4.329,-4.329,-4.329,-4.329,-4.329,-4.329,-4.329,-4.329]}]]